GFSMA_sfc_thetae_000.txt.gz
Theta_e
314 314 315 314 314 313 313 312 309 307 307 308 309 311 311 313 314 315 316 320 320 319 321 325 331 332 332 334 334 335 336 337 337 337 336 335 335 335 335 335 334 334 333
315 314 314 314 313 312 310 307 304 303 302 304 306 305 306 307 310 311 309 309 315 316 318 320 323 327 332 332 332 334 334 335 336 336 335 334 334 333 334 334 333 333 333
315 314 313 313 312 310 306 305 303 302 300 301 300 301 302 303 307 305 303 305 307 312 315 319 322 324 326 328 331 332 333 333 333 334 335 334 333 333 333 333 333 333 333
311 309 309 309 310 306 305 304 297 297 297 297 297 298 298 299 300 300 301 301 303 306 312 319 322 324 325 326 327 327 330 332 332 333 334 333 334 333 332 332 332 332 332
309 305 305 305 305 301 301 301 296 297 296 296 296 296 297 297 298 299 299 300 302 304 309 314 317 321 322 322 322 323 325 328 331 332 332 331 332 333 332 332 331 331 331
308 306 305 304 303 300 299 297 297 296 296 296 298 297 295 297 297 297 298 300 300 302 303 305 309 311 314 317 319 322 324 325 329 330 331 331 332 329 330 331 331 331 331
308 307 305 303 303 301 301 298 297 296 295 295 294 293 294 295 295 296 297 298 300 301 302 304 305 306 308 313 315 321 324 322 320 323 322 323 327 327 328 328 330 331 331
305 307 305 303 302 303 299 298 297 295 295 294 293 291 289 291 293 296 296 296 298 299 301 302 302 304 307 306 310 312 313 319 320 317 317 317 320 322 325 327 329 330 330
303 305 306 305 302 302 302 300 298 296 296 293 294 292 288 287 289 292 293 294 294 295 297 297 300 302 302 303 306 306 309 312 319 313 313 313 314 319 321 323 326 327 330
300 301 305 304 302 302 301 300 300 297 294 292 293 296 293 291 285 284 290 293 292 293 294 296 297 298 300 301 303 305 306 307 310 314 312 313 314 316 317 319 318 326 328
298 298 300 301 301 299 298 298 296 295 294 292 290 290 289 290 290 286 284 287 290 292 293 294 295 297 298 299 301 303 305 304 307 311 314 312 312 314 315 315 316 319 325
295 294 296 296 294 293 292 292 293 292 291 292 291 291 290 288 286 286 285 285 286 289 292 293 294 295 296 298 301 304 304 303 305 309 314 310 309 311 312 314 313 315 324
289 290 291 292 292 293 294 295 294 294 294 293 293 292 293 292 292 290 288 286 285 287 289 292 293 294 296 296 298 302 305 301 303 307 310 311 312 310 310 310 311 313 316
289 292 292 293 293 294 295 295 294 295 295 294 293 293 291 291 292 291 289 285 284 285 286 287 291 292 294 295 297 301 301 301 300 302 302 307 308 309 309 308 306 310 312
292 292 293 293 294 296 296 296 294 293 293 292 291 292 291 291 291 291 291 289 286 282 283 286 286 292 293 295 296 298 299 299 300 300 299 303 303 304 305 306 306 307 308
292 292 293 292 293 292 293 294 293 293 292 292 291 290 290 290 289 290 289 289 288 286 282 286 287 289 292 293 296 295 295 300 299 298 296 298 298 299 301 303 303 304 305
291 290 291 291 291 292 292 291 291 290 289 289 289 288 286 287 286 286 286 286 286 286 284 286 287 289 290 292 292 294 295 295 297 297 297 297 297 297 297 297 298 299 302
290 290 290 291 291 289 289 289 288 287 286 285 285 285 285 286 285 285 285 284 285 285 284 283 285 286 287 290 291 291 293 295 294 295 296 296 296 297 297 296 296 297 297
290 290 290 290 290 289 288 286 285 285 284 284 283 283 283 283 282 282 282 282 282 284 283 283 282 285 286 287 288 289 290 291 292 295 294 293 295 296 297 296 296 296 297
291 291 291 289 288 286 285 285 284 282 281 282 282 281 281 280 280 280 281 281 281 281 281 281 282 282 283 285 286 284 285 287 288 290 292 292 294 295 296 296 296 296 296
292 292 290 286 285 284 284 283 282 281 281 280 281 281 281 282 284 283 282 281 281 280 281 281 280 281 281 280 281 283 283 284 285 287 288 289 291 292 294 294 296 296 295
290 290 285 282 282 283 286 285 285 281 281 280 279 280 280 282 282 283 283 284 283 280 279 279 279 278 279 279 280 280 280 280 279 286 285 286 289 289 290 292 292 293 294
283 281 281 281 281 282 285 285 285 281 280 280 279 279 280 281 282 281 282 283 283 283 282 282 280 280 280 281 281 280 280 280 280 283 285 284 285 286 288 290 291 292 292
280 279 280 281 280 280 283 283 283 279 278 278 278 279 279 279 280 281 281 280 281 281 281 281 281 281 282 283 282 282 281 282 282 283 285 281 283 282 284 286 289 291 292
279 279 280 279 278 278 281 281 281 276 276 276 278 279 279 279 281 282 280 280 280 281 283 284 285 284 284 285 284 282 280 279 278 280 282 282 282 280 281 284 286 289 290
279 279 278 278 278 275 279 281 280 277 275 277 277 279 280 280 282 282 281 280 279 280 282 282 282 283 285 285 285 284 283 280 279 278 280 280 281 280 280 280 282 284 286

GFSMA_sfc_thetae_003.txt.gz
Theta_e
330 328 327 327 327 328 327 327 323 316 314 314 318 316 315 316 318 316 315 316 317 317 318 321 323 327 331 333 333 333 333 335 336 336 335 334 334 334 334 335 334 334 334
330 328 328 327 327 327 327 324 316 313 313 313 314 313 312 314 316 314 312 313 313 314 318 322 323 324 326 328 330 332 333 333 333 335 335 334 333 333 333 333 333 334 334
328 327 327 327 327 327 325 318 314 313 312 311 310 311 312 312 313 311 312 311 312 314 316 320 321 325 324 325 327 328 329 332 333 332 333 334 334 332 332 332 332 333 334
324 325 324 325 326 326 323 318 315 310 308 309 309 309 309 309 310 310 310 311 310 312 314 314 317 318 319 320 321 322 325 328 331 332 331 332 333 333 332 332 332 332 332
322 322 321 321 322 321 320 317 313 310 307 308 307 308 308 307 308 307 308 309 311 312 311 313 314 314 314 317 317 319 322 324 325 327 330 330 331 331 331 331 331 332 332
320 320 320 319 319 316 315 313 311 309 307 308 304 305 308 308 308 308 307 306 310 310 311 312 313 312 312 312 312 314 318 323 324 321 325 326 328 329 330 330 329 332 332
314 316 316 317 317 314 315 314 311 308 307 307 305 305 306 307 307 307 307 307 307 309 311 311 309 307 308 310 309 311 314 315 319 320 320 319 320 321 325 326 329 327 330
311 311 313 313 314 313 314 314 311 309 307 308 304 304 300 303 304 305 306 307 307 308 307 305 305 304 304 305 309 309 311 312 314 316 316 314 316 319 322 324 326 328 327
310 310 310 310 312 313 311 313 313 310 307 308 307 304 299 297 302 304 304 303 306 304 303 303 303 301 303 306 306 307 308 308 313 314 318 314 313 315 320 323 323 325 329
309 308 307 308 309 310 310 311 312 312 310 306 304 303 304 302 298 297 300 301 302 300 300 303 302 302 302 301 305 305 305 305 307 311 312 314 313 315 317 317 319 318 321
307 305 304 305 305 306 307 308 308 308 307 306 304 302 300 298 299 295 293 297 297 298 300 300 299 302 300 301 303 304 303 304 306 310 311 314 314 313 314 316 314 317 317
303 301 302 302 302 302 302 302 302 302 301 301 300 299 298 295 295 294 292 292 294 297 297 298 299 299 301 301 301 301 303 302 303 308 312 314 312 311 312 313 312 312 313
301 300 300 301 301 301 301 301 301 300 300 299 298 295 296 294 294 293 291 292 292 295 295 297 298 299 299 300 302 300 302 299 300 304 305 309 311 311 310 309 309 310 310
299 300 300 301 302 302 301 301 302 300 298 297 294 293 293 292 292 292 291 291 289 291 293 293 297 297 298 298 299 300 302 298 299 301 302 304 306 306 307 307 305 305 307
299 299 300 300 300 300 299 299 298 297 296 295 294 294 293 294 294 294 293 292 289 286 288 293 292 296 297 297 298 300 302 299 299 299 298 300 300 301 302 303 305 306 305
298 298 297 296 296 296 296 295 295 296 295 295 295 294 294 294 294 294 293 293 292 289 285 290 291 293 295 294 296 298 298 299 299 298 297 298 299 299 300 300 300 302 303
296 295 295 295 295 294 293 293 293 293 292 292 293 292 291 292 291 291 292 291 290 289 286 289 291 293 293 293 294 296 297 297 298 297 296 297 297 297 297 298 298 298 300
295 295 294 294 293 293 294 292 291 290 289 289 289 289 289 288 289 290 290 289 289 290 288 286 289 290 291 293 294 295 294 295 297 296 296 296 296 296 296 297 297 296 296
296 295 295 294 293 291 291 290 289 289 289 288 288 287 287 287 286 287 287 287 287 287 288 286 286 289 290 291 290 292 292 293 294 295 295 295 295 295 296 297 297 297 296
294 293 294 294 292 290 288 288 288 287 286 286 286 286 285 285 284 285 284 285 285 285 285 285 285 285 287 288 289 288 288 291 291 291 292 292 293 294 296 296 296 297 297
294 294 293 291 288 287 286 288 286 286 285 285 285 285 285 285 284 284 284 285 285 284 284 283 282 283 284 284 284 287 286 288 290 291 291 292 293 294 294 296 296 296 296
288 287 287 286 286 286 287 285 286 286 285 284 283 284 284 284 284 283 283 284 284 283 282 282 282 281 283 284 284 284 285 284 283 290 289 289 291 291 293 294 293 294 295
286 285 285 285 285 286 284 284 284 284 283 283 282 282 282 282 283 283 283 283 283 283 282 283 281 282 282 284 284 283 284 284 284 287 288 286 290 290 293 293 293 293 293
284 284 284 284 283 283 282 282 282 283 282 282 282 282 282 282 283 282 281 282 282 283 284 283 283 284 285 285 285 285 285 285 286 286 288 283 288 288 291 294 292 292 292
283 283 283 282 282 282 281 281 281 282 281 281 281 282 282 282 282 283 282 281 282 283 284 285 285 285 285 285 285 285 283 282 281 282 286 284 286 287 288 290 292 290 291
282 282 281 281 281 281 280 280 281 281 280 280 281 282 282 282 282 282 282 281 280 281 283 285 285 285 286 286 285 285 285 281 281 280 285 283 283 284 283 290 290 292 292

GFSMA_sfc_thetae_006.txt.gz
Theta_e
332 330 329 327 326 327 326 326 325 322 317 315 316 316 316 317 318 317 319 313 314 316 319 320 322 324 326 328 330 332 331 333 334 335 336 335 334 334 334 335 335 335 335
330 327 325 323 323 323 324 324 323 320 316 315 315 316 315 315 316 316 315 315 312 315 318 320 322 324 325 326 328 329 329 331 332 332 334 334 333 333 333 333 334 334 335
327 327 323 323 323 323 325 326 324 321 317 314 313 314 314 315 314 314 314 314 314 315 316 317 319 320 320 321 322 323 326 328 329 331 331 332 333 332 332 332 332 333 334
327 326 323 322 323 324 322 322 321 319 317 314 313 313 313 313 313 313 313 313 313 313 313 316 316 315 317 318 318 319 321 323 325 327 330 331 332 332 332 332 332 332 332
324 324 322 322 324 322 321 320 320 319 316 314 312 313 313 313 312 311 312 313 313 312 312 312 313 313 313 312 312 315 318 322 323 325 326 329 330 331 331 331 332 331 331
319 320 320 321 322 321 320 319 319 318 316 315 311 310 312 313 313 312 311 311 311 313 313 313 314 312 311 308 308 309 314 316 318 324 321 325 325 329 330 330 331 331 331
317 317 317 318 319 318 318 320 318 317 316 316 312 311 311 313 313 311 312 311 310 311 313 313 311 311 311 308 306 309 311 313 315 315 319 319 319 321 323 328 328 330 329
313 313 314 314 315 314 315 316 317 315 316 316 311 309 305 308 311 311 311 310 311 311 311 311 309 308 308 308 309 307 308 309 312 315 315 319 316 317 318 321 325 326 328
311 312 312 312 313 313 311 313 314 313 311 314 316 309 304 303 307 310 310 310 310 310 310 308 307 306 306 307 307 308 306 306 308 312 313 317 316 315 315 319 322 325 326
310 310 310 311 311 311 310 310 310 311 311 309 312 312 313 311 304 302 307 309 309 308 309 307 306 306 306 305 305 305 305 304 306 311 312 311 315 315 316 317 318 319 321
309 309 309 309 310 309 309 310 310 310 310 309 308 308 307 308 308 303 302 302 306 306 305 305 306 305 305 305 304 305 304 303 304 307 313 312 313 315 315 315 316 316 317
306 307 307 308 308 307 307 307 307 306 306 306 305 303 302 296 298 300 300 302 302 302 303 304 304 304 305 305 304 301 302 301 301 305 309 313 314 314 312 312 314 314 313
304 306 306 306 306 306 305 307 306 304 300 299 298 296 295 293 293 294 295 296 296 300 301 303 303 303 303 305 303 301 302 298 299 303 304 307 309 310 311 311 311 311 312
304 305 305 305 305 305 305 305 302 300 300 300 299 297 296 297 295 292 290 290 289 293 297 298 303 302 302 302 302 299 300 297 298 301 302 305 303 305 304 305 307 307 306
303 303 304 303 301 301 301 300 298 296 297 296 298 297 297 297 295 294 294 293 290 288 289 295 297 302 301 301 301 301 301 300 298 300 299 300 301 300 300 300 302 303 306
303 301 300 299 299 299 299 298 297 295 295 295 294 293 294 295 296 295 294 294 293 291 287 292 294 296 297 296 298 298 298 299 298 298 299 298 299 299 299 299 299 300 301
300 299 298 298 298 296 295 295 294 295 294 293 293 293 292 293 293 293 293 293 292 292 288 291 293 295 295 296 296 297 297 298 298 297 297 297 297 297 297 297 298 299 299
299 299 298 296 296 296 295 293 293 294 293 292 292 292 291 290 291 291 291 291 291 292 290 288 291 292 293 295 296 296 295 296 297 296 297 297 296 296 296 295 295 297 297
296 296 296 295 295 294 294 294 292 292 292 292 291 290 290 290 289 290 290 289 290 289 290 288 288 291 292 293 293 294 294 295 295 295 295 295 295 296 296 295 296 296 297
295 295 294 293 293 292 291 291 290 290 290 289 290 289 289 288 288 288 287 287 287 287 288 287 287 288 289 291 291 290 290 292 292 293 293 292 293 294 295 295 295 296 296
292 291 291 291 290 290 289 289 289 289 289 289 289 288 288 288 286 286 285 286 286 286 286 287 286 287 287 288 287 290 288 290 291 293 293 294 294 294 295 293 293 294 295
290 290 289 289 289 288 286 285 286 287 287 287 287 287 287 287 286 286 285 284 285 284 284 284 284 283 285 286 288 286 287 286 284 292 291 291 293 292 294 295 293 293 294
290 289 289 288 288 288 283 283 283 285 285 285 286 286 285 285 285 286 285 285 284 284 282 283 282 283 283 285 286 285 285 285 285 288 289 288 291 290 293 293 292 292 293
288 288 288 287 287 286 283 282 281 284 285 285 285 285 285 285 285 284 283 283 283 284 285 285 284 284 285 286 287 287 286 286 287 288 289 284 289 289 292 292 292 292 293
288 287 287 286 285 285 283 281 281 283 283 283 284 284 283 283 283 283 283 282 283 284 286 286 286 285 285 286 286 286 285 284 284 284 288 286 287 288 289 291 294 291 291
287 286 285 286 284 284 282 281 281 282 280 281 282 282 283 283 283 283 283 283 281 282 283 285 286 286 286 286 285 286 286 283 283 283 286 285 285 285 284 291 292 294 294

GFSMA_sfc_thetae_009.txt.gz
Theta_e
330 328 326 325 324 323 323 323 323 323 321 319 317 317 317 317 318 317 318 317 314 316 318 319 321 324 325 327 328 330 331 330 332 334 336 335 335 335 334 334 334 334 334
328 326 324 323 322 322 322 322 323 323 320 318 317 316 317 316 316 318 316 315 316 317 318 318 321 323 324 324 326 327 328 330 330 331 333 334 334 334 333 333 333 334 334
327 327 324 323 323 324 326 324 323 322 321 319 317 316 316 316 316 316 316 314 314 316 317 318 318 319 319 320 320 321 322 325 327 330 331 331 332 333 332 332 332 333 334
325 325 323 323 325 325 323 322 320 319 319 318 318 316 315 315 315 315 315 314 314 314 315 318 317 317 318 316 316 317 320 321 323 325 329 330 330 331 332 332 332 332 333
322 322 321 323 327 323 324 323 322 322 319 318 317 318 317 315 316 314 314 315 316 314 314 318 317 316 315 313 310 311 314 317 321 324 324 327 329 330 330 330 331 332 331
320 320 319 322 322 319 320 321 323 321 322 320 316 316 319 318 316 317 315 313 314 316 314 314 313 312 315 312 309 308 310 314 316 318 323 323 323 326 330 329 329 331 331
316 316 315 316 317 315 317 319 319 319 318 320 318 318 318 319 318 316 317 315 314 314 316 315 314 312 311 313 309 309 309 310 313 315 317 319 319 321 322 325 329 328 330
315 313 313 312 313 312 316 317 317 315 316 318 314 314 309 312 316 316 315 315 316 314 314 315 315 313 311 310 310 310 307 307 308 311 315 316 320 318 317 319 321 325 327
312 312 312 312 313 313 311 314 314 313 310 313 316 312 306 304 310 314 316 315 315 315 314 314 314 311 310 309 308 309 309 306 305 309 313 315 316 318 317 316 318 321 324
310 310 310 310 311 311 311 311 309 311 311 307 310 310 313 312 305 304 312 313 313 311 315 314 313 309 309 307 311 305 304 304 304 308 312 313 314 318 317 316 317 319 320
310 308 309 310 309 309 309 310 309 308 307 306 305 306 307 306 306 300 298 305 309 311 309 310 312 309 308 307 307 307 304 302 304 304 309 314 313 313 316 316 317 317 317
306 307 307 308 308 308 307 306 307 306 304 304 303 302 299 297 296 295 295 299 302 305 308 308 307 307 307 307 307 303 302 301 301 302 307 311 313 312 314 316 315 315 315
304 306 306 307 306 306 307 306 304 301 300 297 298 299 299 296 296 294 291 291 292 297 300 304 304 304 304 307 306 303 302 300 299 302 303 306 309 312 314 313 312 313 314
304 305 305 306 305 304 304 303 301 301 299 300 297 296 297 297 297 295 292 291 289 291 294 295 301 303 303 303 303 300 302 300 299 300 302 305 304 306 306 308 308 307 307
303 304 304 303 303 301 300 300 298 297 298 298 297 297 297 297 297 297 296 294 290 287 289 294 295 301 302 302 302 302 302 301 300 299 300 301 302 301 300 300 301 301 302
302 302 301 300 300 298 298 297 297 298 297 296 296 295 294 295 295 296 295 296 294 291 287 293 293 296 298 297 300 300 300 300 298 297 298 300 301 300 300 299 299 299 300
300 299 299 298 298 297 297 297 296 296 295 295 295 295 294 294 293 293 294 294 293 292 289 292 293 296 297 297 297 299 299 299 299 296 296 297 298 298 298 297 297 298 299
300 299 298 297 297 296 296 295 294 294 293 292 293 293 292 292 292 292 291 291 291 292 290 288 291 293 294 296 297 297 296 296 297 296 296 296 297 296 296 296 296 296 296
297 296 296 295 294 294 293 292 292 292 292 291 291 291 290 290 289 290 290 290 290 289 290 289 289 292 293 294 294 295 295 297 296 297 296 296 296 296 296 296 296 296 296
294 293 292 292 292 291 291 291 291 290 290 290 290 290 289 289 289 288 288 288 288 287 287 287 288 288 290 291 292 291 291 294 294 294 294 292 294 295 295 295 295 295 295
292 292 291 291 291 290 289 289 289 288 287 288 289 289 290 290 288 287 286 286 285 285 285 285 286 287 288 289 289 291 290 292 293 295 294 295 296 296 295 293 293 294 294
291 291 290 290 290 289 285 284 284 285 285 285 285 287 288 289 288 288 287 287 285 283 282 284 284 284 286 287 289 288 288 287 285 292 291 291 294 293 295 295 294 293 293
291 290 289 289 288 289 284 284 283 284 284 284 285 286 286 286 287 287 286 286 285 285 283 283 281 282 283 285 286 286 286 286 286 289 289 288 292 292 294 293 293 293 292
290 289 289 288 288 287 285 283 282 283 283 284 284 285 285 285 286 285 284 284 284 284 285 285 285 285 286 287 287 286 286 287 288 289 290 285 291 290 292 293 292 292 292
289 288 288 287 286 286 285 283 282 282 282 282 283 283 284 283 284 284 283 282 283 284 286 287 286 286 286 286 287 286 284 283 283 285 289 287 288 288 290 291 293 291 291
288 288 287 286 285 285 285 283 282 282 280 281 282 282 283 283 284 284 283 283 281 282 283 284 285 285 286 287 286 286 285 282 283 283 287 286 286 286 284 290 291 292 292

GFSMA_sfc_thetae_012.txt.gz
Theta_e
327 326 324 323 322 321 320 319 318 319 319 317 316 314 313 313 314 313 313 317 318 317 317 321 323 325 327 328 329 330 331 331 332 334 334 333 334 335 335 334 333 333 333
325 324 322 322 321 320 320 318 317 318 318 317 315 315 313 312 312 312 312 311 316 319 320 321 322 324 326 327 327 328 329 331 331 332 334 334 334 334 334 333 333 333 334
323 323 322 321 321 322 321 319 318 317 316 317 315 315 314 313 312 312 313 312 310 318 320 321 322 323 323 323 323 323 324 326 328 331 331 332 331 332 333 333 333 333 333
322 321 320 320 322 322 320 318 317 316 315 314 313 314 312 312 312 312 312 311 310 310 316 320 322 321 321 321 320 320 320 322 324 326 329 330 331 331 331 331 331 331 332
321 319 318 319 320 318 317 317 315 315 314 313 314 313 313 312 310 312 310 310 310 310 309 316 320 320 321 320 318 317 317 318 320 323 325 326 329 329 328 329 331 331 331
317 316 314 316 317 313 312 313 313 312 312 312 314 314 313 314 314 311 310 312 310 310 310 311 314 313 317 318 316 315 315 316 317 318 319 323 325 327 328 326 328 330 330
315 313 312 311 311 310 310 310 309 307 308 309 309 309 310 312 313 313 313 310 310 310 310 310 310 308 310 317 317 314 314 315 316 316 317 318 322 323 323 326 329 329 329
313 311 311 310 309 308 307 308 308 306 305 306 305 304 300 304 307 310 312 312 310 311 310 310 310 310 308 308 308 315 313 313 313 313 314 316 317 322 320 320 322 324 328
312 310 309 309 308 307 305 305 306 304 303 304 304 302 297 296 301 305 306 308 309 311 312 311 310 310 309 306 309 311 312 311 311 310 311 313 316 317 319 318 316 319 321
310 308 307 307 307 307 305 305 305 304 303 300 302 305 302 299 295 296 301 303 306 307 310 311 310 309 309 305 308 308 307 306 307 308 310 312 313 315 319 318 316 317 319
307 306 306 305 305 304 305 305 303 303 302 299 298 297 296 296 297 293 292 293 297 300 303 307 308 309 308 306 304 304 304 303 304 306 307 312 313 314 315 318 317 317 318
303 304 305 304 305 304 304 303 302 299 298 298 298 297 295 294 293 292 290 290 290 295 297 299 304 304 305 305 307 305 303 302 301 303 304 308 313 314 313 314 317 316 317
301 301 303 303 302 302 303 302 301 300 299 297 295 295 296 295 295 293 291 290 290 291 293 297 300 302 305 304 303 303 302 300 299 301 304 305 310 312 314 314 316 316 315
300 302 302 302 301 300 299 299 298 297 296 297 294 296 294 294 294 293 291 289 286 288 290 291 298 300 300 302 301 301 301 299 299 299 301 303 306 306 308 312 314 313 311
300 299 300 299 299 298 298 297 295 295 296 295 294 294 293 294 295 295 295 294 289 285 285 289 291 298 298 300 300 300 300 300 299 298 299 300 303 303 303 305 306 305 305
299 298 298 298 298 297 297 296 295 295 294 294 294 294 293 293 293 293 292 293 293 290 286 290 291 293 297 298 299 298 299 300 299 297 298 298 299 301 300 300 300 301 300
298 298 297 296 296 295 295 294 294 294 293 292 292 293 292 292 292 291 291 290 288 288 286 287 290 291 291 293 294 295 296 295 295 297 296 296 297 298 299 298 297 297 298
297 296 295 294 294 293 293 292 292 292 291 291 290 290 290 291 289 289 289 288 288 288 286 284 286 288 287 289 290 291 294 295 293 297 296 296 296 296 297 296 296 296 296
295 293 292 291 290 290 289 289 288 288 287 287 287 287 287 287 285 285 286 286 286 287 286 284 283 285 286 287 287 288 289 290 294 297 296 295 296 296 296 295 295 296 296
292 291 291 291 290 289 289 288 288 286 286 285 285 285 285 286 286 286 286 284 284 283 282 282 282 283 284 286 286 285 285 287 288 292 293 292 294 295 296 295 295 295 295
291 291 290 289 289 289 287 285 285 284 283 283 283 284 285 287 289 287 285 283 282 280 280 280 280 282 283 283 283 286 285 286 287 289 288 288 289 290 292 295 294 295 295
290 289 288 288 287 288 285 285 283 281 282 282 281 282 283 286 286 288 288 288 285 280 280 279 279 279 280 281 283 283 281 281 279 286 285 283 287 287 289 290 293 293 292
289 288 288 287 286 286 286 285 284 281 281 280 280 281 282 284 285 284 285 285 285 286 283 281 279 280 279 281 281 281 280 280 280 283 283 279 281 283 287 291 292 293 292
288 287 287 286 285 285 287 286 284 280 280 280 280 280 280 281 282 283 282 281 281 282 283 283 283 282 283 283 284 283 283 283 282 283 284 281 279 282 281 285 292 292 292
287 286 287 285 284 283 286 286 283 280 280 279 280 280 281 280 282 284 281 280 280 281 285 286 286 286 286 286 286 284 280 280 279 281 282 282 280 281 281 282 284 291 291
287 286 285 284 285 282 286 285 282 279 277 278 279 280 282 282 282 282 281 280 279 281 281 280 280 281 283 283 285 285 283 279 278 277 282 282 281 280 280 281 284 284 281

GFSMA_sfc_thetae_015.txt.gz
Theta_e
317 317 317 316 315 315 314 313 313 314 315 315 314 313 310 309 310 310 309 318 319 321 319 320 322 324 326 329 331 331 332 333 334 335 336 335 334 334 334 334 334 333 333
316 317 316 316 315 315 316 314 313 313 314 315 314 313 312 309 309 309 309 310 317 319 321 321 322 323 325 326 330 329 330 331 332 333 335 334 330 330 332 333 334 333 333
316 316 315 315 316 317 315 315 314 314 313 313 312 313 312 311 310 309 309 309 310 317 320 323 323 322 324 326 327 327 328 328 330 332 332 333 332 331 333 333 333 333 333
315 313 312 312 314 315 314 313 313 312 311 310 310 310 311 311 309 309 310 309 308 309 315 320 323 324 325 324 323 324 324 325 326 327 330 331 330 332 332 331 332 333 333
313 310 309 309 311 310 309 309 309 308 307 307 309 309 309 308 309 312 308 309 308 308 307 315 319 321 323 324 322 322 322 323 324 325 327 329 330 331 330 330 330 331 332
310 308 307 307 307 307 306 306 304 305 304 305 309 308 307 309 310 310 311 312 308 308 308 307 312 314 318 322 323 321 320 320 321 323 324 326 326 330 330 329 329 329 330
310 307 306 306 306 305 303 304 303 304 303 304 302 302 302 304 304 306 308 308 308 308 308 308 309 310 312 319 321 319 319 319 319 319 320 321 326 325 327 328 328 327 328
307 308 304 304 304 304 302 301 301 301 301 302 299 298 295 298 300 303 303 305 305 308 309 311 310 310 308 310 312 319 318 318 317 317 318 319 320 323 323 322 324 326 328
305 304 303 302 302 303 301 300 301 300 298 299 299 297 293 291 294 299 299 301 299 302 303 307 309 311 309 308 310 312 314 314 317 316 315 315 317 318 321 320 318 319 321
303 303 302 302 301 301 300 300 303 299 298 296 297 300 296 295 291 289 295 296 296 297 298 301 303 307 310 308 308 307 307 308 311 313 311 311 312 316 317 320 319 317 318
301 302 302 301 300 301 300 299 298 297 297 296 295 297 296 293 291 288 287 289 293 294 295 297 300 302 305 306 307 306 305 304 306 309 309 309 312 313 314 317 319 317 317
299 299 300 299 300 299 298 298 298 297 298 297 297 296 295 293 293 291 287 289 290 290 293 294 297 299 302 304 306 304 304 302 303 306 306 307 308 312 314 314 318 318 317
296 297 297 297 297 297 296 296 296 297 297 295 295 293 292 291 293 292 291 289 286 288 289 293 294 297 301 302 301 302 302 301 300 301 305 305 308 308 310 314 314 317 317
295 296 296 296 296 296 295 295 296 294 294 293 292 292 292 292 293 293 291 289 286 287 287 287 293 294 296 299 300 300 301 300 299 299 300 302 305 305 305 308 312 316 316
296 295 295 295 295 295 295 294 292 292 293 292 292 294 293 293 294 294 294 293 289 283 284 286 288 293 296 297 298 299 299 299 299 299 298 300 302 303 302 303 305 306 307
294 294 294 294 293 293 294 293 291 291 291 291 293 292 292 293 294 293 292 290 290 288 284 287 288 290 293 297 298 297 298 297 296 297 297 297 298 300 300 299 300 300 301
293 294 293 292 291 291 291 290 290 291 291 289 289 288 288 289 290 291 291 290 289 288 283 284 286 287 287 288 291 295 297 296 296 296 296 296 297 297 298 298 297 297 297
293 292 291 289 289 288 287 286 286 286 285 284 284 284 284 286 285 286 286 285 286 285 284 280 282 283 284 286 287 287 291 294 294 296 297 296 296 296 296 297 296 296 296
290 289 288 288 288 288 287 286 285 285 284 284 283 283 283 283 282 283 284 283 283 285 282 280 279 282 282 284 285 285 286 289 291 295 294 295 295 296 296 296 296 296 296
288 287 288 288 288 287 286 285 284 283 282 283 283 282 282 282 282 282 284 283 283 281 281 279 279 280 281 283 283 282 282 284 286 290 292 291 293 295 296 296 295 296 295
288 288 287 287 287 286 285 283 282 281 280 280 281 281 282 283 285 286 284 284 282 280 279 278 278 278 278 279 279 281 280 282 283 286 286 286 286 288 289 292 294 295 295
287 287 286 286 284 286 285 285 283 279 280 280 278 279 280 282 283 284 285 285 284 282 278 277 277 276 277 277 280 278 278 278 278 285 283 282 285 284 287 288 292 293 293
285 286 284 284 284 283 286 286 284 281 279 278 277 278 279 280 281 281 283 284 283 284 283 282 280 278 278 279 279 278 277 277 277 281 281 278 278 281 284 289 292 292 292
285 283 283 283 282 284 286 287 285 280 278 279 279 279 278 279 280 281 280 280 280 280 281 282 281 281 280 281 281 282 281 283 280 281 282 278 277 279 280 282 290 292 292
283 283 283 283 282 281 285 284 282 278 279 278 279 279 279 278 281 283 280 279 279 280 284 285 285 285 285 286 286 284 280 280 278 278 280 277 277 276 277 279 282 290 291
284 283 283 282 283 280 284 283 282 279 276 277 278 278 280 279 281 282 279 277 276 277 279 279 279 280 281 281 283 281 281 279 279 274 279 279 278 277 274 277 282 282 281

GFSMA_sfc_thetae_018.txt.gz
Theta_e
314 315 314 314 313 313 312 312 312 312 312 313 313 313 312 309 308 308 308 319 322 323 323 323 323 323 324 328 330 331 330 332 333 334 336 334 334 334 334 333 335 334 334
314 314 313 313 313 314 313 312 311 311 311 311 312 313 312 311 309 307 308 308 319 321 323 323 323 324 324 325 328 330 329 330 331 332 334 334 332 332 333 333 334 334 333
314 312 310 309 310 311 311 310 310 310 308 309 308 310 310 310 310 309 308 307 308 318 320 323 325 326 325 324 327 329 328 329 329 331 332 333 332 331 330 331 333 333 333
311 308 307 306 308 307 307 307 307 305 305 304 304 305 306 308 308 308 308 307 307 309 313 319 322 325 326 325 324 325 325 325 326 327 330 332 332 332 330 331 332 332 333
310 307 305 305 306 305 305 304 303 302 302 302 304 304 304 304 306 310 309 309 307 308 307 312 319 320 323 324 324 323 324 324 324 325 326 329 331 331 331 331 331 331 331
308 305 305 306 305 304 303 302 301 301 301 301 304 303 302 303 304 303 304 308 307 307 306 306 306 312 317 322 325 323 323 323 323 322 324 326 328 329 330 330 330 330 330
306 305 304 303 303 302 301 301 300 299 300 300 298 299 299 300 300 300 301 302 303 305 303 305 307 307 309 317 322 322 322 323 322 321 321 324 325 327 328 329 329 328 329
303 303 301 300 301 300 299 298 298 298 299 299 296 296 293 296 296 297 297 300 297 300 299 302 304 306 309 308 312 320 321 322 322 321 322 322 323 324 325 325 326 328 328
303 301 300 300 299 299 298 298 298 297 296 297 297 295 291 289 292 294 295 294 294 294 296 299 300 304 308 307 307 308 312 315 319 322 322 321 320 319 321 323 321 322 323
300 300 300 299 298 299 298 298 299 296 296 294 296 298 298 296 291 289 291 293 293 293 293 295 295 301 304 307 308 306 305 305 309 316 320 320 316 315 317 319 321 319 318
299 299 299 298 297 297 296 296 295 294 295 293 294 294 292 292 294 290 287 289 291 292 292 293 293 297 300 303 306 304 303 303 304 307 312 313 312 313 313 316 318 320 318
297 297 297 296 295 295 294 294 294 294 293 293 293 293 292 290 289 288 288 288 288 288 290 292 292 294 298 299 303 302 303 302 302 302 305 308 310 312 313 314 314 318 318
295 294 294 294 294 294 294 294 294 295 294 294 292 292 291 290 292 291 291 288 288 288 290 290 291 294 297 296 297 300 302 300 301 301 301 303 307 309 310 311 313 314 317
293 293 294 295 295 294 294 293 292 292 293 291 290 290 291 292 292 293 291 289 286 288 286 286 289 291 293 294 297 300 298 299 298 299 299 299 301 306 305 307 310 312 314
295 293 293 293 293 292 293 292 290 290 289 289 290 291 291 292 293 292 292 289 286 283 284 285 285 290 291 293 296 296 296 297 296 296 298 299 299 303 302 304 305 306 308
293 292 292 291 291 290 290 289 288 289 288 287 287 286 285 286 287 288 290 291 289 286 282 285 285 286 287 290 292 294 295 296 296 296 296 297 298 301 300 300 301 302 303
293 293 292 289 288 287 287 285 285 286 284 284 283 283 283 284 283 283 284 285 286 287 283 283 285 285 284 285 286 288 293 296 296 296 296 296 296 297 298 298 298 298 298
294 293 291 289 288 287 286 285 284 284 283 282 282 282 282 283 281 281 282 282 282 283 282 280 281 282 282 284 284 284 287 289 291 295 296 296 296 296 296 296 297 297 297
291 291 287 288 287 287 285 284 283 283 281 281 281 281 281 281 279 280 280 281 282 284 282 280 279 280 281 282 282 284 284 285 289 292 293 294 295 296 296 296 297 297 296
292 291 289 288 287 286 285 283 283 281 280 281 281 281 280 279 279 279 280 281 282 280 280 280 279 278 279 281 282 281 280 282 282 286 290 290 292 294 295 295 295 296 296
292 288 287 286 285 284 284 282 282 281 280 280 280 280 280 281 283 282 281 280 282 280 280 279 278 277 277 277 278 279 278 279 280 282 284 284 285 287 289 291 293 295 295
288 287 286 285 283 285 286 285 284 280 280 279 278 279 279 281 280 282 282 283 283 281 279 280 278 277 276 277 277 277 277 276 275 281 281 280 283 283 285 287 291 292 293
286 285 284 284 282 283 286 287 286 282 280 278 278 278 278 280 280 279 281 282 282 283 281 281 279 278 277 278 278 277 276 276 276 280 279 277 278 280 282 286 290 292 292
286 284 283 282 281 282 285 284 284 279 278 278 278 278 278 277 278 279 280 280 280 281 281 281 280 280 280 280 279 280 280 279 281 282 281 277 276 276 280 280 288 291 291
282 282 282 281 280 280 283 283 281 276 277 277 278 278 278 277 280 282 279 279 278 279 281 283 284 284 283 284 285 283 280 280 278 279 279 277 277 275 276 277 281 288 290
283 282 281 280 281 278 281 281 280 275 272 275 276 277 278 279 280 281 279 278 277 277 278 278 278 279 280 280 281 280 278 276 276 273 278 277 278 276 273 276 279 279 279

GFSMA_sfc_thetae_021.txt.gz
Theta_e
312 313 312 312 311 312 311 310 310 310 309 310 310 310 310 310 309 307 306 315 318 322 326 327 326 326 328 328 329 330 329 330 331 332 334 334 334 334 333 333 333 335 334
313 312 310 308 308 309 308 308 307 306 305 306 306 307 307 308 309 308 307 307 315 318 321 324 325 326 326 328 328 329 329 329 329 330 331 333 333 332 331 332 332 332 334
311 308 306 305 306 306 306 305 304 303 303 304 303 305 306 306 306 307 307 307 308 312 316 319 321 323 326 328 328 328 329 330 328 328 329 331 332 332 331 330 331 331 332
308 305 304 304 305 304 304 303 302 301 300 300 300 301 302 303 304 305 306 306 306 307 309 313 315 318 321 326 327 328 328 328 327 326 327 329 331 332 331 330 330 331 330
307 304 304 304 304 303 302 301 300 300 298 298 301 301 300 300 302 305 303 304 305 304 304 307 309 311 314 318 322 324 325 328 327 325 325 327 328 329 330 330 330 329 330
305 305 303 302 302 301 300 299 298 299 298 298 302 301 299 300 299 298 299 302 302 301 299 301 302 303 309 314 316 320 323 325 326 326 324 324 326 327 328 329 329 329 330
304 301 300 300 300 298 297 298 297 297 298 299 296 297 297 297 297 296 297 297 298 299 297 299 299 300 301 310 312 316 320 323 324 326 326 325 324 325 326 327 328 329 328
302 301 299 298 298 298 298 297 297 296 296 297 294 293 290 293 295 297 295 296 293 295 296 296 298 297 299 304 307 312 313 316 321 322 324 324 324 324 323 325 325 325 326
300 299 299 298 298 298 296 296 295 295 293 295 294 292 288 286 291 292 294 292 292 292 293 294 296 296 300 301 305 306 306 307 311 314 319 321 322 322 321 320 323 323 322
298 300 298 299 297 296 295 295 296 293 293 291 293 296 293 292 286 286 290 292 291 292 291 292 293 294 298 300 303 305 305 303 305 310 313 316 318 321 318 317 319 321 321
298 300 299 296 294 294 293 293 293 292 292 291 291 291 290 289 289 287 285 286 290 291 291 291 291 292 296 299 299 303 304 303 303 305 308 312 316 317 314 314 315 318 320
298 296 296 294 294 293 293 292 292 291 291 291 290 290 291 290 289 289 286 287 288 291 290 290 290 291 293 295 300 301 301 301 302 303 304 306 309 310 311 313 314 315 316
293 292 293 293 293 293 293 292 291 291 290 289 288 288 289 288 291 290 289 287 287 289 290 292 290 290 293 293 294 299 300 299 299 300 302 302 302 305 309 310 312 315 315
292 292 293 293 293 293 292 292 291 290 290 288 286 287 287 288 289 291 288 285 283 285 289 289 291 290 290 290 294 299 295 298 297 297 298 300 300 301 303 305 309 311 314
293 292 292 293 294 293 292 292 289 287 287 287 286 285 284 284 284 286 287 288 286 280 281 284 283 289 289 291 291 290 294 297 296 296 296 297 299 299 301 301 303 306 310
292 292 293 292 291 290 289 287 286 286 287 284 284 282 282 283 283 283 282 283 285 284 281 284 285 286 286 288 289 287 288 296 296 295 295 295 295 297 299 299 299 301 306
294 294 294 292 289 287 286 285 285 285 284 282 282 281 281 282 281 280 281 281 281 282 280 282 284 285 283 283 284 286 286 286 291 296 295 294 294 295 296 297 298 298 299
291 290 290 290 288 287 287 284 284 284 282 281 281 281 281 282 279 279 279 279 279 281 280 278 280 280 281 283 283 282 286 288 286 291 293 295 294 294 295 295 296 297 297
290 290 291 288 287 287 285 284 283 282 281 281 281 280 280 279 278 278 278 278 279 281 280 279 280 280 280 280 280 281 282 282 286 288 289 292 295 295 295 295 295 296 296
291 291 289 288 287 286 285 283 282 281 281 281 281 280 280 279 278 277 278 278 280 280 280 280 279 279 279 280 280 279 279 280 280 284 285 289 290 292 295 295 295 295 296
293 290 288 286 285 285 284 282 282 281 280 280 280 280 280 281 283 281 279 278 277 277 280 280 279 279 279 278 277 278 278 278 278 279 280 283 285 286 288 290 294 295 295
289 287 286 284 284 284 286 286 286 281 281 280 279 279 279 280 280 281 281 281 281 278 277 278 278 278 279 277 277 277 276 275 274 279 279 278 282 283 285 286 290 292 293
288 283 283 283 282 281 286 285 284 281 279 278 278 278 278 279 279 278 280 281 281 282 281 279 277 278 278 279 278 276 276 275 275 278 278 275 276 280 283 285 288 290 291
283 281 281 281 280 282 283 283 282 278 277 277 277 277 276 277 278 279 279 280 279 280 280 281 281 280 279 280 279 279 278 278 278 279 279 278 274 276 278 281 286 289 291
281 281 281 280 278 278 281 281 280 276 276 276 277 277 277 277 279 281 280 278 278 279 281 282 282 282 283 283 283 281 279 278 277 278 278 277 275 274 275 277 280 288 289
282 281 280 279 280 277 279 280 279 274 270 275 276 276 278 278 280 280 278 277 276 277 278 278 278 279 280 279 281 279 278 276 275 272 277 277 278 275 271 274 275 278 278

GFSMA_sfc_thetae_024.txt.gz
Theta_e
312 311 310 309 308 308 307 306 306 305 305 306 306 306 306 308 308 309 308 314 317 319 322 324 325 326 326 330 331 330 330 328 327 328 331 332 333 334 333 333 332 333 333
311 309 306 305 306 305 305 305 303 302 302 303 302 303 305 305 306 306 307 307 313 315 317 320 322 323 325 325 327 330 330 330 329 327 329 330 331 332 332 331 332 332 332
307 304 304 304 304 304 303 303 302 302 300 301 300 302 303 303 303 305 305 306 306 310 312 313 314 317 319 321 322 324 328 329 330 328 328 329 330 331 331 331 330 331 332
305 304 303 302 303 303 302 301 300 299 298 298 298 300 300 302 302 304 303 304 304 303 303 308 308 310 311 315 320 322 323 325 329 329 329 328 328 329 330 330 330 330 330
305 302 303 302 304 301 299 299 298 298 297 298 300 300 299 299 300 301 301 302 302 300 300 303 304 304 306 308 313 318 322 323 324 327 329 328 328 327 328 329 329 329 329
305 305 303 300 299 298 298 298 297 298 297 298 300 300 298 298 299 297 298 300 299 299 298 299 298 299 302 304 308 312 318 321 323 324 327 327 327 327 327 328 328 329 329
301 299 298 298 298 297 297 298 297 296 297 297 295 295 296 297 296 296 296 297 296 297 298 297 297 298 297 302 306 309 314 316 319 320 323 325 325 325 325 326 327 326 327
299 299 297 297 298 297 296 296 295 294 295 295 293 292 289 291 294 295 295 295 294 295 296 296 296 297 296 299 302 307 309 311 313 315 317 317 321 323 323 324 324 324 325
299 298 298 297 297 297 295 294 293 292 291 293 293 292 287 285 289 292 293 293 292 293 293 294 295 296 296 298 302 303 305 306 307 310 313 315 316 319 322 323 322 321 323
298 299 297 298 296 295 294 294 295 292 292 290 292 294 292 290 287 286 291 292 292 292 292 292 293 294 295 297 301 301 302 303 303 306 309 312 314 316 318 320 320 319 320
299 298 297 294 293 293 292 292 291 291 291 290 289 289 289 289 289 288 284 287 290 293 292 292 292 292 294 295 296 299 301 301 301 303 306 307 310 313 317 318 317 316 317
296 294 295 293 293 292 291 291 291 290 290 289 289 288 288 288 286 285 284 285 286 289 291 293 291 292 293 294 295 298 299 300 299 300 302 305 306 308 311 312 313 314 315
293 291 293 292 292 292 292 292 291 290 289 289 287 287 287 287 287 287 286 284 284 286 289 292 292 293 292 292 293 296 299 298 299 298 299 301 303 303 305 307 309 312 314
292 291 292 293 293 293 292 292 291 290 289 288 287 286 286 286 285 286 286 283 280 283 284 286 290 291 292 292 292 293 293 296 298 297 297 298 300 301 301 303 304 308 310
293 291 292 294 294 293 291 290 289 287 287 286 286 285 282 283 283 283 283 283 281 276 278 282 284 289 290 291 292 291 289 293 297 297 296 296 297 298 299 300 301 301 303
291 294 293 292 291 290 289 287 287 286 286 285 284 282 282 282 282 282 281 281 281 279 276 282 284 286 288 289 290 290 288 291 291 294 295 295 295 296 297 297 299 300 301
292 292 291 290 289 289 288 286 285 285 284 283 282 281 281 281 281 280 280 280 279 279 277 279 282 284 285 285 286 287 288 287 288 290 293 295 294 294 295 295 296 297 298
290 290 289 290 291 289 286 286 284 284 283 281 281 281 281 282 280 279 279 278 278 279 278 277 280 281 282 284 284 284 285 286 287 289 290 291 294 294 294 294 295 295 296
288 289 292 291 288 286 285 284 283 283 281 281 281 280 280 280 279 278 278 278 278 279 279 280 279 282 282 282 282 283 283 284 286 287 287 289 291 293 294 294 294 295 296
289 291 292 290 286 285 285 283 282 281 281 281 281 281 280 280 279 278 278 279 278 278 278 277 278 280 281 282 281 281 280 282 282 284 285 286 289 290 293 295 294 295 295
290 289 287 286 285 284 284 282 282 282 281 280 281 281 281 281 283 282 279 279 278 277 278 278 277 278 279 280 279 281 280 280 280 281 282 283 285 285 288 290 295 295 294
289 289 286 283 282 283 286 286 284 281 280 279 278 278 278 279 279 280 280 280 280 278 277 277 277 276 277 279 280 280 279 277 277 281 281 280 283 284 285 287 288 290 293
289 283 281 281 280 282 285 283 283 280 278 277 276 276 276 278 278 278 279 280 280 281 280 279 278 278 278 279 280 279 279 278 277 280 280 279 280 282 285 285 287 288 290
283 281 280 280 280 281 282 282 281 278 276 277 276 276 276 276 278 279 279 279 279 280 280 281 280 280 281 281 281 280 280 280 280 280 281 278 281 281 282 283 286 288 289
282 281 281 279 278 277 281 280 279 276 276 276 277 277 277 277 279 281 279 278 278 279 281 283 283 282 282 282 282 282 279 279 277 279 280 280 279 280 280 282 284 286 288
282 281 280 279 280 277 279 280 279 274 271 275 276 277 278 278 279 280 278 276 276 277 278 279 280 280 281 280 281 280 279 277 278 275 279 279 279 279 277 279 280 282 284

GFSMA_sfc_thetae_027.txt.gz
Theta_e
323 321 318 317 316 317 316 314 314 312 312 311 311 310 311 312 312 312 313 314 315 318 321 322 323 324 324 324 325 326 328 332 330 329 330 331 332 333 333 332 332 332 332
321 316 316 314 314 314 314 313 312 311 310 309 309 310 310 311 311 312 312 313 311 311 313 315 316 317 318 319 321 323 324 326 331 330 330 330 331 331 331 332 331 331 332
316 316 315 314 313 313 313 312 310 310 308 307 308 309 309 310 309 311 312 312 311 308 307 309 310 311 312 313 314 317 321 323 324 329 330 330 330 330 330 331 331 330 330
316 314 311 311 311 309 308 308 307 307 307 307 307 307 308 308 309 309 309 309 308 307 307 306 307 307 308 309 311 313 316 319 322 324 327 330 330 329 329 329 330 330 330
312 310 308 308 309 308 308 307 307 307 305 305 303 305 305 305 309 307 306 306 306 306 305 305 305 304 305 306 308 310 313 315 319 322 324 327 328 327 327 328 329 329 329
310 309 308 308 309 307 306 306 304 304 304 303 301 302 302 306 309 306 304 304 304 304 304 304 303 302 303 304 306 308 311 313 316 317 319 321 325 326 326 326 327 328 327
308 308 307 307 307 305 304 304 303 302 301 303 300 299 300 306 305 304 302 302 302 302 302 302 301 301 301 302 303 307 310 311 312 314 315 317 319 321 324 325 326 326 326
307 306 307 306 305 304 303 303 302 300 300 302 298 297 293 296 302 300 300 299 300 301 300 301 301 301 301 302 302 305 306 308 309 310 311 313 315 317 319 323 325 325 324
306 306 306 306 305 304 302 302 301 300 297 299 301 296 291 290 293 297 297 298 298 298 298 298 299 299 301 301 301 303 302 303 304 306 308 310 312 315 317 319 322 324 322
305 305 305 304 304 303 301 301 301 300 298 295 297 298 297 294 288 287 293 294 295 294 296 297 298 299 300 300 300 299 300 301 302 304 305 308 310 312 315 317 319 322 321
305 304 304 303 303 303 302 300 300 299 298 296 294 294 293 293 293 289 286 288 291 293 295 294 297 298 299 299 299 299 299 300 301 301 302 304 307 308 311 315 318 319 320
306 305 302 302 302 301 300 299 299 298 297 296 295 294 291 289 288 288 286 286 286 289 291 293 294 297 298 297 296 296 296 298 299 300 300 301 303 305 307 310 312 315 317
303 303 301 301 301 301 300 300 299 298 297 295 294 292 293 292 292 289 287 286 285 287 288 291 292 294 293 297 296 296 296 295 297 299 299 299 300 302 304 305 307 310 313
302 302 301 301 301 301 300 300 299 298 298 295 294 293 292 292 291 290 288 286 283 284 286 287 290 291 293 295 295 295 295 294 294 296 297 297 298 299 300 302 303 304 305
300 301 300 299 300 300 299 298 297 295 295 294 293 293 292 291 291 290 289 288 284 280 281 285 285 289 291 292 293 294 295 295 294 293 294 296 297 297 298 299 300 301 302
301 300 301 300 298 297 296 295 293 294 292 293 292 291 290 290 289 289 288 287 286 283 280 284 284 286 288 288 290 291 292 294 292 292 292 293 296 295 296 297 297 298 299
299 299 298 297 296 293 294 295 293 292 291 291 291 289 288 288 287 287 287 286 284 283 280 282 284 285 286 287 288 290 291 293 293 291 292 292 293 295 295 295 295 296 297
297 296 296 295 296 296 295 294 291 291 289 289 288 287 287 287 286 286 285 284 284 283 281 279 282 283 284 286 287 288 289 290 292 291 290 290 289 292 294 294 294 295 295
296 296 295 296 294 294 291 290 289 288 287 287 287 287 286 286 284 284 284 283 282 282 281 280 280 282 283 285 285 287 288 289 290 290 289 289 288 289 291 294 294 294 295
296 296 295 293 292 290 289 288 287 287 288 287 286 285 284 283 283 282 281 281 281 281 280 279 279 280 281 283 284 284 284 287 287 288 288 287 287 288 290 291 294 294 295
295 293 290 289 289 289 288 288 288 287 286 284 284 282 282 282 281 281 281 280 280 279 279 279 279 279 279 280 279 282 282 284 286 288 287 288 289 289 292 292 294 295 295
293 293 289 289 287 287 286 285 285 285 283 282 280 281 281 280 281 280 280 280 281 280 279 279 278 279 279 281 281 281 281 281 280 288 286 286 289 287 289 292 288 289 291
292 290 288 287 287 286 283 283 282 283 281 281 280 279 279 280 280 280 280 281 282 281 281 281 279 280 279 281 281 281 282 281 281 283 285 283 287 286 289 289 288 288 290
291 290 287 286 286 283 282 281 281 282 281 280 280 280 279 279 280 279 281 280 280 280 281 282 282 282 282 283 282 282 282 283 283 284 285 280 285 285 288 289 287 287 288
290 288 287 285 283 283 280 280 281 281 280 280 280 280 279 279 279 280 279 279 278 279 281 281 282 283 283 283 283 282 280 280 280 281 284 282 283 284 286 287 289 287 287
288 287 285 284 281 282 279 280 281 282 280 279 280 279 278 278 279 279 278 278 276 278 279 280 281 282 283 283 282 283 281 279 280 280 284 282 282 283 281 287 288 289 290

GFSMA_sfc_thetae_030.txt.gz
Theta_e
332 329 327 326 325 325 322 321 319 317 317 316 315 315 314 315 315 315 315 315 314 315 317 318 318 318 318 318 318 321 324 325 327 329 331 330 331 332 331 332 332 332 332
331 326 323 323 324 322 320 318 316 315 315 315 314 315 314 314 314 314 313 315 310 309 311 313 314 314 314 314 314 314 317 321 324 325 327 331 330 331 331 331 331 331 332
323 323 323 321 317 316 315 314 314 315 315 314 314 313 313 313 312 312 312 312 314 309 307 308 309 310 310 311 311 312 313 315 317 323 324 327 329 329 330 330 330 330 330
320 318 317 314 315 315 315 314 314 313 311 311 309 308 309 309 308 311 311 312 311 310 310 308 307 307 306 308 309 310 312 312 314 317 321 323 326 327 328 329 329 330 329
314 315 315 315 315 314 314 312 310 309 307 307 306 305 306 306 306 307 308 309 309 308 308 309 307 306 304 305 307 308 310 311 313 314 317 318 321 323 326 327 328 329 328
315 315 314 315 314 312 310 308 307 307 306 305 303 302 305 305 306 308 307 306 307 307 307 306 305 305 305 304 305 306 309 311 311 312 313 315 316 318 321 323 327 327 328
314 315 315 313 311 309 308 308 306 305 304 305 303 302 303 305 308 307 306 305 305 304 305 304 304 303 303 304 304 305 307 308 309 309 310 310 313 314 317 319 323 324 327
313 313 312 311 309 308 308 307 305 302 302 303 300 299 296 299 302 305 302 303 303 303 302 302 302 302 303 303 304 303 304 306 306 306 307 307 309 311 313 317 320 323 324
312 312 311 310 309 307 305 305 304 302 299 301 302 298 294 292 295 299 299 300 300 299 300 300 300 300 302 303 303 302 301 301 303 304 305 306 307 309 311 314 317 320 323
311 310 309 309 308 307 306 304 303 302 301 298 299 299 299 297 291 290 295 296 297 297 297 297 298 298 300 300 300 301 298 299 301 302 303 304 305 306 309 312 315 317 320
310 309 309 309 308 307 306 305 303 303 301 298 297 296 296 295 295 291 288 291 294 295 295 296 295 296 297 298 300 300 296 296 296 300 301 302 303 304 307 308 312 314 318
308 309 309 309 308 307 305 304 303 302 300 299 297 295 293 292 291 290 288 289 289 291 293 294 294 295 295 296 296 299 298 298 295 296 298 300 301 302 303 306 308 311 313
306 306 308 308 307 306 305 303 302 301 300 297 296 294 295 294 293 292 290 288 287 290 291 293 294 294 294 295 295 297 297 295 296 295 295 297 299 300 301 302 304 307 309
304 306 306 305 305 305 304 303 301 300 300 298 295 295 294 293 293 292 289 288 286 287 289 289 292 293 293 293 294 294 295 295 296 295 294 294 296 298 299 299 300 303 305
301 302 303 302 302 302 302 302 300 299 298 296 295 295 293 293 292 291 292 290 286 283 284 288 287 292 292 292 292 292 293 293 293 294 293 292 293 295 297 297 298 299 300
300 300 300 299 300 301 301 300 298 298 296 296 295 293 293 292 291 292 291 290 289 286 284 287 288 289 290 290 291 291 291 292 291 292 293 292 292 293 296 296 297 297 299
299 298 298 299 298 299 299 298 298 297 295 293 293 292 292 293 291 291 291 289 288 287 283 286 287 289 288 288 289 290 290 291 292 293 293 292 291 291 292 295 295 296 297
299 298 298 298 298 297 298 297 295 293 292 292 292 292 291 290 290 290 289 288 287 286 283 282 285 285 285 287 287 287 288 289 291 292 291 290 290 290 291 292 294 295 295
297 298 298 297 295 296 296 294 293 292 292 292 291 291 290 289 288 287 287 286 285 284 284 283 282 284 284 286 285 286 287 288 289 291 291 290 290 290 289 290 292 294 295
297 297 297 295 294 294 293 292 292 291 292 291 291 289 288 286 285 285 284 284 283 282 283 282 281 281 282 284 285 284 283 287 287 289 291 289 289 290 289 290 292 293 295
297 297 295 295 294 293 292 292 292 291 290 289 288 287 286 284 282 282 282 282 281 281 280 280 280 281 281 282 281 284 283 284 286 288 288 290 290 290 292 290 291 293 293
296 295 294 293 292 291 285 284 285 289 288 286 285 285 285 284 283 281 281 281 281 281 280 280 280 279 281 282 283 283 282 282 280 288 287 288 290 289 289 291 288 288 289
295 294 293 293 292 291 283 282 282 287 286 285 285 284 283 283 283 282 281 281 282 282 281 282 280 280 281 283 283 282 282 282 282 286 286 284 288 287 289 289 289 288 288
294 293 293 292 291 289 282 281 281 286 286 285 284 284 284 283 283 281 280 280 282 282 282 282 282 282 283 284 284 284 283 283 284 285 286 281 286 286 289 289 289 287 288
293 292 292 291 290 288 281 281 281 285 285 284 284 284 282 281 280 280 279 279 280 281 282 282 282 282 282 283 284 284 282 281 280 282 286 284 285 285 286 289 290 288 288
291 291 291 291 286 287 281 280 281 285 284 283 284 283 280 279 278 279 278 278 278 279 279 280 281 283 284 284 283 284 283 280 280 280 284 283 283 283 283 288 289 291 291

GFSMA_sfc_thetae_036.txt.gz
Theta_e
331 329 326 324 322 320 316 314 314 313 315 315 315 314 312 310 309 310 310 317 317 315 315 315 315 315 314 314 313 314 315 315 316 317 318 321 325 326 328 330 330 330 330
328 327 320 317 316 315 315 313 314 315 313 312 309 310 310 308 305 307 307 309 315 315 313 312 312 311 311 310 310 311 312 313 314 315 316 317 319 321 323 326 328 330 330
323 320 317 315 314 314 315 315 314 311 309 309 307 307 307 303 303 306 304 304 310 313 312 309 309 309 310 309 309 309 310 310 312 313 314 315 317 317 318 320 323 325 329
319 318 315 315 314 315 313 312 309 307 306 305 303 302 303 303 303 304 303 305 305 306 310 310 310 308 308 307 308 309 309 310 310 311 311 312 313 314 314 316 317 320 323
318 316 315 315 315 314 312 309 307 306 302 301 300 299 301 301 302 303 304 304 304 304 303 309 311 310 307 307 308 309 309 309 309 310 311 310 310 310 311 312 314 316 318
318 317 316 314 313 311 309 308 305 304 301 300 302 300 299 301 301 301 302 306 304 304 302 301 299 300 307 306 306 308 309 310 309 309 308 308 308 308 308 309 311 313 315
316 315 314 313 311 309 307 306 303 301 300 300 297 296 297 298 297 299 298 298 299 301 299 299 298 297 297 303 303 305 307 307 307 307 306 306 306 306 307 307 309 311 312
315 314 311 310 309 306 305 304 302 300 299 299 295 294 290 293 296 297 296 297 296 297 297 297 296 296 295 294 296 302 303 303 303 304 303 304 305 306 306 306 307 309 310
314 311 310 308 307 305 302 303 302 300 296 297 298 293 289 287 291 293 293 294 294 294 295 295 294 296 294 293 294 297 300 298 299 301 301 301 302 304 305 306 306 307 309
312 311 309 307 306 305 304 303 302 300 298 295 296 298 295 292 287 285 290 291 293 292 292 292 292 293 293 292 296 299 299 297 297 298 299 300 301 301 303 304 305 304 306
312 311 309 307 306 305 304 303 302 301 300 296 294 293 292 292 290 286 284 286 290 291 291 291 291 291 293 293 292 295 299 298 298 297 298 299 299 300 301 301 302 303 303
306 307 306 305 304 303 302 301 301 300 298 297 296 294 293 291 289 287 285 285 286 288 290 290 290 290 291 291 295 299 296 296 296 295 295 297 298 299 299 300 301 301 302
303 303 303 301 301 301 301 300 299 299 298 296 294 294 294 294 293 290 287 285 284 287 288 289 289 289 292 290 291 297 296 295 296 295 294 294 295 296 298 298 299 300 301
301 302 300 300 299 299 298 298 298 298 298 296 294 294 294 294 292 290 288 286 283 284 286 286 288 288 289 289 292 296 290 294 295 295 294 293 293 294 294 295 297 297 298
300 300 299 298 298 298 298 297 296 296 296 295 294 294 294 294 291 290 290 289 286 281 281 284 285 287 288 287 289 289 288 292 293 293 293 293 293 293 294 294 295 296 296
299 298 298 297 297 297 297 296 295 295 294 294 294 292 292 291 290 290 289 289 288 285 281 284 285 285 286 288 289 288 287 291 291 292 292 292 293 294 294 294 294 295 294
298 298 297 296 296 296 296 294 294 294 293 292 292 291 290 290 289 289 288 287 285 284 281 283 284 285 284 284 285 286 287 286 287 291 291 291 292 292 293 294 294 293 293
298 297 296 296 296 296 294 293 292 293 291 290 290 289 289 291 287 286 284 283 283 282 281 279 281 282 282 283 284 284 286 287 286 289 291 291 291 291 292 293 292 292 292
297 296 296 296 295 294 293 293 292 291 291 290 289 289 288 286 283 283 282 280 281 283 281 279 278 281 281 282 282 284 284 284 287 289 289 290 291 291 291 292 292 292 292
296 296 296 296 296 294 293 293 292 291 289 289 289 288 286 285 282 280 280 279 280 279 279 278 278 279 280 281 282 280 280 282 282 286 288 288 290 291 291 292 292 292 292
296 296 296 295 294 293 292 290 289 287 286 286 286 286 285 285 286 283 280 279 278 278 277 277 277 278 278 278 277 280 280 281 281 283 283 283 286 286 288 290 291 292 292
296 295 294 294 292 292 287 286 286 284 285 285 283 284 284 286 285 285 285 284 281 277 276 276 277 276 277 279 280 278 278 277 276 282 282 281 284 284 287 289 289 289 290
294 293 293 293 291 290 287 285 283 283 283 283 283 283 283 285 282 280 281 281 281 282 281 279 278 278 279 278 278 277 277 277 277 280 280 278 281 281 286 288 289 289 290
293 292 291 292 292 291 287 285 284 281 282 283 283 283 281 281 278 279 278 277 278 278 279 280 278 277 278 279 279 279 279 279 280 281 282 277 278 280 283 284 289 290 290
292 291 291 291 291 286 286 285 282 281 282 282 284 283 283 281 280 280 277 276 276 277 281 282 281 281 282 284 284 282 279 278 276 278 282 279 278 279 282 282 283 289 290
292 291 290 290 288 287 285 284 282 281 280 281 282 282 281 279 279 279 275 274 273 275 276 276 277 280 281 282 284 283 280 278 278 277 281 280 280 281 279 281 281 283 283

GFSMA_sfc_thetae_039.txt.gz
Theta_e
323 321 318 315 313 313 310 309 311 311 310 309 307 307 308 305 302 302 306 318 319 317 316 315 314 313 312 311 311 311 312 313 314 315 316 317 318 319 320 321 323 325 327
319 315 314 312 311 310 311 311 309 307 306 306 305 305 304 301 301 300 302 306 317 316 314 312 311 311 311 310 309 309 310 311 311 312 313 313 315 316 316 317 318 320 322
316 314 312 309 309 310 310 308 306 305 304 304 302 301 301 301 301 301 301 301 311 315 314 310 309 309 309 309 309 309 309 309 310 310 312 312 312 312 312 313 314 316 318
314 312 311 309 310 310 309 306 304 303 301 299 297 296 298 299 300 300 300 300 304 306 312 314 308 308 308 307 309 309 309 310 309 310 311 310 310 310 310 310 311 312 315
313 310 310 310 309 308 306 305 303 300 297 297 298 297 297 297 297 300 300 300 300 300 301 309 308 307 305 305 306 307 308 308 310 310 309 308 308 308 308 308 309 310 312
313 311 310 309 308 306 304 303 301 300 298 296 299 297 295 296 296 296 295 298 297 297 299 299 296 297 305 303 303 304 305 307 308 308 307 306 306 306 307 308 308 308 309
312 311 310 308 305 304 301 301 299 297 296 296 293 293 294 294 294 294 294 294 296 296 296 297 296 295 295 300 300 302 303 304 304 304 304 303 303 304 305 307 308 308 308
311 309 306 304 303 301 300 299 298 297 296 295 292 290 287 290 292 294 292 293 292 293 294 295 294 295 293 292 294 299 300 300 301 301 301 301 302 302 303 304 307 307 307
309 307 306 304 302 301 299 298 297 296 293 294 294 291 287 284 287 290 290 290 290 290 290 291 292 292 292 291 293 294 300 299 299 300 299 299 300 301 301 302 304 305 306
307 307 305 304 302 301 299 299 300 297 295 292 293 296 292 289 285 284 287 289 290 290 289 289 289 290 291 290 294 297 300 300 297 297 298 299 299 300 300 301 301 303 304
307 307 304 302 300 300 299 298 297 298 297 294 292 291 290 289 288 284 282 284 287 289 288 288 288 289 290 290 289 292 299 298 298 296 296 297 298 298 299 300 300 301 303
302 301 301 298 298 297 296 296 295 296 295 294 293 292 291 288 287 286 284 283 283 286 287 288 288 288 288 289 293 298 298 297 297 295 295 296 296 297 297 298 299 300 301
299 297 298 297 296 296 296 295 294 294 294 294 292 292 292 292 292 290 288 286 282 284 285 286 287 288 290 288 289 294 294 294 294 294 294 294 295 295 296 296 297 298 299
299 298 297 296 295 295 294 294 293 293 293 292 293 295 293 293 294 291 290 287 282 282 282 283 286 286 287 286 289 293 287 292 293 293 293 293 293 293 294 294 295 296 297
299 297 296 296 295 294 295 293 292 292 292 292 291 293 293 291 291 290 289 288 286 281 281 283 281 285 285 285 287 286 286 289 292 292 291 292 291 292 292 293 294 294 296
298 296 296 294 293 294 293 293 291 292 292 291 291 289 289 290 289 290 288 288 286 284 278 280 281 282 283 285 287 285 285 289 290 290 291 292 292 291 291 292 293 293 294
297 295 295 293 293 293 293 291 291 292 290 289 288 288 288 289 288 286 284 283 281 280 277 279 281 281 280 281 283 284 285 284 285 289 290 291 291 291 292 292 292 292 294
297 296 294 293 294 293 291 291 291 290 288 288 287 287 287 288 283 282 280 279 278 278 277 276 277 279 279 280 281 281 284 286 285 288 290 290 290 290 290 291 291 292 292
294 294 294 293 293 293 291 291 290 289 289 288 288 287 286 283 280 279 279 278 278 280 277 276 276 278 279 279 280 281 281 282 285 287 288 288 289 290 290 290 291 292 292
294 294 293 294 294 293 292 292 291 288 286 285 285 284 284 282 280 279 279 277 278 276 276 276 276 276 277 279 279 277 279 280 280 284 285 286 288 289 289 289 290 290 291
294 294 293 293 293 292 291 290 289 286 285 285 285 285 283 285 288 282 279 277 277 276 276 275 275 276 276 277 277 279 277 278 278 279 280 281 282 283 285 287 289 289 290
293 293 293 293 292 291 288 289 286 283 284 283 281 282 282 285 284 285 283 282 280 276 275 274 276 275 276 278 279 276 276 274 274 279 278 278 281 281 282 284 289 287 288
292 292 292 292 291 288 288 288 286 283 282 282 281 281 281 283 281 279 280 280 279 280 279 276 275 276 275 276 276 276 276 276 275 278 278 277 280 278 282 285 288 289 289
291 291 290 290 290 289 288 287 285 281 281 281 281 281 280 279 278 278 277 276 276 277 277 278 276 275 276 277 278 279 278 278 279 280 281 277 280 278 281 281 286 288 290
290 290 290 289 288 287 287 286 283 281 281 281 282 282 281 278 280 280 277 276 275 276 279 280 280 281 282 282 282 281 278 277 275 277 279 279 277 276 277 277 281 287 288
290 290 289 288 288 285 287 286 284 279 280 280 280 280 282 279 280 279 275 274 272 274 276 276 276 277 279 280 282 280 277 276 276 276 280 280 279 277 275 277 281 282 281

GFSMA_sfc_thetae_042.txt.gz
Theta_e
321 318 315 313 311 309 309 309 307 306 305 304 304 302 302 300 299 299 300 314 318 317 316 314 312 312 312 311 310 311 311 312 312 313 313 313 314 314 313 314 315 316 318
316 313 310 309 309 310 309 307 305 303 302 302 300 300 300 299 299 299 299 299 316 317 315 312 311 311 310 310 309 309 310 310 310 311 313 312 312 311 311 312 312 313 315
314 311 309 308 308 309 306 305 303 301 299 300 298 298 298 298 299 298 298 299 309 315 315 310 309 309 309 309 309 308 308 309 310 312 311 311 310 310 310 310 310 311 312
312 310 308 308 309 308 305 303 301 299 298 297 295 295 296 297 297 297 297 298 301 304 309 309 308 306 306 306 306 307 308 307 308 307 309 309 309 308 308 308 309 309 310
311 309 309 308 307 305 304 303 300 298 296 295 296 295 294 294 295 297 295 296 297 298 298 304 304 305 303 303 303 304 305 305 306 307 307 306 306 306 306 306 308 309 309
311 311 308 307 306 303 302 301 298 298 296 295 297 295 294 293 293 293 293 296 294 294 294 294 294 296 304 301 301 301 303 304 305 304 304 303 304 303 303 305 305 307 308
312 309 307 304 303 300 300 300 297 296 295 294 292 292 292 292 292 291 292 291 292 293 293 292 293 292 293 299 298 301 301 302 302 302 302 302 302 302 302 303 303 304 306
308 306 304 302 301 300 299 298 297 295 294 294 291 289 287 289 291 292 290 291 289 290 291 291 290 291 290 289 293 300 300 300 300 300 300 300 300 300 301 301 302 303 304
308 306 304 302 300 300 298 297 296 295 293 293 293 291 286 284 286 289 289 288 288 288 288 289 290 290 290 289 291 293 298 299 299 299 298 299 299 300 300 301 301 302 302
306 306 304 302 300 300 298 298 298 296 294 292 292 294 291 289 285 283 286 288 288 289 287 287 288 289 289 289 292 295 298 298 297 297 297 298 298 299 299 300 300 301 302
305 304 302 300 299 298 297 296 296 294 294 292 291 290 289 288 287 285 281 284 286 288 288 287 287 287 288 288 288 290 299 297 296 295 296 297 297 298 299 299 299 299 300
300 300 299 298 297 296 295 294 293 292 292 292 292 291 290 288 287 286 284 284 283 285 286 287 287 287 288 287 292 294 295 294 293 293 294 295 296 297 297 298 299 299 299
298 297 297 298 297 296 294 293 292 291 291 291 290 290 291 291 293 291 286 284 283 283 284 285 286 287 288 286 287 292 292 293 292 292 292 293 294 295 295 296 297 297 298
298 298 297 297 295 295 294 292 293 292 291 291 290 290 291 291 291 290 290 288 283 281 282 282 285 284 284 285 287 291 286 289 290 290 291 291 292 292 293 293 294 295 296
298 297 297 296 295 295 294 293 292 290 290 290 290 289 290 290 289 289 290 290 287 281 279 280 279 283 283 283 285 284 283 287 289 289 289 290 290 291 291 292 293 293 294
298 297 295 295 294 294 293 291 290 291 289 288 288 287 288 288 288 289 287 286 285 282 276 278 279 280 281 283 284 283 283 287 287 288 289 289 289 290 291 291 291 292 292
297 297 296 293 293 292 292 290 290 291 289 288 288 288 288 287 285 283 282 281 279 278 276 277 278 279 278 278 281 282 283 282 283 287 288 288 289 290 290 290 290 290 291
298 296 293 293 293 293 291 290 289 289 288 287 287 287 286 288 283 282 280 279 278 277 277 275 276 276 277 278 279 279 282 284 282 286 286 287 287 288 289 290 290 290 291
294 293 293 293 293 292 291 290 289 289 288 288 286 284 285 284 281 281 280 278 277 280 277 275 276 277 276 277 278 279 280 279 283 285 284 285 286 287 288 288 289 289 290
292 292 293 293 293 292 291 291 290 289 288 286 285 284 284 283 281 280 279 277 278 276 276 275 276 276 276 278 278 277 278 279 278 281 282 283 284 286 286 286 287 288 289
293 292 292 293 293 292 292 291 290 287 285 284 284 284 284 284 287 283 279 277 277 276 275 275 275 275 276 275 276 277 277 277 277 278 278 279 280 281 281 284 286 287 288
293 292 292 293 292 291 290 290 288 285 285 283 282 282 282 284 285 286 284 283 279 275 274 273 274 273 274 275 276 275 275 274 274 278 278 277 280 279 281 282 285 287 288
291 291 291 291 291 291 289 290 288 284 283 282 281 281 281 283 282 280 281 280 279 279 278 274 273 273 273 275 275 275 275 276 275 279 278 277 279 278 281 283 285 287 288
291 290 290 290 289 290 289 289 287 282 281 281 282 282 280 279 279 278 277 276 277 276 277 277 275 275 275 277 278 279 279 279 279 278 278 276 279 278 281 280 285 287 288
289 288 289 289 288 287 289 288 285 281 281 281 282 282 281 279 280 282 277 276 276 276 278 280 280 281 281 281 281 279 276 275 274 276 279 277 277 278 280 280 281 286 288
288 288 287 287 288 286 288 288 285 281 280 280 280 281 283 280 281 281 276 275 272 274 275 276 276 277 278 278 280 279 277 275 275 274 278 278 278 280 275 276 278 280 280

GFSMA_sfc_thetae_045.txt.gz
Theta_e
317 316 314 311 308 308 307 305 304 303 302 300 300 299 298 298 298 297 297 308 315 316 316 314 312 313 311 310 310 311 311 311 311 313 312 312 311 311 311 311 312 312 313
316 312 309 308 308 308 306 305 302 300 299 298 298 298 297 297 297 296 297 297 314 318 314 312 311 311 310 309 309 309 310 309 310 312 311 310 310 309 309 309 310 311 311
312 309 308 307 308 306 304 302 300 299 298 297 295 296 296 296 296 296 296 302 306 313 313 309 309 309 307 308 307 308 308 308 308 308 308 309 308 309 307 308 308 309 310
311 308 307 307 307 305 303 301 299 297 296 295 294 294 294 295 295 294 295 296 299 303 305 308 305 304 303 304 305 305 306 306 306 307 307 306 306 306 306 305 306 307 308
310 308 308 308 306 304 302 301 298 296 294 294 294 293 293 293 293 295 294 294 294 295 295 300 304 304 303 302 302 303 304 305 305 306 305 305 305 304 304 304 304 305 306
310 308 307 305 304 302 300 299 297 296 295 294 296 295 292 292 291 291 291 293 292 292 292 292 292 296 301 299 299 301 303 303 304 304 303 302 303 303 302 303 304 304 304
310 307 305 304 302 300 299 298 296 295 294 293 291 291 291 291 290 290 290 290 290 290 290 290 290 290 290 297 298 300 301 302 302 303 302 301 301 301 301 301 302 302 303
309 307 303 302 300 299 298 297 296 294 294 293 290 288 287 289 290 290 289 290 288 289 290 290 289 289 288 288 292 297 298 298 299 300 300 300 300 300 300 301 301 302 302
307 305 303 301 299 298 296 295 295 294 292 292 293 292 286 284 285 288 288 288 287 287 287 288 289 289 289 288 290 292 297 297 297 298 299 299 299 299 300 300 301 301 302
306 304 302 301 299 298 297 297 297 294 293 292 291 293 290 289 285 283 286 287 287 288 287 287 287 288 288 287 291 294 296 298 298 296 297 298 298 299 299 299 300 301 301
304 303 301 300 299 298 295 295 295 293 294 292 291 289 288 287 286 285 282 284 286 288 288 287 287 286 287 287 287 289 296 295 294 295 296 296 297 298 298 299 299 299 300
299 299 299 297 296 295 294 293 293 292 291 291 291 289 289 288 286 284 282 283 283 285 286 286 286 286 286 286 290 293 293 292 292 293 294 295 296 297 297 298 298 298 299
295 296 296 295 296 296 295 293 293 292 291 291 290 290 290 289 290 288 286 283 286 285 284 285 285 285 286 284 285 290 291 290 290 291 292 293 293 294 295 295 296 297 298
297 296 297 297 297 296 295 294 294 292 292 290 289 290 289 290 290 289 288 288 285 285 281 282 284 283 283 283 285 289 284 288 288 289 290 290 291 291 292 293 293 295 296
298 298 297 296 296 295 296 294 291 291 289 289 288 289 289 289 289 289 289 289 287 281 278 280 279 281 281 281 282 282 281 286 287 288 288 289 290 290 291 291 292 293 294
298 297 296 296 296 296 294 292 289 289 288 288 288 288 288 287 287 287 286 286 287 282 276 278 278 279 279 282 282 281 281 286 286 287 287 287 288 289 290 290 291 291 292
296 297 297 296 295 293 292 290 289 290 290 288 288 288 287 287 286 284 283 282 280 279 276 277 278 278 277 277 279 279 281 280 281 285 286 287 287 287 288 288 289 290 290
299 298 297 294 293 292 291 290 290 290 288 286 287 286 286 288 284 283 281 280 279 278 277 275 276 276 276 277 277 277 280 282 281 284 285 285 285 285 286 287 288 289 290
294 293 292 293 293 292 291 290 289 288 287 287 287 286 285 284 281 281 280 279 278 279 277 275 275 276 276 276 277 278 278 279 281 284 283 284 285 285 286 286 287 287 288
293 293 293 293 293 293 291 290 289 287 287 287 286 284 284 283 282 280 279 278 278 276 276 275 275 275 275 277 276 276 276 278 278 280 282 282 284 285 286 286 286 287 288
293 293 293 293 293 292 292 290 289 287 286 284 284 284 283 284 285 282 280 277 276 275 275 274 274 274 274 274 274 275 275 275 277 278 278 279 280 280 281 283 284 286 286
293 293 293 292 291 291 290 291 289 286 285 284 283 282 283 285 286 287 286 283 279 275 274 272 273 272 272 273 274 273 274 274 274 277 277 277 280 279 280 281 284 286 287
294 293 291 291 290 289 290 291 290 285 283 282 281 281 281 283 284 282 284 283 281 281 278 274 272 272 272 274 274 274 275 276 276 278 278 276 278 277 280 282 285 286 287
291 288 288 287 287 288 289 290 289 283 281 281 281 282 280 281 281 280 278 277 277 277 277 276 275 275 275 276 276 278 278 278 277 277 277 274 278 277 280 281 284 286 287
287 286 287 286 286 286 288 289 287 281 280 281 282 281 282 280 282 284 278 277 276 277 279 280 280 281 281 281 280 275 274 274 272 274 277 276 276 277 279 279 281 285 286
286 286 285 285 286 284 287 288 287 281 280 281 280 281 285 282 282 283 277 275 273 276 275 275 276 277 278 277 279 277 275 273 273 272 277 274 276 278 276 276 277 281 280

GFSMA_sfc_thetae_048.txt.gz
Theta_e
314 314 314 310 308 307 305 303 302 300 299 299 298 298 297 297 297 298 297 308 316 316 317 314 312 313 311 311 310 311 311 311 311 311 310 310 310 310 309 310 310 310 312
315 314 310 307 307 305 304 302 302 298 297 298 297 297 297 296 296 297 299 305 317 318 315 312 311 311 310 310 309 309 309 309 309 309 309 309 309 308 308 307 308 309 310
315 309 307 307 306 303 302 300 300 298 297 297 295 295 296 296 295 296 298 303 305 312 312 310 310 308 307 308 307 307 307 307 307 307 308 307 307 306 306 306 306 306 307
312 307 307 307 304 304 301 299 298 296 295 295 294 294 294 295 295 295 295 297 301 299 303 306 305 304 303 303 304 305 305 306 306 305 306 306 305 305 304 304 305 305 305
309 308 310 308 305 303 301 300 297 296 295 294 294 294 293 293 293 295 294 294 295 295 295 302 305 304 303 302 302 303 304 304 304 305 304 303 303 303 304 303 303 304 304
309 307 307 306 303 301 299 298 297 296 295 294 296 294 292 292 292 292 292 293 293 293 293 294 295 296 300 299 300 301 303 304 304 304 303 303 302 302 302 301 301 302 303
309 307 305 303 302 300 299 297 296 295 294 293 292 292 291 292 292 291 291 291 291 292 292 292 292 291 291 297 298 300 301 302 302 302 302 302 302 301 301 301 302 302 302
308 306 304 301 300 299 298 296 295 294 293 292 291 289 287 290 291 292 290 291 290 290 291 291 291 292 291 290 293 298 299 299 300 300 300 300 300 300 300 301 301 301 302
308 305 303 300 299 298 296 295 295 294 292 293 293 291 286 285 287 290 289 289 289 289 289 290 291 291 291 290 291 293 296 297 297 299 299 299 299 299 300 300 300 301 301
306 304 302 299 298 297 296 296 296 294 294 292 292 294 293 291 286 285 288 288 288 289 289 289 290 290 290 289 291 293 295 297 296 297 297 298 298 298 299 299 300 300 300
303 302 300 298 297 296 295 295 294 294 296 292 293 292 289 288 287 286 284 286 288 289 289 289 289 288 288 288 288 291 294 293 293 294 296 297 297 297 298 298 299 299 300
300 299 298 297 295 295 293 294 294 293 293 292 293 290 289 288 288 285 283 283 284 287 288 288 288 287 287 286 289 291 292 292 291 292 293 294 296 296 297 297 298 298 299
295 295 296 295 295 296 296 295 293 293 293 292 291 290 290 290 290 289 287 285 284 288 287 287 287 286 286 286 286 289 289 288 289 290 291 292 292 293 294 295 295 296 297
297 297 296 298 298 297 295 295 294 293 292 291 289 290 290 290 291 291 289 289 286 287 285 285 286 284 284 284 286 287 284 286 287 288 289 290 290 291 291 292 293 294 295
297 298 299 298 295 296 296 295 293 293 290 288 289 289 289 289 289 290 290 289 287 282 280 283 283 283 283 283 283 284 282 284 286 287 287 288 289 289 290 291 292 292 293
297 298 298 295 296 297 296 294 292 291 288 288 288 287 288 288 288 288 288 288 289 285 280 282 281 282 282 282 283 283 281 285 285 286 286 287 287 288 288 289 289 290 291
299 297 296 296 296 295 294 292 289 290 289 288 288 287 287 287 286 286 285 284 283 282 279 280 280 280 279 279 280 280 281 281 282 285 285 286 286 286 286 287 287 288 289
297 297 298 296 294 293 292 290 291 290 289 288 287 286 286 287 284 283 282 281 280 280 278 276 277 278 278 279 279 278 280 281 282 283 285 285 285 285 286 286 286 287 288
297 296 295 294 293 292 292 292 291 290 288 287 287 286 285 285 283 281 281 280 279 280 278 277 276 278 278 278 278 279 279 280 281 283 283 283 284 285 286 286 287 287 287
294 294 294 293 293 294 293 291 290 288 287 287 286 285 285 283 282 281 281 280 279 277 277 276 276 276 276 277 277 276 276 278 278 280 281 282 283 284 285 285 285 286 287
293 293 294 295 294 293 292 290 289 287 286 285 285 284 283 284 286 284 281 280 278 276 276 276 275 275 275 274 274 276 275 276 277 279 279 280 281 282 282 283 284 285 286
294 295 294 294 293 292 291 291 289 286 286 284 284 283 283 287 287 288 288 286 281 277 276 274 274 274 273 274 275 274 274 274 273 280 278 278 281 280 281 282 284 285 286
295 294 294 292 289 289 290 291 290 286 285 284 283 282 282 283 285 282 284 286 284 283 278 276 274 274 273 275 275 274 276 276 276 279 279 276 279 278 281 282 284 285 286
293 292 289 288 286 287 289 289 289 286 284 283 282 282 281 281 281 281 281 280 279 279 279 278 277 275 275 277 276 277 277 277 277 278 279 274 278 278 280 281 284 285 286
289 287 286 286 285 285 288 288 287 284 283 282 282 282 282 282 283 285 280 278 278 278 281 282 281 280 281 281 281 277 274 274 272 274 277 276 278 277 279 281 283 285 286
286 285 284 284 285 284 286 288 287 282 281 282 281 281 285 283 284 284 281 278 275 277 277 276 276 278 279 278 279 278 276 273 273 271 278 275 276 277 276 281 281 283 284

GFSMA_sfc_thetae_051.txt.gz
Theta_e
323 321 320 316 315 314 313 311 310 309 308 307 307 306 306 306 308 309 311 317 319 317 318 314 316 313 312 310 310 310 310 310 310 310 310 310 309 308 308 308 308 309 310
322 321 317 316 315 314 313 311 309 308 307 307 306 306 305 306 308 311 314 315 317 319 315 313 312 311 310 310 308 308 309 308 308 308 308 309 308 307 307 307 307 307 307
322 321 317 316 315 313 311 310 307 308 306 305 305 305 305 305 306 310 313 312 313 313 314 311 310 307 307 307 306 306 306 306 307 307 307 307 307 305 306 305 305 305 306
323 320 317 315 312 309 309 307 308 306 306 306 305 305 304 304 304 305 311 311 309 310 307 305 305 304 302 303 304 304 305 305 305 305 305 305 304 304 304 304 304 304 304
322 320 318 313 310 309 309 309 308 308 306 305 304 305 305 303 303 302 302 304 305 307 306 304 305 303 302 302 302 302 303 305 305 306 305 305 304 304 303 303 302 302 303
319 318 317 313 311 311 310 309 308 307 306 305 302 303 305 303 303 304 302 301 303 303 303 303 304 303 301 300 300 301 302 304 305 304 304 304 303 303 303 302 302 302 303
317 317 316 313 313 311 310 309 307 306 305 305 304 303 303 302 301 302 301 301 301 301 301 302 302 301 300 296 297 299 302 303 303 303 302 302 302 302 302 302 302 302 302
316 315 315 313 312 310 308 308 307 305 305 304 303 301 299 299 300 301 301 300 300 300 299 299 299 298 299 299 297 297 299 300 300 301 301 301 301 301 301 301 301 302 302
314 314 315 312 311 310 307 307 307 306 303 303 303 299 296 294 297 300 300 300 300 299 300 300 299 298 298 298 297 297 296 297 299 300 300 300 300 300 300 301 301 301 301
312 311 312 311 309 308 307 307 306 305 303 301 302 301 302 300 293 292 299 299 299 298 300 300 299 299 297 297 295 293 296 295 295 297 298 298 299 299 300 300 300 300 301
311 310 311 309 308 308 308 306 305 303 302 300 299 300 300 299 299 295 291 294 298 299 300 299 299 298 296 296 298 295 292 292 293 294 295 297 298 298 299 299 299 299 300
312 311 308 308 308 306 304 300 299 300 299 297 299 299 297 295 294 294 292 293 294 296 298 297 297 297 296 295 291 290 290 290 290 291 292 293 295 296 296 297 297 298 298
309 308 307 305 303 300 299 298 301 298 296 299 299 299 299 298 298 296 294 293 292 294 294 296 297 296 293 293 292 289 290 288 288 289 289 291 292 293 294 294 295 296 297
308 306 305 300 299 300 302 299 299 298 298 299 300 299 298 298 297 297 295 293 290 291 291 292 295 295 293 292 290 288 289 287 287 287 288 289 290 291 291 292 293 294 294
304 303 302 301 301 300 299 298 297 298 298 298 299 299 297 297 298 297 297 296 292 287 286 290 290 293 293 292 290 289 289 287 286 287 287 287 288 289 290 290 291 292 292
302 302 302 302 299 299 299 297 297 297 297 299 297 297 297 297 297 297 296 296 294 290 286 290 290 291 291 289 288 288 288 286 285 285 286 286 287 288 288 289 289 289 290
301 301 301 299 297 298 297 296 295 296 297 297 296 296 296 296 295 295 295 294 292 292 288 289 289 289 288 287 287 288 286 285 286 285 285 286 286 286 287 287 287 288 288
302 301 298 297 298 297 296 294 296 297 296 296 296 295 295 294 294 295 294 292 291 291 288 285 287 286 286 287 287 285 284 284 285 285 284 285 285 285 285 286 287 287 288
299 298 298 297 297 297 296 297 297 297 297 296 296 295 294 294 293 293 292 291 290 288 288 285 285 286 285 286 285 284 283 284 284 284 284 284 284 285 285 286 286 287 287
300 300 300 297 297 296 297 297 298 297 296 295 296 295 295 294 293 293 292 290 289 287 287 285 284 284 285 285 283 281 281 283 282 283 284 284 284 285 285 285 285 286 287
299 296 297 296 297 296 295 296 297 296 296 295 295 294 294 294 292 292 290 290 288 287 285 284 284 284 283 282 281 281 280 281 282 284 284 284 285 285 286 285 286 286 286
298 297 296 297 295 295 293 292 292 295 295 294 294 295 294 291 290 289 288 287 287 286 285 284 283 282 282 282 281 280 280 279 277 284 282 282 284 283 285 286 285 285 285
297 296 295 295 296 297 291 290 290 293 294 294 294 293 293 290 289 290 287 287 287 286 283 286 283 283 282 282 280 279 280 279 279 282 281 279 283 282 285 285 285 285 286
295 295 296 297 295 293 289 289 289 293 293 293 293 293 292 292 291 289 288 288 287 288 286 284 285 284 284 283 281 281 281 281 281 282 282 277 282 282 284 285 285 286 286
296 295 294 293 292 292 289 288 288 292 292 292 292 292 291 291 289 287 287 286 286 286 285 284 283 283 282 281 282 282 280 279 278 279 282 280 281 280 282 283 286 285 285
291 291 290 291 290 290 289 288 288 291 290 290 291 291 287 288 286 285 287 286 284 285 284 283 283 283 282 283 281 282 281 278 278 277 281 278 279 279 277 283 284 285 287

GFSMA_sfc_thetae_054.txt.gz
Theta_e
326 326 326 325 323 322 320 318 316 315 314 314 312 311 310 311 311 312 315 319 317 319 318 316 315 314 312 310 310 309 309 309 309 309 309 309 309 308 308 308 307 308 308
328 325 325 323 321 320 320 319 318 316 315 314 311 310 309 310 311 314 315 316 318 320 316 314 313 312 311 310 308 307 307 307 307 308 308 308 308 306 306 306 306 306 307
329 327 324 320 320 321 320 318 317 316 314 312 310 310 309 309 310 312 314 316 315 313 315 313 311 308 307 308 307 307 306 306 306 306 306 306 305 304 305 305 305 304 305
328 327 324 324 323 321 318 312 315 316 314 313 311 311 311 310 309 310 314 315 315 313 308 306 305 304 303 304 305 306 305 305 306 306 306 306 305 305 305 304 304 303 304
332 328 325 325 323 314 313 313 316 316 313 312 310 312 312 310 308 306 309 311 311 309 307 306 304 303 303 302 303 303 304 305 306 306 306 306 305 305 305 304 304 304 304
333 330 327 325 318 317 313 314 314 315 314 313 307 309 312 309 308 307 306 305 306 307 306 305 306 305 302 301 301 302 303 305 306 306 305 304 304 303 303 303 303 303 303
330 330 327 323 319 315 315 315 314 313 311 312 311 311 310 309 307 306 306 305 305 305 305 304 304 304 303 300 298 299 302 304 304 304 303 303 302 302 302 302 302 303 303
327 326 325 321 320 317 313 314 315 312 312 312 311 308 306 307 306 306 306 305 305 305 304 303 304 303 303 302 302 297 298 300 301 302 302 302 302 302 301 302 302 302 303
324 323 324 321 321 316 311 314 315 313 310 310 309 307 304 302 303 306 305 305 305 304 304 303 304 303 303 302 302 301 296 296 298 299 300 300 301 301 301 301 302 302 302
322 323 322 320 317 315 315 315 314 314 311 307 308 306 305 304 300 299 304 304 304 303 303 303 304 304 303 302 299 295 295 294 295 296 297 298 299 300 300 301 301 301 302
324 320 318 317 316 317 316 315 313 312 306 301 302 301 303 304 303 299 295 298 301 302 303 303 303 302 302 301 301 298 292 292 292 293 294 295 296 297 298 298 299 299 300
322 318 314 314 316 316 315 314 311 303 302 301 301 300 303 301 299 297 296 297 297 299 301 301 300 300 300 300 296 290 290 290 290 291 291 292 293 294 295 296 297 298 298
316 314 314 316 315 315 310 303 305 307 302 299 299 303 300 300 300 298 297 296 295 297 298 300 300 300 298 298 298 289 292 291 289 289 290 290 291 292 293 294 295 296 296
312 316 313 314 308 305 303 307 305 300 301 298 302 301 300 301 301 299 296 295 293 294 296 296 298 298 298 297 296 289 294 293 290 289 288 289 289 290 291 292 293 293 294
312 308 309 305 306 307 306 300 300 298 299 301 301 303 301 301 301 300 299 298 295 291 291 294 294 297 297 297 296 295 293 292 289 288 287 287 288 289 290 290 291 291 292
306 305 303 303 306 302 300 303 301 298 298 299 302 302 301 300 300 300 299 298 297 294 290 294 294 296 296 294 294 293 292 290 290 289 287 286 287 288 288 288 289 289 290
305 304 304 304 300 299 300 298 297 298 296 301 303 301 299 300 299 299 299 298 296 295 291 293 295 295 294 293 292 293 292 291 290 289 288 286 286 286 287 287 287 287 288
304 306 304 300 299 300 298 298 296 297 300 301 300 300 299 298 298 299 298 297 296 296 293 290 293 293 292 293 292 291 290 289 289 289 287 286 286 285 286 286 286 287 287
303 303 300 299 299 297 297 297 298 300 301 301 300 299 299 298 298 298 297 296 296 294 293 291 290 292 292 292 290 290 289 289 288 288 287 287 286 286 286 286 286 287 287
302 300 300 300 298 298 298 298 299 300 301 301 300 299 299 298 298 297 296 296 294 293 293 290 289 289 289 290 289 287 286 287 286 287 288 287 286 286 286 286 286 286 287
301 302 300 299 297 297 298 298 297 298 299 299 299 299 299 298 296 295 296 295 294 292 291 289 288 287 287 286 287 287 285 285 286 288 287 288 288 288 288 288 288 287 287
300 298 296 296 297 297 293 293 295 299 298 298 297 298 298 296 295 291 291 290 292 293 291 289 288 286 286 287 288 286 284 283 281 288 286 285 287 286 288 288 288 286 286
298 297 297 297 297 297 294 293 291 296 296 297 297 297 296 295 294 296 292 288 288 287 286 292 289 287 287 288 288 285 284 283 283 286 285 283 286 285 287 287 288 286 286
298 298 298 300 300 299 291 290 289 295 295 296 296 296 295 295 295 294 294 293 293 291 292 289 289 290 290 289 288 286 284 284 285 286 286 281 285 284 287 288 287 286 286
300 299 297 296 296 296 291 289 289 293 293 293 294 295 294 294 292 291 293 292 291 292 291 288 288 287 284 282 283 285 283 282 282 283 286 283 283 283 284 285 287 286 286
295 295 294 294 292 294 291 289 290 292 292 293 293 293 290 291 289 288 292 291 289 290 290 289 288 286 285 286 283 284 284 281 281 281 285 282 282 282 280 285 286 286 287

GFSMA_sfc_thetae_057.txt.gz
Theta_e
329 328 328 326 325 324 323 322 320 318 318 316 314 312 311 312 313 313 316 319 317 321 319 319 316 315 312 311 310 310 310 310 309 310 309 309 309 308 307 307 307 307 308
331 328 327 325 325 324 323 322 321 319 317 316 313 311 311 311 312 314 315 315 319 322 318 315 315 314 313 311 309 308 308 308 308 308 308 308 307 306 306 307 306 306 306
330 329 326 326 324 324 324 323 320 320 317 315 313 311 311 311 311 312 312 315 314 315 316 314 312 310 308 308 308 307 307 307 307 307 307 307 307 306 306 306 305 305 305
330 329 327 325 325 325 322 321 319 319 318 315 314 312 312 310 310 310 313 313 314 314 312 311 308 304 303 304 306 306 306 306 306 307 307 308 307 307 307 306 306 305 305
330 328 326 327 328 324 322 318 319 321 317 314 312 312 313 312 310 308 309 311 312 308 308 310 307 304 303 302 303 304 305 305 306 307 307 307 306 306 305 305 305 305 305
334 330 328 329 327 323 319 318 318 318 318 314 309 309 313 313 311 310 308 308 308 308 308 307 306 306 306 304 302 302 303 304 306 307 306 305 305 305 304 304 304 304 304
333 333 331 329 326 321 320 319 317 317 315 314 312 312 313 314 312 309 309 308 307 307 308 306 305 305 304 303 303 301 300 303 304 305 305 304 304 303 303 303 303 304 304
332 331 331 329 326 322 320 318 317 314 315 315 311 311 307 310 308 309 308 308 308 307 307 306 305 305 304 304 303 301 300 299 301 302 303 303 303 302 303 303 303 304 304
325 324 325 327 325 324 319 318 316 314 312 313 313 310 305 303 306 310 308 308 308 307 306 306 305 305 305 304 305 304 298 297 297 299 300 301 301 301 301 302 302 303 303
323 322 321 323 327 325 320 316 315 316 316 312 312 311 309 305 301 301 307 307 307 305 306 305 305 305 305 304 305 299 297 295 294 295 297 298 298 299 299 300 300 301 301
325 323 323 323 325 321 317 315 316 318 315 313 305 302 302 305 306 302 299 301 304 304 304 304 304 304 303 302 302 299 294 292 291 293 294 296 297 297 297 297 298 299 299
325 325 324 321 320 317 315 316 320 317 309 306 306 302 299 301 302 301 299 299 299 301 303 303 303 302 302 301 300 295 293 292 291 292 293 294 294 294 295 296 297 297 298
324 323 323 316 314 314 316 317 310 306 309 306 301 299 301 301 302 300 299 298 297 299 299 302 302 302 300 301 300 295 295 293 293 292 292 292 292 292 293 294 295 296 296
325 323 315 314 313 307 304 305 307 308 304 301 299 302 299 301 303 302 299 297 294 295 298 298 301 300 300 299 297 294 296 295 295 292 291 291 291 291 291 291 292 293 294
323 320 315 312 305 305 307 307 304 300 300 300 301 300 300 304 305 302 301 299 296 292 292 296 296 300 299 299 299 297 296 295 294 292 291 290 289 289 290 290 291 291 292
320 314 309 307 305 305 305 304 301 301 297 299 299 298 300 304 303 302 300 299 298 295 291 295 296 298 298 297 298 296 295 295 293 292 292 291 289 288 289 289 289 289 290
313 309 306 305 303 303 301 300 298 297 297 298 297 299 303 303 302 301 301 299 297 296 293 295 296 298 298 297 296 296 295 294 294 293 292 290 289 288 288 287 288 288 288
308 306 306 304 302 300 300 299 297 296 296 296 298 302 301 300 301 301 300 299 298 298 296 293 296 296 296 297 297 295 293 292 292 292 292 290 289 288 287 287 287 287 287
304 305 302 300 300 301 300 299 297 297 298 300 302 301 300 300 299 300 300 299 299 297 297 295 294 296 295 295 294 294 292 293 291 292 291 290 290 288 287 287 287 288 288
303 302 301 300 299 297 298 297 298 298 300 300 300 300 301 300 300 300 299 299 298 297 296 294 294 293 293 294 293 290 290 292 290 289 290 289 290 290 290 290 289 288 288
301 301 301 300 299 298 298 298 298 298 298 299 299 301 301 300 297 296 297 298 298 296 295 293 292 292 291 290 289 290 289 289 289 289 288 288 289 289 289 290 290 290 289
302 301 299 298 296 297 294 293 294 297 299 299 298 298 299 297 297 293 293 292 294 295 294 292 292 290 291 290 291 289 288 286 283 289 287 286 288 287 288 289 289 288 287
302 301 298 299 299 299 294 294 292 298 296 296 296 297 296 296 295 297 294 290 291 290 288 293 291 292 290 291 291 288 287 286 285 286 287 284 288 287 288 288 289 288 288
302 302 301 301 300 300 294 291 289 294 294 294 295 295 296 296 297 295 295 295 295 295 294 292 291 292 293 293 291 290 288 286 286 286 287 283 287 286 288 288 288 289 287
300 300 299 298 297 297 291 289 290 293 293 293 294 294 294 295 292 291 291 291 292 293 293 291 291 291 287 285 285 288 285 284 283 283 287 285 285 284 285 286 288 287 287
296 296 295 295 292 295 288 288 288 289 287 288 289 289 288 288 287 288 290 290 289 290 292 292 291 290 287 287 283 286 285 283 282 282 286 284 283 283 280 285 286 288 288

GFSMA_sfc_thetae_060.txt.gz
Theta_e
325 323 322 320 319 321 320 319 316 315 313 312 310 309 308 308 308 310 311 319 320 323 320 318 317 315 313 312 310 310 309 310 309 310 309 309 309 308 307 308 307 307 307
328 324 325 323 322 322 321 319 316 315 314 311 309 307 307 308 308 309 310 314 320 323 320 319 317 316 314 312 309 308 308 307 308 308 308 308 308 307 307 307 307 306 306
328 325 325 324 323 322 320 319 317 316 313 313 309 308 307 307 307 307 310 310 313 317 317 317 315 313 310 309 308 308 307 306 306 307 308 308 308 308 308 308 307 307 307
328 326 323 324 323 322 320 318 315 314 314 311 308 306 306 306 305 305 308 309 310 311 315 316 312 309 306 305 305 306 306 305 306 306 307 307 307 307 307 306 306 306 306
328 326 325 323 324 321 319 318 315 317 313 310 308 307 307 306 305 306 305 307 306 306 308 314 312 310 307 306 304 303 303 305 305 306 307 307 307 306 306 305 305 305 305
327 326 325 325 325 321 317 315 315 315 315 313 310 307 308 307 306 305 304 305 305 303 302 304 303 303 309 305 304 304 303 304 304 306 306 306 306 305 305 305 304 305 305
330 328 326 326 324 321 316 316 315 312 312 311 309 306 307 308 307 305 305 304 303 304 302 303 301 300 302 306 305 303 302 303 304 304 304 304 304 304 304 304 304 304 305
329 328 327 326 324 320 317 315 314 311 312 312 307 305 301 304 305 306 304 304 302 303 303 303 301 300 299 299 300 304 304 303 301 301 301 302 303 302 302 303 303 303 303
327 327 328 325 323 322 317 316 314 312 309 311 310 305 300 298 299 305 306 305 303 302 302 302 302 301 301 300 303 302 302 300 299 298 299 300 300 301 301 301 301 302 302
326 324 323 322 321 320 319 317 315 312 311 308 309 308 303 300 297 297 304 304 305 302 301 300 300 301 301 300 303 301 300 298 296 295 296 297 299 299 299 299 299 299 299
324 323 323 321 321 321 320 316 313 312 312 310 307 300 299 301 300 299 296 299 301 301 300 301 300 300 300 298 296 298 298 295 294 294 294 296 297 297 297 297 297 298 298
323 323 323 321 321 319 315 313 313 311 310 306 303 301 300 299 299 297 296 296 295 297 298 300 300 298 297 297 301 298 297 295 294 294 294 295 295 296 296 296 296 297 297
322 322 322 321 317 315 314 313 311 306 306 303 302 299 300 300 299 299 297 294 292 294 296 298 299 298 299 297 296 297 296 295 294 295 294 294 294 294 294 294 295 295 296
323 323 322 317 314 312 309 306 305 306 304 301 297 299 299 299 299 300 297 294 291 292 292 294 297 296 296 295 297 299 294 295 295 295 294 293 293 293 292 292 292 293 294
322 320 317 313 309 307 306 307 305 300 298 298 299 299 299 299 300 302 299 297 293 286 288 292 291 295 295 295 294 292 291 297 296 294 294 293 293 293 291 291 291 292 292
319 318 314 309 306 306 306 302 299 299 298 298 298 298 298 298 300 301 299 297 296 292 288 291 291 292 294 295 296 292 292 296 295 294 294 294 294 292 291 290 290 290 290
315 313 309 305 305 303 302 300 299 297 296 297 297 297 297 299 300 298 297 297 294 293 288 289 291 292 291 291 292 292 293 290 290 295 294 294 293 291 290 290 289 289 289
310 308 305 304 303 300 300 298 297 296 296 296 296 296 298 302 299 299 297 294 293 292 290 288 290 290 290 291 291 289 292 292 289 293 294 293 292 291 291 290 289 289 289
305 305 304 301 300 300 299 298 297 297 296 296 297 298 300 299 297 297 297 295 293 296 292 291 290 290 290 289 288 289 289 288 291 294 293 292 292 292 291 291 290 290 289
302 301 301 300 300 299 298 298 297 297 297 298 299 298 298 298 297 296 295 293 294 292 292 291 290 289 288 289 288 285 285 286 285 290 291 289 290 291 292 291 291 290 291
301 300 299 299 298 298 297 297 298 298 297 297 298 299 298 298 297 296 296 292 291 291 291 289 288 288 286 285 285 287 286 285 284 285 283 283 283 284 285 289 290 290 290
301 300 298 297 297 297 294 294 295 296 297 297 295 293 294 295 295 293 292 292 292 291 289 289 289 287 287 287 287 285 285 284 280 284 282 280 283 281 283 284 289 289 289
300 298 296 297 297 297 293 293 292 295 293 291 291 291 292 294 292 293 292 291 290 290 287 289 287 288 287 288 289 286 284 284 283 282 280 278 280 280 283 287 289 289 289
299 299 298 298 298 298 292 290 289 289 290 290 290 290 289 288 289 288 286 285 286 288 290 290 287 288 288 289 289 287 287 284 281 281 282 276 280 280 282 282 288 289 288
299 299 299 297 293 288 288 287 288 287 287 286 288 287 287 285 287 288 284 283 284 286 289 290 291 290 290 291 289 287 283 279 275 279 281 279 279 279 280 280 281 288 288
296 294 294 294 291 286 287 286 286 283 282 281 282 283 285 285 286 286 283 282 281 281 282 284 285 287 289 287 287 286 284 282 279 277 281 277 279 278 274 278 280 281 281

GFSMA_sfc_thetae_063.txt.gz
Theta_e
318 319 317 315 315 315 311 313 312 311 308 307 306 305 305 304 304 307 312 321 323 323 321 319 317 316 314 313 311 310 310 309 309 309 309 309 309 308 308 308 308 307 307
320 318 317 316 316 316 316 313 312 310 308 306 304 304 305 305 307 307 311 313 320 323 322 320 319 317 315 313 310 308 307 307 307 307 308 308 308 308 308 308 308 308 308
322 319 320 318 318 317 316 313 312 311 308 307 305 305 304 305 305 308 309 311 316 321 320 322 318 316 314 311 310 307 306 306 305 306 307 308 308 308 307 307 307 307 307
323 321 320 319 320 319 316 314 312 311 309 307 304 303 303 303 303 303 308 309 309 311 316 319 318 314 312 310 308 306 305 304 304 305 306 307 308 307 307 306 306 306 306
325 322 320 320 319 317 315 315 313 312 310 308 305 303 302 302 302 304 305 306 308 308 308 315 315 314 311 309 307 304 304 304 304 305 306 306 307 306 306 305 305 305 305
325 322 321 320 320 316 315 312 311 311 312 309 308 306 303 303 302 301 301 303 303 305 306 306 306 305 311 308 306 305 305 305 304 304 305 305 305 305 304 304 304 305 305
324 323 322 322 320 317 314 312 311 310 310 310 306 305 305 304 302 302 301 300 301 301 301 303 301 298 302 310 307 307 307 306 304 304 303 303 303 303 303 303 303 303 304
327 325 324 323 322 318 313 312 311 308 310 311 305 305 302 303 303 303 301 301 300 301 300 301 299 298 298 299 299 308 308 306 305 302 301 300 300 301 301 301 302 302 302
326 326 325 324 322 319 316 313 312 310 308 310 308 306 301 299 298 301 302 303 302 300 299 300 300 299 298 297 302 305 307 305 303 302 299 299 298 299 300 300 300 300 300
325 324 323 323 322 321 319 316 314 312 310 308 309 308 303 300 297 295 300 303 301 303 299 299 299 298 298 298 301 302 303 302 301 301 299 298 298 298 299 299 299 299 299
323 322 321 318 318 317 315 316 314 313 312 310 307 302 301 302 301 297 296 298 301 301 299 298 298 298 298 297 296 300 302 300 300 300 300 298 297 298 297 298 298 298 298
324 321 321 320 319 319 317 313 313 312 310 305 304 302 301 299 299 297 296 296 296 297 298 298 298 297 296 295 299 301 300 298 299 299 298 298 297 297 297 297 297 297 297
320 319 320 317 317 314 311 312 312 310 307 304 302 301 301 300 300 300 297 295 294 295 296 296 298 297 297 295 296 300 300 297 298 297 298 297 296 296 296 296 295 295 295
321 319 320 319 316 311 309 310 307 306 305 302 300 300 299 300 300 300 298 296 290 290 292 292 297 296 294 294 295 300 297 296 296 297 297 296 296 295 295 294 294 293 293
321 318 319 316 312 310 308 307 305 303 301 299 299 299 299 299 300 300 300 299 293 289 286 289 290 293 292 292 294 295 291 296 296 296 296 297 296 295 295 294 293 292 292
320 317 314 310 307 307 307 304 301 299 298 299 299 298 298 299 299 300 300 298 295 292 288 289 290 290 291 293 293 292 291 296 296 295 295 295 295 295 295 293 292 292 291
316 314 310 307 306 305 303 301 299 298 298 298 298 297 298 298 298 299 297 296 295 294 291 290 289 290 289 289 291 292 292 292 292 295 294 294 294 295 295 294 292 291 291
312 309 306 305 304 302 300 299 298 297 297 296 297 297 296 298 299 299 298 296 295 294 293 290 289 288 288 290 290 289 291 293 290 293 295 295 294 294 293 292 292 291 291
306 305 304 302 301 300 299 298 297 297 297 297 297 297 298 299 297 296 295 295 295 296 291 290 291 288 288 291 291 290 290 289 290 294 294 294 294 294 293 292 292 292 291
303 302 301 301 300 299 298 298 297 296 296 297 298 298 298 295 293 294 295 291 292 289 289 289 288 287 287 289 288 287 285 285 286 291 292 290 290 292 293 293 292 292 292
301 300 300 299 299 298 298 297 297 296 297 297 297 298 296 296 296 295 295 292 290 290 288 288 287 288 285 283 283 286 284 286 285 286 285 284 283 283 283 289 290 292 292
300 299 298 297 296 297 293 294 296 296 296 296 292 290 290 292 291 290 288 288 287 284 282 282 285 285 286 284 283 284 286 285 284 286 285 282 283 281 282 282 287 289 290
298 295 293 294 294 295 293 294 292 293 292 288 287 287 288 288 287 286 286 286 285 287 284 283 283 283 284 285 287 285 283 286 285 285 284 282 280 279 281 285 289 289 289
294 293 293 294 294 296 291 291 289 287 286 285 285 284 283 283 284 285 283 282 282 283 284 285 284 284 285 288 287 287 287 286 287 286 282 278 278 278 279 281 287 289 288
296 295 296 291 286 285 287 287 286 283 283 282 283 282 282 281 285 285 281 279 279 280 284 286 286 286 286 287 287 286 285 285 282 280 280 278 278 277 279 278 280 287 288
295 292 290 287 286 284 286 286 283 280 278 278 279 281 282 282 283 283 280 279 278 279 281 281 282 283 285 284 286 286 286 284 282 279 281 279 277 277 274 277 279 279 279

GFSMA_sfc_thetae_066.txt.gz
Theta_e
316 315 313 312 311 309 311 311 309 307 306 305 304 304 303 306 310 313 314 323 323 323 321 320 319 317 315 313 312 311 310 310 309 309 310 309 309 309 309 309 309 309 309
316 314 312 311 311 311 313 311 310 308 305 303 302 303 303 303 305 309 312 316 322 323 322 320 319 317 316 313 311 309 308 308 307 308 308 308 308 308 308 307 307 307 307
317 315 312 312 312 314 313 311 310 309 306 305 303 303 303 304 305 306 309 311 315 321 322 323 320 318 317 315 312 308 307 306 305 306 306 308 308 308 307 307 306 306 306
319 316 316 315 316 315 313 311 311 309 306 305 302 302 302 302 304 305 307 309 311 313 318 322 320 318 316 313 310 307 306 304 304 304 306 307 307 307 306 306 305 305 305
321 318 318 318 317 315 313 312 310 310 307 305 303 302 301 301 301 304 306 306 308 309 310 318 318 317 315 312 309 308 305 304 304 304 305 305 306 306 305 305 305 305 305
322 320 319 318 316 315 312 312 310 310 310 308 307 304 301 301 300 300 303 306 306 307 307 308 308 308 314 312 309 308 307 306 305 304 304 304 303 303 304 304 304 304 304
323 320 319 319 317 315 314 311 310 309 308 308 305 304 304 303 300 300 299 299 302 304 305 305 303 302 304 313 310 309 309 308 306 305 304 302 301 301 301 302 302 302 302
322 322 321 320 318 315 313 311 310 308 308 309 304 304 300 302 303 303 300 300 298 300 301 303 301 300 297 301 302 310 309 309 309 307 305 302 300 299 299 300 301 301 301
323 321 320 321 321 319 314 313 312 310 307 310 308 306 300 300 301 303 303 302 300 299 300 299 299 299 298 297 303 307 310 310 308 307 306 303 301 300 299 299 299 300 300
322 323 322 321 320 320 316 313 313 311 310 308 309 306 303 302 298 298 303 303 301 301 301 300 300 298 297 296 299 302 305 305 307 307 306 304 302 300 299 299 298 299 299
322 323 323 322 322 321 318 316 312 311 311 308 308 303 302 302 302 299 297 299 301 302 302 301 300 299 297 296 296 300 304 303 304 306 305 304 303 301 299 298 298 299 299
321 322 322 321 318 318 315 314 313 311 309 309 308 304 303 301 300 299 297 298 297 299 299 299 300 300 298 296 299 302 304 302 302 304 304 304 303 301 300 299 298 298 298
319 321 319 318 318 318 316 312 310 310 309 308 306 303 303 303 301 300 298 296 295 296 297 298 298 297 297 294 295 301 303 300 300 302 303 302 301 300 300 299 298 298 297
320 322 320 319 318 315 312 310 310 310 307 305 304 303 301 301 302 301 299 296 293 293 293 294 294 294 293 293 295 300 298 299 298 300 301 301 300 299 299 298 297 296 296
318 318 319 318 316 314 309 308 307 305 305 303 301 300 299 300 301 301 300 299 295 290 291 289 289 293 293 292 293 295 294 298 298 297 298 299 300 299 298 297 297 296 295
320 318 317 317 313 310 308 307 305 303 301 300 300 299 299 300 299 298 298 299 297 295 291 290 289 290 292 293 293 293 294 297 297 296 296 297 298 298 298 297 297 295 294
321 319 315 311 309 308 306 304 302 300 299 299 299 299 298 299 298 298 298 298 295 294 292 294 292 290 288 289 291 291 292 291 293 296 295 295 296 296 296 296 296 296 294
314 314 312 309 307 305 303 301 299 299 298 298 297 297 298 299 297 298 297 297 296 294 293 291 293 287 288 289 290 290 292 293 291 294 295 296 295 295 295 294 295 294 294
310 308 308 305 303 302 301 300 299 298 298 298 297 297 297 298 298 296 294 292 293 296 293 289 290 289 288 288 288 289 290 288 291 294 294 294 294 295 295 294 294 293 293
306 305 305 303 301 300 299 299 298 298 297 297 297 297 298 297 293 291 291 289 289 286 287 286 286 287 285 286 286 285 287 285 287 291 293 293 294 294 294 294 293 293 293
304 303 301 300 299 299 299 298 297 296 296 297 297 297 296 294 292 289 286 283 282 281 281 281 281 282 283 282 282 284 284 285 287 285 285 287 287 289 289 292 292 293 293
301 300 299 298 298 298 293 294 295 297 297 296 293 289 288 287 287 288 287 287 285 280 279 278 279 280 281 282 283 284 285 285 283 284 285 286 287 285 286 286 288 289 290
299 297 297 297 296 295 293 294 293 294 291 287 284 283 285 285 284 283 283 283 282 283 282 279 278 279 279 280 282 282 283 283 283 287 282 283 281 285 285 285 288 289 290
296 296 294 294 294 295 292 290 288 285 283 283 282 281 281 280 282 281 280 279 279 279 280 281 280 281 281 282 281 282 281 282 282 285 287 282 280 283 282 281 287 289 290
293 293 292 289 287 290 289 287 285 282 281 280 281 281 281 280 282 283 280 278 278 280 283 285 285 286 286 286 286 284 281 280 279 281 287 285 280 280 279 279 280 287 288
294 293 288 287 286 285 287 286 282 279 277 278 279 280 281 280 281 282 279 278 278 278 279 281 282 283 284 284 285 284 283 280 281 281 281 281 280 279 277 277 278 279 278

GFSMA_sfc_thetae_069.txt.gz
Theta_e
316 314 311 309 310 310 310 308 305 304 302 302 304 306 309 310 312 313 314 323 323 322 321 321 320 318 316 314 312 311 311 310 310 309 310 309 309 309 309 308 308 308 308
315 312 309 309 310 310 310 308 306 304 302 302 301 302 304 308 310 312 313 316 322 323 322 320 319 318 316 314 312 310 309 308 308 308 308 308 308 308 308 308 307 307 307
314 311 310 310 310 311 310 308 306 305 302 302 301 302 302 303 306 309 311 312 317 321 322 322 319 318 318 316 313 310 308 308 306 306 307 307 307 307 307 307 306 306 306
315 312 311 312 312 312 311 309 307 306 303 302 300 300 301 303 303 304 308 310 312 315 320 322 323 320 318 316 314 310 309 307 305 305 306 306 306 306 306 305 305 305 305
317 314 314 313 314 313 311 310 309 307 304 303 301 300 299 300 303 305 304 306 308 311 311 318 321 319 319 315 314 311 310 306 306 305 306 305 305 304 303 304 304 304 305
319 317 316 316 315 314 312 311 309 308 306 305 305 302 299 299 299 300 303 305 307 308 309 310 312 311 316 316 313 311 310 309 307 306 306 305 303 302 301 302 302 303 303
321 318 318 317 315 314 312 311 309 308 307 307 303 301 301 301 300 298 298 302 304 306 306 306 306 304 307 316 313 311 311 311 310 309 307 306 303 301 300 300 300 301 302
319 319 317 317 315 313 313 311 309 307 307 307 305 301 297 300 302 300 300 298 301 302 304 305 304 303 300 302 305 312 312 312 311 310 309 307 305 303 301 300 300 300 300
319 319 319 319 317 315 313 311 311 310 308 309 307 306 301 299 301 303 302 301 300 300 300 301 302 303 300 297 303 308 311 311 312 311 310 308 306 304 303 301 300 300 300
319 320 319 320 319 318 316 314 314 310 309 307 308 307 306 304 299 299 303 303 303 302 300 298 300 301 300 299 300 303 305 307 310 310 310 309 307 305 304 302 301 300 300
317 319 320 318 318 319 318 315 311 311 311 308 308 304 303 302 303 301 299 301 303 303 303 301 301 300 300 298 297 298 304 304 306 309 309 310 309 307 305 303 302 301 301
315 318 320 320 319 318 316 316 314 311 310 307 307 304 303 302 301 301 299 299 299 300 300 300 300 300 300 299 300 302 302 302 304 307 309 309 308 307 306 305 303 302 301
313 317 320 320 318 318 316 313 311 311 308 308 307 306 305 305 304 303 301 298 296 297 296 298 298 297 298 298 297 301 302 301 302 304 306 308 307 306 306 305 304 303 302
315 317 319 320 318 316 316 313 313 310 309 309 305 305 305 305 303 301 299 295 294 294 294 295 293 294 295 294 295 299 297 299 300 301 303 304 305 305 305 304 303 302 301
315 316 317 317 317 317 317 315 312 308 307 306 306 306 301 301 301 301 300 299 296 291 290 294 290 292 292 292 293 292 293 297 299 299 299 301 303 304 303 303 302 300 299
319 318 317 317 316 316 312 311 308 305 305 302 302 301 300 300 300 300 300 298 297 295 291 294 291 291 291 293 293 293 291 298 298 298 298 298 299 301 301 301 301 299 298
319 319 319 317 316 312 311 308 305 303 302 300 300 300 299 299 299 298 298 298 297 295 292 293 291 290 288 289 290 290 291 290 293 296 297 297 297 297 298 298 298 298 297
320 319 318 315 311 309 307 306 302 302 300 299 299 299 298 299 297 298 298 297 296 296 293 288 289 287 287 288 288 288 292 293 290 294 295 296 297 296 296 296 296 296 295
317 315 314 311 308 307 304 302 302 300 300 299 298 298 298 297 297 298 296 294 293 293 288 285 284 286 286 286 286 287 288 288 290 295 294 294 295 296 296 295 295 295 294
312 309 310 309 306 303 302 301 301 299 298 298 298 298 297 298 296 294 292 287 285 282 282 281 280 281 282 284 283 282 284 285 285 290 292 292 293 294 295 295 294 295 294
308 307 305 303 301 300 300 299 299 298 297 296 297 298 294 292 291 290 284 281 280 279 279 278 277 278 277 278 278 280 282 283 284 285 286 287 288 289 290 294 294 294 293
304 302 302 300 299 299 293 294 296 296 297 297 293 289 288 288 288 287 286 286 283 278 276 276 276 275 275 277 278 279 279 278 277 282 281 283 285 287 286 285 290 291 291
301 300 300 298 297 296 293 293 294 296 293 289 287 286 284 284 283 282 283 282 281 282 280 277 275 276 277 278 279 278 278 279 279 281 281 279 282 283 286 287 290 290 290
298 297 297 297 296 295 292 291 289 287 285 284 283 281 280 280 282 281 279 279 279 279 280 280 278 278 279 282 282 282 282 282 282 283 283 279 282 282 284 286 289 290 289
298 297 297 295 293 292 289 287 286 284 281 280 281 280 280 279 282 282 280 279 279 280 282 282 283 284 284 285 284 282 281 280 278 279 280 280 281 283 281 282 281 288 289
295 293 289 290 289 288 287 286 283 280 278 278 279 279 281 280 281 282 279 278 277 277 277 278 277 279 280 281 282 281 282 279 279 278 280 279 281 279 279 281 280 281 283

GFSMA_sfc_thetae_072.txt.gz
Theta_e
314 313 309 310 309 308 307 305 306 307 307 308 309 311 311 311 313 314 316 323 323 323 323 322 320 318 316 315 314 313 312 312 311 311 311 310 310 309 309 308 308 308 308
313 311 309 309 309 309 307 306 304 304 303 304 306 309 310 311 312 314 315 319 322 323 323 321 320 319 317 315 313 312 311 310 309 310 309 309 309 308 308 307 307 307 306
313 311 309 309 310 310 309 306 304 301 300 301 302 304 307 310 311 313 313 315 318 321 322 323 321 319 318 316 313 311 310 309 308 308 308 308 308 307 306 306 305 305 305
313 311 310 310 312 312 309 307 304 302 301 300 299 301 303 306 308 311 312 313 315 316 320 322 322 320 319 319 316 313 311 310 308 307 308 307 307 306 305 304 304 304 305
314 312 312 312 313 312 310 309 307 306 303 302 300 300 301 302 303 305 307 310 312 314 315 320 322 322 322 319 316 315 312 310 308 307 308 307 306 305 303 302 302 303 303
315 314 313 314 314 312 311 310 308 308 306 304 304 302 300 301 301 302 304 305 307 311 312 312 316 316 318 319 317 314 313 311 309 309 309 307 306 304 302 301 301 300 301
316 315 315 316 315 313 312 310 309 308 308 306 304 302 302 301 300 299 300 304 305 307 309 310 310 310 312 318 318 315 313 313 312 311 310 309 307 305 303 301 300 300 300
319 318 317 317 316 314 311 311 310 307 308 306 304 301 299 301 302 301 301 300 303 305 307 309 308 307 306 308 311 315 314 314 314 313 312 310 309 307 305 303 302 301 301
319 320 318 317 315 313 312 311 310 309 307 308 308 306 301 298 301 303 303 301 301 302 304 306 306 305 305 304 307 310 312 313 315 313 313 312 311 309 307 305 303 302 302
317 318 317 317 316 315 313 312 312 311 311 307 307 308 307 305 302 300 302 303 302 301 300 300 302 303 304 303 302 304 305 306 310 313 312 312 312 311 309 307 305 304 303
315 315 317 317 317 317 315 315 313 311 312 309 309 304 304 304 304 303 301 303 303 304 304 303 302 301 301 301 300 301 303 303 305 309 311 312 311 312 310 309 307 305 304
311 313 315 316 317 317 316 316 316 313 312 312 308 305 304 304 301 302 301 301 301 302 301 302 302 301 301 300 301 302 302 302 303 306 308 310 311 311 311 310 309 308 306
309 311 313 315 316 317 317 316 315 313 310 309 308 307 306 308 307 305 303 301 300 299 298 299 300 299 299 299 300 302 303 301 301 303 305 307 309 311 310 309 309 309 308
309 312 313 315 314 315 313 313 311 312 312 312 309 309 308 308 306 305 303 300 295 295 295 297 296 297 298 297 296 299 299 299 299 301 303 304 306 307 307 308 307 307 306
312 311 312 314 315 316 315 314 314 312 310 309 309 307 307 306 304 303 302 301 299 293 293 295 294 295 296 296 295 295 294 296 298 298 299 301 303 305 305 306 306 306 306
312 313 313 313 314 314 315 316 317 314 311 307 306 305 303 302 302 302 301 300 299 296 293 294 293 294 295 294 295 295 293 297 297 297 297 298 299 301 302 303 303 304 304
314 316 316 316 317 317 315 312 312 308 308 304 303 303 301 301 300 299 299 299 297 297 293 295 295 293 292 291 292 292 293 292 292 294 296 296 297 297 298 298 299 300 301
316 317 318 317 317 315 310 310 306 306 306 303 302 301 300 300 299 299 298 297 297 296 294 292 292 291 290 290 290 289 290 292 292 293 294 295 295 295 296 296 296 297 298
317 318 318 316 315 311 309 308 307 305 304 305 301 300 299 299 297 297 298 296 294 294 291 289 287 287 287 287 286 287 287 288 288 290 291 292 292 292 293 294 295 296 296
317 316 314 313 310 307 306 305 304 303 301 301 300 299 299 298 297 296 293 291 287 285 284 282 281 282 283 284 283 281 281 284 283 286 287 288 290 291 292 292 293 294 295
318 316 312 310 309 306 305 303 302 300 299 298 299 298 296 295 293 293 288 284 284 282 281 279 278 279 277 278 278 280 280 281 282 283 283 285 286 286 286 288 289 291 293
314 310 307 305 302 301 295 296 298 299 298 297 291 289 289 289 287 287 286 285 283 279 278 277 277 277 277 278 279 279 279 278 277 283 282 282 284 283 284 285 288 289 291
306 304 302 301 300 299 294 294 294 298 296 290 287 285 285 286 285 283 283 282 282 283 280 279 277 278 278 279 280 279 280 279 279 282 283 280 283 282 285 286 287 289 291
303 302 300 300 299 295 292 292 291 290 287 286 286 284 283 282 282 281 280 280 280 281 281 281 280 280 280 281 281 282 281 281 282 283 284 278 283 282 285 286 287 289 290
300 298 298 298 295 292 290 288 288 285 283 282 282 282 282 281 283 283 280 279 279 280 281 281 281 281 281 282 282 281 279 278 277 280 283 281 282 282 284 284 285 286 288
296 294 293 294 291 288 288 287 286 283 281 280 281 281 281 280 282 282 280 279 277 277 277 277 277 278 279 280 280 279 279 276 277 277 282 280 281 282 280 282 282 283 285

GFSMA_sfc_thetae_075.txt.gz
Theta_e
316 316 316 316 317 320 322 320 320 320 319 319 320 320 321 321 323 322 322 324 325 324 323 322 321 319 317 316 315 314 314 313 313 312 311 311 311 310 310 309 309 308 308
314 313 313 313 314 317 318 318 319 319 318 318 319 320 320 321 322 322 322 323 323 324 324 322 320 319 317 316 314 313 312 312 311 311 310 310 310 309 308 308 307 307 307
315 315 315 315 315 314 313 314 317 318 317 316 317 318 319 320 321 322 322 322 322 322 323 324 321 320 318 316 314 313 312 310 310 310 310 309 309 308 307 306 305 305 305
317 316 317 316 316 315 313 311 311 312 313 313 314 316 317 319 320 321 321 322 322 320 321 323 323 321 320 319 316 314 312 311 309 309 309 309 309 308 306 305 304 303 304
318 318 318 318 318 316 315 312 310 311 309 310 310 311 312 314 317 318 319 321 322 321 321 321 322 322 322 321 320 317 314 313 311 309 310 309 309 307 305 304 303 303 302
316 317 316 315 317 316 315 314 313 314 311 309 306 307 310 311 312 312 315 317 320 321 322 321 321 320 320 323 319 317 316 315 312 311 311 310 309 307 306 304 303 303 302
317 315 315 316 319 318 317 317 316 315 313 312 309 309 309 309 309 309 310 311 311 315 319 318 319 320 320 321 321 318 316 315 315 313 312 312 310 309 307 305 304 303 303
316 316 319 320 319 320 318 317 317 315 316 313 311 311 309 311 310 309 308 308 308 311 309 312 314 315 317 319 317 319 317 316 316 315 314 313 312 310 309 307 306 304 304
317 318 320 321 322 322 320 318 317 317 314 314 315 315 306 306 309 308 308 305 305 308 311 311 311 312 313 309 311 314 314 314 315 315 315 316 314 313 311 310 308 306 305
319 321 321 321 323 322 322 321 319 319 318 315 315 312 313 315 310 307 311 311 308 306 305 305 306 309 313 308 308 308 306 306 309 312 314 314 314 314 314 312 310 309 307
318 320 321 323 323 323 323 322 319 318 320 318 312 309 309 310 311 310 308 313 310 310 309 309 304 306 308 305 305 305 305 304 305 307 309 310 311 313 313 314 313 311 310
318 320 321 323 324 325 324 324 323 321 320 315 318 318 316 314 312 310 309 310 307 311 310 310 308 307 305 303 303 303 302 302 303 304 306 308 309 310 311 312 312 313 312
316 319 320 322 323 324 324 324 324 321 320 320 320 318 317 317 314 309 306 305 306 305 307 303 304 305 305 307 305 304 303 301 302 303 304 305 306 307 308 309 310 311 311
318 319 320 321 322 323 324 324 324 324 323 322 321 318 316 312 313 310 307 304 299 300 303 303 305 306 304 303 302 300 304 299 298 299 300 301 303 304 306 307 308 308 307
318 318 320 320 322 322 323 324 323 323 323 320 320 320 314 311 309 308 307 306 305 301 304 305 305 304 306 307 302 305 305 299 297 297 298 299 300 301 302 303 304 305 306
319 319 319 320 320 322 323 323 322 322 319 315 315 313 311 306 306 306 305 306 306 305 302 307 303 303 302 302 301 304 302 297 297 295 296 296 297 298 299 299 300 300 301
319 318 318 319 320 321 321 320 320 320 317 316 312 313 309 305 304 304 304 303 303 302 300 301 300 301 301 303 302 302 299 298 297 295 294 295 295 296 296 296 297 297 297
319 319 320 319 319 317 317 317 316 315 313 310 308 308 307 304 304 303 302 302 303 301 298 296 296 301 296 300 298 296 293 291 291 291 292 292 292 292 292 292 293 293 294
318 319 320 319 319 321 319 318 314 311 310 310 309 307 305 303 300 301 301 300 299 298 295 293 291 297 294 296 294 290 289 289 289 289 290 290 290 289 290 291 291 290 290
318 319 319 318 320 320 317 314 312 310 309 308 305 305 303 303 300 301 299 296 293 289 290 287 287 291 292 292 288 286 286 288 287 288 288 288 288 289 289 289 289 289 289
318 319 319 316 316 315 312 310 311 309 306 302 301 301 300 300 297 297 294 293 289 287 286 284 286 287 287 285 285 287 285 286 287 289 288 288 289 290 291 290 290 290 289
318 319 320 317 312 311 300 299 305 304 301 299 294 293 292 293 290 289 288 288 288 285 284 285 285 284 284 285 286 285 284 283 282 290 287 286 289 288 290 291 289 289 288
319 317 317 314 310 308 295 296 297 301 299 295 291 289 287 287 286 286 284 284 283 283 283 286 284 284 283 285 284 284 284 284 284 286 286 284 288 287 290 290 289 289 289
316 311 307 307 304 301 293 294 293 296 291 290 288 288 286 284 284 283 282 281 282 283 284 284 285 284 284 285 284 284 284 284 285 286 287 282 287 286 289 290 289 290 289
305 303 302 300 297 294 291 290 290 289 287 285 285 285 284 283 283 284 282 281 281 282 282 281 280 280 280 281 282 283 282 280 280 282 285 284 285 285 287 288 290 289 287
299 297 295 296 292 290 289 289 288 285 283 282 282 282 283 283 283 282 282 281 280 281 280 280 281 280 280 281 279 281 281 279 279 279 286 283 283 283 283 288 289 290 290

GFSMA_sfc_thetae_078.txt.gz
Theta_e
323 325 330 331 330 330 328 327 327 324 323 323 323 323 323 324 325 325 325 325 325 325 324 323 321 319 318 317 316 316 315 315 314 313 313 312 311 311 310 310 309 309 309
321 321 322 323 328 330 329 327 325 322 320 321 322 323 323 324 325 325 325 325 324 324 324 323 321 320 318 316 315 314 314 314 313 312 312 311 310 309 308 308 307 307 307
321 319 319 319 321 326 326 326 324 322 319 320 320 321 322 323 324 325 324 324 324 322 324 324 322 320 318 317 315 314 313 312 312 312 311 311 310 309 307 306 306 305 306
320 318 317 317 319 320 322 322 322 319 319 318 318 319 321 322 323 324 324 324 323 322 322 323 323 322 319 318 316 315 314 312 311 312 311 310 310 309 307 306 305 304 304
319 318 318 319 320 318 317 318 319 318 316 317 317 318 319 320 322 321 322 323 324 323 322 322 323 322 322 321 319 317 316 314 312 312 312 311 311 310 308 306 305 305 304
322 322 319 320 319 317 316 316 316 316 316 315 312 314 317 318 319 320 320 320 321 322 323 323 322 321 321 323 321 321 319 317 315 313 312 312 311 310 308 307 306 306 305
321 321 321 321 321 318 319 318 317 317 316 316 313 313 314 315 316 315 317 318 319 321 323 323 322 321 319 321 323 321 319 319 318 316 314 314 313 311 310 309 307 306 305
318 319 321 322 322 321 318 319 320 319 320 317 314 316 312 313 313 314 314 314 316 314 315 320 321 321 320 320 321 322 320 319 318 318 316 315 314 313 312 311 310 308 307
319 318 320 321 320 322 320 321 320 319 317 318 318 317 310 310 313 316 314 311 313 312 311 315 317 318 318 317 317 319 316 316 318 317 317 318 317 315 314 313 312 311 309
318 320 321 323 323 323 323 323 322 322 322 318 317 317 321 318 310 313 318 312 310 307 308 312 312 315 315 314 316 313 309 309 311 314 314 315 315 315 315 315 315 314 312
320 319 320 321 322 325 325 326 325 323 323 322 321 320 319 313 312 311 313 316 317 316 316 311 315 314 313 314 315 314 307 305 305 308 309 310 311 312 312 313 314 314 315
316 319 319 323 323 325 325 327 328 326 325 324 325 322 319 315 317 316 315 317 315 313 317 315 319 316 313 310 310 306 305 303 304 305 307 307 307 308 308 309 310 312 313
316 317 318 320 323 325 327 327 327 328 326 325 325 323 323 321 323 321 318 309 308 311 310 315 318 316 311 308 308 305 304 302 302 303 303 303 304 305 306 307 308 308 309
318 318 319 320 323 325 326 326 328 327 328 327 326 325 324 325 324 322 314 307 303 307 307 312 313 312 311 312 308 302 307 300 299 299 300 301 301 302 303 304 305 305 306
322 321 325 324 326 326 325 326 325 325 326 327 327 327 326 323 325 323 315 311 307 300 303 309 311 312 310 309 306 309 310 299 298 298 298 298 299 299 300 300 301 301 302
324 325 325 326 325 324 324 324 324 325 324 327 326 323 323 322 319 314 313 314 310 307 304 313 310 310 311 309 303 307 309 299 299 296 295 295 295 295 296 296 296 296 297
324 323 323 323 322 322 323 324 324 324 323 323 323 322 318 315 313 313 310 310 308 310 307 306 311 309 306 307 304 305 306 305 304 296 294 293 294 294 293 293 293 292 293
325 323 323 321 322 322 323 323 323 322 319 319 319 315 315 311 310 309 308 309 307 307 305 305 304 305 304 304 301 304 302 300 298 294 292 291 291 291 291 291 292 292 292
323 322 323 323 323 323 323 323 322 320 319 319 318 313 311 308 309 307 305 307 305 303 304 306 298 298 296 299 297 299 298 295 293 293 291 291 292 291 290 290 291 290 290
320 320 323 322 323 322 321 322 322 322 322 320 317 311 311 309 308 305 303 304 303 301 297 298 295 294 294 295 293 292 292 293 292 292 292 289 290 291 291 291 291 291 291
320 321 321 322 323 322 321 319 319 319 318 316 312 310 309 307 302 302 302 299 296 295 293 294 291 289 289 289 288 291 289 290 291 292 292 293 293 293 294 293 292 292 291
321 322 321 322 323 320 306 301 312 318 315 311 305 301 301 299 296 294 295 293 294 292 292 292 290 286 288 289 288 289 289 287 287 294 291 290 292 291 293 293 291 290 290
321 320 322 321 321 322 300 298 298 318 312 307 300 294 293 292 292 288 287 285 284 284 285 288 287 288 287 289 288 288 288 288 288 291 290 287 292 290 292 291 291 291 291
320 321 321 321 321 320 297 297 295 307 301 297 294 293 289 287 286 285 284 283 283 283 284 284 286 286 287 288 289 288 288 288 288 288 290 285 290 289 292 292 291 291 291
320 320 319 317 314 304 293 292 295 293 290 288 289 288 287 285 285 286 283 282 282 281 283 282 282 281 281 281 282 286 285 284 283 285 288 285 288 288 288 289 292 291 289
313 303 299 300 296 294 292 292 293 288 285 284 285 284 285 284 284 284 283 282 281 280 281 281 281 281 281 283 280 282 284 282 283 282 288 284 285 284 284 288 290 291 292

GFSMA_sfc_thetae_081.txt.gz
Theta_e
329 328 329 332 329 327 326 324 325 324 324 323 324 324 324 325 325 324 324 325 325 325 324 323 322 321 319 319 317 316 316 316 315 314 314 313 312 311 310 310 309 310 310
326 325 327 328 329 329 327 326 325 323 323 323 323 324 324 325 325 325 324 324 324 325 324 323 322 320 319 318 317 316 315 315 315 314 313 312 311 310 309 308 307 307 308
325 328 326 327 330 330 330 328 326 323 321 321 322 323 324 325 325 325 324 323 323 323 324 325 322 321 319 318 316 315 314 314 314 313 313 312 311 310 308 307 306 306 306
322 321 324 327 330 329 327 325 322 320 319 320 320 321 322 324 325 325 324 324 323 322 322 324 324 322 320 319 317 316 315 313 314 313 313 313 312 311 309 307 307 305 305
319 319 321 323 326 324 324 324 323 322 319 319 318 320 322 322 323 323 324 324 324 323 323 322 323 323 322 320 319 318 317 315 313 313 313 312 312 311 310 308 307 307 307
319 319 318 320 320 319 320 321 322 322 320 318 316 317 320 320 322 322 322 322 324 323 323 323 322 320 321 323 321 320 320 318 317 315 314 314 313 312 311 310 309 308 307
319 318 319 320 320 317 319 322 321 320 318 320 314 314 316 318 319 320 322 321 321 322 323 323 322 321 320 321 323 322 324 323 320 318 316 315 315 314 313 312 310 310 309
317 321 322 322 320 318 321 321 320 319 318 320 314 314 310 313 315 317 318 318 322 320 320 321 321 323 322 321 321 323 323 322 321 320 319 317 316 315 314 313 313 312 311
321 323 324 322 321 324 322 325 324 323 319 319 321 318 314 312 316 317 317 316 319 318 316 317 319 319 323 321 320 320 317 319 322 320 320 320 319 318 316 316 315 315 314
321 322 323 323 324 324 324 324 324 324 322 318 316 316 321 320 313 309 316 317 315 310 313 313 313 317 319 320 319 316 312 312 315 318 318 318 316 316 316 316 316 316 316
318 319 321 322 321 322 326 325 324 323 323 323 320 319 320 319 320 314 310 316 317 316 316 314 314 316 317 318 319 317 309 308 309 312 313 314 313 313 313 313 313 314 315
317 319 321 319 320 321 324 326 326 324 324 324 324 324 320 317 316 314 312 316 317 318 317 318 316 315 318 319 316 311 307 305 306 308 309 309 310 309 309 309 309 310 310
314 316 317 320 320 321 325 327 326 326 326 324 323 323 322 321 321 321 319 318 317 319 313 320 318 320 320 320 316 308 306 303 304 306 307 307 306 305 305 306 307 307 308
314 315 316 316 318 320 322 327 326 326 329 327 326 325 323 325 324 323 321 318 309 311 315 315 316 315 318 317 314 305 309 301 303 303 303 303 302 302 302 303 304 304 305
317 318 318 318 319 322 322 326 325 324 326 323 325 327 325 326 327 326 326 323 316 308 306 311 308 314 316 315 307 308 311 301 301 299 299 299 299 299 299 299 299 300 300
325 323 323 321 320 320 323 324 324 325 325 325 327 326 326 326 326 326 324 321 317 310 306 310 313 316 314 310 305 310 311 301 300 299 297 296 295 294 294 295 295 294 295
325 323 323 323 322 323 324 324 324 325 324 325 325 325 324 324 321 320 321 316 313 310 307 311 314 314 310 311 305 307 309 308 306 298 296 295 293 293 292 292 292 293 293
326 324 325 323 324 324 325 324 324 323 323 323 324 324 323 320 320 320 315 312 310 311 308 307 307 309 310 310 307 306 306 305 303 298 295 292 291 292 292 292 292 291 292
326 326 324 324 323 324 325 325 325 324 324 324 325 324 320 321 317 315 311 309 309 310 309 307 304 304 304 304 304 301 298 298 297 296 292 292 292 292 292 292 291 291 291
325 325 324 324 324 324 324 324 323 323 323 323 325 323 319 320 318 312 309 309 308 306 305 305 298 299 297 298 297 295 292 295 292 294 294 291 292 293 292 292 292 292 292
326 326 325 325 325 324 323 324 324 323 323 322 322 320 318 317 307 308 308 307 303 301 299 298 292 293 291 291 291 292 289 289 290 294 294 294 294 294 295 292 292 293 293
325 325 324 324 324 322 308 303 312 323 321 321 317 316 313 305 304 299 297 297 301 300 296 294 292 291 290 291 289 287 287 286 287 296 294 292 295 293 294 295 293 291 291
325 323 323 323 323 324 303 300 299 317 318 320 315 314 305 301 297 294 288 287 288 288 288 292 289 288 287 288 288 288 289 289 289 292 293 290 293 291 294 293 292 292 291
324 324 324 324 324 323 301 300 297 313 315 316 313 307 300 294 292 289 288 285 285 285 285 287 287 287 287 288 290 289 289 290 290 290 291 286 291 290 293 294 293 292 292
323 323 323 323 322 323 295 296 299 306 297 292 292 292 292 288 288 289 286 284 283 283 284 284 284 283 283 283 283 288 286 285 285 286 290 289 288 287 291 290 290 291 291
322 320 316 309 298 309 295 294 296 293 288 286 287 287 287 286 286 286 285 283 281 280 280 280 280 280 281 282 281 283 284 283 283 283 288 287 286 286 283 289 290 291 290

GFSMA_sfc_thetae_084.txt.gz
Theta_e
328 330 330 328 325 321 320 318 318 318 318 317 320 320 321 322 320 320 321 325 325 326 324 324 323 322 320 319 318 318 318 317 316 316 315 314 313 312 311 311 311 311 311
326 328 327 327 322 321 319 318 320 319 318 318 319 320 321 321 320 320 320 321 323 325 324 323 323 322 321 319 318 317 317 316 315 315 314 313 312 311 310 309 309 309 309
327 326 325 324 323 322 319 322 321 320 318 318 318 319 320 321 321 320 319 319 320 323 323 324 322 321 320 319 318 317 317 316 315 315 314 313 312 311 309 308 307 307 307
326 324 323 323 326 326 323 322 319 317 317 317 316 317 319 321 321 320 320 319 319 319 322 323 323 322 320 319 318 317 317 316 315 315 314 313 312 311 310 308 307 306 306
323 322 323 323 324 322 322 320 319 316 315 316 316 317 318 319 319 320 320 319 318 319 318 322 322 322 322 321 319 319 317 316 316 316 315 314 314 312 311 310 309 308 307
320 319 319 320 320 319 319 318 316 316 315 315 315 316 317 318 318 317 319 321 320 319 318 318 318 318 320 322 321 320 320 320 317 316 316 315 314 314 313 312 310 310 309
318 318 318 318 319 317 317 317 315 314 312 315 313 313 314 316 316 317 317 317 318 319 319 318 317 317 317 321 322 322 322 322 321 319 317 316 316 315 314 314 312 312 311
316 316 317 316 316 315 316 316 315 313 313 316 310 309 306 309 312 315 316 317 316 317 317 318 318 318 317 316 318 323 323 324 324 322 320 319 318 316 316 315 315 314 313
316 315 316 315 316 315 315 316 315 314 312 314 315 313 308 306 307 312 312 312 313 315 315 317 318 318 318 316 318 318 318 319 324 324 324 322 321 319 318 317 316 316 316
316 315 315 316 317 317 316 315 318 316 317 312 314 316 315 315 309 306 312 312 312 312 312 311 312 314 314 316 317 315 313 313 316 322 323 322 320 319 319 319 318 318 317
318 319 318 319 317 321 320 320 319 318 319 317 313 314 313 316 316 311 306 311 312 311 310 311 310 310 312 314 314 315 311 310 312 317 321 321 320 319 317 316 315 315 314
316 317 320 320 320 320 321 320 320 319 318 318 319 318 315 313 313 310 309 309 311 312 312 312 311 310 310 311 314 312 311 308 309 313 316 317 316 316 315 313 312 312 311
313 315 318 319 319 319 321 321 320 320 320 318 317 317 319 317 317 315 311 310 310 312 311 314 312 311 312 312 314 311 309 306 306 308 310 312 312 311 310 308 308 308 308
312 315 317 317 317 319 319 320 319 319 319 319 318 318 318 318 318 317 314 312 307 308 309 310 315 316 317 316 314 307 306 303 303 305 307 308 307 307 305 305 305 305 305
314 314 316 317 316 318 318 318 319 317 319 320 318 318 318 318 318 320 317 316 312 306 305 309 311 313 316 312 311 306 305 302 301 302 304 303 303 303 302 301 301 301 301
315 315 315 315 316 316 317 317 318 319 318 319 320 318 318 319 320 319 318 318 317 313 309 311 310 310 312 313 305 305 305 302 300 299 300 299 299 299 297 297 297 296 296
316 315 314 315 315 315 316 316 316 316 318 317 318 318 318 319 318 319 319 318 317 314 311 312 310 311 311 308 301 303 303 301 299 298 298 297 296 295 294 293 293 293 293
317 316 316 315 316 316 316 315 315 315 315 316 317 318 318 318 318 319 316 316 315 316 311 308 309 308 306 308 303 301 304 305 302 299 298 296 295 293 292 292 292 292 292
320 319 318 318 317 317 316 316 316 316 316 316 317 317 317 317 316 318 318 315 313 311 311 309 307 303 305 304 302 302 301 298 297 299 296 294 293 293 293 292 292 292 292
322 322 321 320 319 319 318 318 318 318 318 318 318 318 318 317 317 317 315 313 311 309 308 307 306 300 298 298 300 296 294 295 294 295 294 292 292 293 293 292 292 293 293
323 323 321 320 320 319 319 318 318 318 317 318 319 318 317 315 309 313 315 313 310 307 306 304 298 294 292 292 295 294 294 291 291 292 290 290 290 290 290 293 292 293 293
322 322 321 320 319 319 308 303 311 318 317 317 316 316 317 306 306 301 301 301 306 306 304 302 302 298 297 294 291 289 287 285 284 291 289 288 289 288 290 290 293 293 293
322 320 320 320 319 320 304 302 300 317 317 317 316 315 311 306 302 303 292 291 290 289 289 302 299 292 288 288 288 286 285 285 285 289 289 284 288 286 289 291 292 292 292
320 320 320 320 320 320 303 300 298 311 315 315 311 309 309 300 299 294 290 289 288 286 287 288 288 287 287 289 289 287 286 287 288 289 288 281 284 283 287 288 291 293 292
320 319 319 318 318 318 300 298 298 309 312 299 294 294 296 292 291 292 288 285 284 283 286 286 286 286 285 285 285 286 283 283 282 282 286 284 283 282 283 284 286 290 290
320 320 317 308 297 311 293 293 298 299 290 287 286 286 287 287 287 288 287 285 281 280 281 281 281 282 283 283 282 283 282 282 282 280 283 282 282 281 278 281 283 284 284

GFSMA_sfc_thetae_087.txt.gz
Theta_e
328 327 329 327 325 322 320 317 315 314 314 316 317 319 319 319 319 320 320 325 325 327 326 325 324 323 321 320 320 320 319 318 318 316 316 315 314 313 313 313 312 312 312
328 327 328 325 322 321 318 316 315 315 314 315 316 319 319 319 319 319 319 321 324 325 325 325 324 323 322 320 319 319 318 317 317 316 315 314 313 312 311 311 311 311 310
327 327 327 323 320 319 316 316 315 316 314 317 316 318 319 318 319 318 318 318 320 322 324 325 324 323 321 320 319 319 318 317 317 316 315 314 312 311 310 310 309 309 308
327 327 325 323 320 319 315 317 318 316 314 314 314 316 319 318 318 317 318 318 316 318 321 324 324 323 321 321 320 319 318 317 317 316 315 314 313 311 310 309 308 308 308
326 326 325 323 321 320 317 318 315 315 314 314 314 314 316 318 317 318 317 317 316 316 316 321 322 322 322 321 320 320 319 318 318 317 316 315 314 313 311 310 309 309 308
326 326 323 322 322 321 318 317 314 314 315 315 316 315 314 317 318 316 316 318 317 317 317 317 318 318 320 322 322 320 320 320 319 318 317 316 316 315 314 313 312 311 310
322 321 320 319 319 319 316 315 314 313 312 313 312 311 313 315 315 316 318 317 316 316 317 317 316 316 317 321 323 322 323 322 321 319 318 317 316 316 315 315 314 313 312
320 320 319 318 318 316 315 312 311 311 310 312 311 309 305 307 311 314 315 316 316 317 316 316 315 315 315 316 317 322 323 324 323 322 320 319 319 318 316 316 316 315 314
320 319 318 318 316 315 313 311 311 311 310 311 311 308 304 302 306 309 311 313 313 313 315 316 316 315 315 315 317 318 318 319 324 326 325 323 321 321 319 318 317 317 317
317 317 316 316 316 316 313 313 313 312 312 309 312 315 314 312 304 303 309 309 310 311 311 312 316 317 317 316 316 314 313 313 316 323 325 325 324 323 322 320 320 319 318
313 314 315 314 314 315 315 314 314 314 314 312 309 310 310 313 313 307 303 309 311 310 310 312 313 315 316 316 316 315 311 310 312 317 321 324 324 323 322 321 320 319 318
313 313 313 313 315 316 316 315 315 315 316 315 314 314 311 310 310 311 308 308 307 309 311 310 309 311 311 312 313 313 310 309 310 314 317 320 322 322 322 320 318 317 316
311 312 314 313 315 317 318 318 317 317 316 317 316 315 316 315 315 313 309 307 307 310 310 310 310 311 311 309 310 310 310 306 307 310 313 316 318 319 318 317 316 315 313
312 312 315 317 316 317 318 318 318 317 318 317 316 316 316 316 317 315 312 310 307 307 308 309 311 311 310 309 310 308 310 305 305 306 309 311 312 312 312 312 312 310 309
313 313 314 317 316 317 317 318 316 316 317 316 316 316 316 316 317 317 315 315 312 306 302 307 310 313 314 314 312 313 311 306 304 303 304 306 307 308 307 307 307 306 306
313 313 313 315 316 317 317 317 317 317 316 316 317 316 316 315 317 318 317 316 314 312 308 308 311 312 312 315 315 313 309 304 301 300 301 302 303 304 304 304 303 303 302
312 312 312 314 315 315 316 315 315 316 316 316 316 316 315 315 315 316 317 317 316 315 311 312 309 309 310 309 309 307 307 305 302 299 299 299 299 299 299 299 299 299 297
313 312 312 313 314 315 315 314 314 314 314 315 316 316 316 316 315 315 315 315 315 316 313 310 311 307 309 310 309 304 305 306 302 299 298 298 297 297 296 295 294 294 293
313 313 312 312 312 312 313 313 313 313 313 313 314 314 315 315 314 316 315 315 315 315 314 313 311 308 309 306 302 301 302 302 301 301 297 296 296 296 294 293 293 293 293
316 313 313 313 312 312 312 313 313 313 313 313 313 313 315 315 315 315 315 315 315 314 312 311 310 309 302 302 304 302 298 297 298 300 298 297 295 295 294 294 293 293 293
319 316 314 313 313 312 312 312 313 313 313 312 313 314 314 314 309 311 315 315 315 313 311 309 308 304 299 294 299 301 300 298 293 293 292 292 291 291 292 293 292 293 293
320 319 317 316 314 314 306 302 309 314 313 313 313 314 315 306 306 301 302 304 311 313 310 308 307 304 301 302 304 299 296 287 288 292 290 290 292 290 290 290 292 292 293
319 320 319 319 318 318 303 301 300 315 315 315 314 314 314 314 305 310 298 296 292 291 289 306 306 306 303 297 290 287 286 286 285 289 289 285 289 288 291 292 292 292 293
319 318 318 319 319 319 302 300 297 311 315 315 314 314 313 310 305 305 298 291 286 286 287 288 288 287 288 289 289 288 287 286 286 287 288 283 286 285 287 289 291 292 292
318 318 319 319 318 318 301 300 299 310 312 313 301 296 305 303 294 296 291 286 284 283 287 288 287 287 287 288 288 287 284 284 282 283 286 284 284 284 284 285 287 290 290
318 318 318 318 311 318 299 298 299 312 308 290 287 287 288 290 289 289 288 285 282 281 282 282 281 283 284 284 284 285 284 282 282 281 282 281 281 281 280 282 282 283 283

GFSMA_sfc_thetae_090.txt.gz
Theta_e
328 329 328 328 326 324 320 316 314 314 313 315 318 318 318 318 318 319 320 324 326 327 327 327 326 325 324 322 321 321 320 319 319 318 317 316 316 315 315 314 314 314 312
329 328 327 326 324 323 320 317 313 311 311 314 316 318 318 318 318 318 319 321 324 325 326 326 325 324 323 322 321 320 319 319 318 317 316 315 314 313 313 313 312 312 310
328 328 326 323 322 320 318 316 312 311 311 314 317 318 318 318 318 318 317 318 320 322 324 325 324 323 322 321 320 320 318 318 317 316 315 314 313 312 311 311 311 310 309
327 328 326 321 320 318 316 315 313 312 310 313 315 317 317 317 317 317 317 316 316 318 321 324 324 323 322 321 320 320 319 318 318 317 316 314 313 312 311 310 310 310 309
327 327 325 321 318 316 314 315 312 313 312 312 315 316 316 316 317 317 316 315 315 315 315 322 322 322 323 322 321 321 321 319 318 318 317 315 314 313 312 311 310 309 309
327 326 326 321 318 314 314 316 314 313 313 313 316 315 316 316 315 316 315 317 316 316 315 316 317 317 320 323 321 322 322 321 320 319 318 318 316 315 314 313 312 311 311
326 325 323 321 319 313 315 316 315 314 313 312 312 311 313 315 315 315 315 316 316 316 316 316 315 314 316 321 323 322 323 323 322 321 320 319 318 317 316 315 314 313 313
326 325 323 321 320 315 316 315 314 311 312 313 311 309 307 308 310 314 315 315 315 316 315 315 315 315 315 316 317 322 323 324 324 322 321 321 320 319 317 317 316 316 315
322 323 322 320 319 317 315 314 314 313 312 310 312 308 302 302 305 308 312 315 314 314 315 315 315 315 314 314 316 318 318 319 324 326 325 323 322 321 321 318 318 318 317
321 321 320 319 318 316 314 313 314 313 313 310 309 313 311 308 305 302 308 311 313 314 314 314 314 314 315 314 315 314 312 312 316 323 326 325 324 322 322 322 321 319 319
318 319 319 318 317 317 315 313 312 312 313 310 309 309 309 311 309 304 301 306 308 310 313 314 314 314 315 315 314 314 310 310 312 317 321 324 326 325 324 323 322 322 321
313 315 316 317 317 316 315 314 314 313 313 312 311 312 311 310 310 309 306 306 307 308 309 310 311 313 315 316 316 313 310 308 309 313 317 320 322 324 324 324 324 322 321
311 311 314 313 315 316 316 315 315 313 314 314 312 312 312 312 314 312 309 308 307 309 309 310 310 311 311 311 313 311 310 306 307 310 313 316 317 319 321 322 323 322 321
313 313 312 311 312 315 316 315 314 315 313 315 315 315 315 315 314 314 311 309 304 305 307 309 311 310 311 311 310 307 309 304 305 307 309 312 313 315 316 318 319 319 319
313 313 312 312 312 314 316 316 314 312 313 313 313 314 315 315 316 316 315 313 309 302 302 308 311 313 314 313 311 311 309 307 304 304 305 308 310 312 313 314 313 314 314
313 313 313 315 315 314 315 315 316 315 314 314 316 314 315 315 316 316 316 315 314 311 307 308 310 313 314 315 313 311 311 308 304 302 302 303 306 308 309 309 308 308 309
310 311 313 314 316 315 315 315 315 315 314 314 314 314 315 315 315 315 316 315 314 313 310 312 314 315 310 312 314 310 313 312 311 301 301 301 302 303 303 303 303 304 304
310 311 311 312 313 314 316 314 313 314 313 313 313 313 314 315 313 314 314 314 314 315 313 309 312 312 309 310 311 308 307 308 308 303 300 300 301 300 300 299 299 299 299
310 310 311 310 311 312 313 313 314 313 313 315 315 314 314 314 313 314 313 313 313 313 313 312 311 314 312 306 306 306 304 305 306 305 299 298 299 299 299 298 297 296 295
311 311 311 311 311 311 312 312 312 312 312 312 313 314 315 314 314 313 312 312 313 312 312 312 312 312 310 306 305 304 299 302 303 302 300 298 297 297 296 295 294 293 293
313 313 311 311 311 311 311 311 312 311 311 311 312 312 312 311 307 310 313 312 313 311 312 311 311 311 307 296 302 304 305 305 295 295 296 295 294 295 294 294 293 293 293
317 315 313 311 310 311 303 300 306 310 310 310 309 310 311 304 304 300 301 302 309 312 311 311 311 309 309 308 307 304 302 291 292 293 292 290 293 291 293 293 293 292 292
318 317 315 313 312 312 301 299 298 309 309 309 310 310 310 311 304 310 301 297 293 290 291 310 312 311 310 309 306 293 289 289 287 289 289 285 288 288 291 293 292 292 292
316 317 317 317 316 315 301 299 296 307 309 309 310 311 311 310 310 309 309 299 292 289 289 291 294 294 290 291 293 292 289 286 286 286 288 284 285 285 287 288 290 291 292
317 317 317 317 318 318 301 300 299 308 310 311 312 313 313 311 305 299 300 291 285 284 288 288 288 288 288 288 290 289 285 286 283 282 284 284 284 284 284 284 287 289 289
318 318 318 318 312 318 304 299 300 314 311 310 311 295 290 301 298 293 304 292 286 283 283 283 283 283 284 284 284 285 285 283 282 280 281 281 281 281 280 283 283 283 283

GFSMA_sfc_thetae_093.txt.gz
Theta_e
326 329 329 328 327 325 323 319 315 316 316 317 317 316 316 316 317 319 320 325 327 328 327 327 326 325 324 323 323 321 321 321 320 319 319 318 318 317 316 316 315 314 314
328 328 328 327 325 323 322 320 315 313 314 316 315 316 316 317 318 318 319 320 324 326 327 326 326 325 324 323 322 321 320 320 319 319 317 317 316 315 315 314 314 312 312
328 328 327 326 324 323 320 316 312 312 313 315 315 316 316 317 317 317 317 317 320 323 325 326 325 324 323 323 321 320 320 319 318 318 316 315 314 314 314 313 313 311 310
329 328 326 324 322 320 317 315 312 311 311 314 314 315 316 317 317 316 316 316 316 318 322 324 324 324 323 322 322 321 320 319 318 317 316 315 314 313 313 312 312 311 309
328 328 325 323 320 318 317 315 310 311 311 313 314 314 314 316 316 317 316 315 315 315 316 322 322 322 323 322 322 322 321 320 319 318 317 316 315 314 313 312 311 311 310
327 328 325 320 318 316 313 314 312 311 311 314 315 314 314 313 316 316 316 316 315 315 315 317 319 318 321 323 322 322 323 322 321 320 319 317 316 315 313 313 312 311 311
326 327 324 319 318 313 314 315 312 312 311 313 313 311 312 311 312 314 315 315 315 315 315 316 316 314 317 322 323 323 324 324 323 322 320 319 318 317 315 315 314 314 313
327 326 325 320 317 313 313 315 312 310 310 315 311 310 307 309 312 313 312 313 313 315 315 315 315 313 313 316 317 323 324 325 324 323 322 321 320 319 318 317 316 316 315
325 325 324 321 318 313 314 315 313 312 310 309 315 310 304 305 306 308 310 311 312 312 314 315 314 315 314 314 316 317 318 319 324 325 325 323 323 322 321 319 318 318 318
324 324 323 321 318 314 315 315 315 314 313 310 309 311 310 309 305 301 307 310 311 312 313 314 314 315 315 314 315 314 312 312 316 323 326 326 324 323 323 322 321 321 319
321 322 322 321 319 315 315 315 313 314 314 312 312 310 309 309 308 304 301 306 309 313 314 314 314 314 315 315 314 313 310 310 311 317 322 324 326 325 324 323 323 323 322
316 319 320 319 317 315 314 314 312 314 313 313 312 310 310 308 308 307 304 305 307 308 312 313 312 314 315 314 315 313 310 308 309 313 317 320 322 324 325 325 324 324 323
313 315 318 316 315 314 316 315 314 313 313 313 312 312 312 312 313 311 309 306 305 308 308 309 311 313 314 315 315 312 311 306 307 310 313 315 317 319 321 323 324 325 324
314 313 315 317 316 317 316 315 314 314 314 312 311 312 313 313 314 313 311 308 303 305 306 308 311 311 312 313 312 309 313 306 306 307 309 311 313 314 316 318 319 321 322
313 312 313 313 315 315 316 316 314 313 313 313 313 312 311 312 313 314 314 312 309 303 303 308 309 312 312 311 310 310 310 308 304 304 305 307 309 311 312 314 315 317 318
311 311 311 311 311 313 315 315 315 314 313 313 314 314 314 314 315 315 314 313 312 309 306 309 310 312 314 314 314 312 312 308 304 302 302 303 305 307 309 310 311 313 314
311 311 311 311 311 311 312 313 314 314 313 312 313 311 313 315 314 314 315 314 313 312 309 311 312 313 311 314 315 315 314 313 312 303 301 301 301 302 304 306 307 309 310
310 310 311 311 312 312 312 312 312 313 312 311 311 311 312 313 312 313 314 313 313 313 311 309 312 311 309 312 313 313 312 313 314 309 303 302 301 301 301 302 303 304 304
308 310 310 310 311 312 313 312 312 312 312 313 313 311 312 312 311 312 312 312 313 313 313 312 311 313 313 307 309 309 311 310 308 307 302 300 300 300 300 301 301 301 300
308 308 309 310 310 311 312 313 313 312 311 312 313 313 312 312 312 312 311 311 311 311 311 311 310 311 310 308 303 306 304 300 306 308 304 300 300 299 299 299 298 298 297
310 309 309 309 309 310 310 311 311 310 310 310 311 311 312 311 307 309 313 313 312 310 310 309 308 309 309 308 303 310 307 309 306 303 300 297 297 296 297 296 297 295 293
312 311 310 309 308 309 302 299 305 310 310 309 308 310 310 304 304 300 300 302 308 310 309 309 309 308 309 310 311 308 307 306 300 295 294 292 293 292 294 294 293 293 292
315 313 312 311 310 310 300 299 297 308 309 309 309 309 309 310 303 309 300 297 297 297 299 310 309 309 309 311 312 309 307 306 304 291 291 286 289 288 292 293 292 292 291
317 316 316 315 313 312 299 298 296 305 308 309 308 308 308 308 307 306 306 305 302 305 302 300 305 309 311 301 298 303 307 292 286 286 289 284 285 285 288 289 291 291 290
316 317 318 317 316 315 301 298 297 306 307 308 309 309 308 307 304 299 304 304 304 289 288 289 289 288 288 289 291 292 287 288 284 283 283 285 283 284 284 285 286 288 288
314 317 316 316 305 304 289 290 296 310 307 306 307 307 298 304 300 296 303 305 303 289 285 282 282 283 284 284 284 284 286 286 282 280 280 281 281 281 280 282 283 283 282

GFSMA_sfc_thetae_096.txt.gz
Theta_e
325 326 326 328 328 331 328 320 319 319 318 317 317 317 317 317 318 320 321 326 327 329 328 329 329 328 326 325 324 323 322 322 322 321 321 320 319 319 319 317 317 316 315
327 326 327 327 326 327 325 319 317 317 317 317 316 317 316 317 318 318 319 323 325 327 328 328 328 328 326 324 322 322 322 321 321 320 320 319 318 317 317 316 315 315 313
326 326 326 325 325 324 323 318 316 315 315 316 315 316 317 316 317 318 317 320 323 324 326 327 327 326 325 323 321 321 321 320 320 319 318 318 317 316 316 315 314 313 312
327 327 326 325 324 321 319 315 314 314 314 314 313 314 315 317 317 317 318 318 318 320 323 325 326 325 324 323 322 322 321 320 320 318 317 317 316 315 315 314 313 312 311
326 326 326 324 322 320 317 315 311 314 313 313 313 313 314 315 316 317 317 317 318 318 318 322 323 323 324 324 323 322 322 321 320 319 317 316 315 315 314 314 314 313 311
328 327 326 322 322 318 316 315 311 313 314 314 315 312 313 313 314 315 315 317 317 317 318 319 320 319 321 323 323 323 323 322 321 320 319 317 316 315 314 314 313 313 313
327 327 325 320 320 318 316 314 312 311 313 315 312 311 311 312 313 314 315 315 315 316 316 318 318 317 319 322 323 323 324 324 323 322 320 319 318 316 316 315 314 314 313
327 327 324 320 318 316 315 312 312 311 312 315 311 310 307 309 312 313 313 314 314 315 315 316 317 316 317 318 319 323 324 325 324 323 322 322 321 319 317 317 316 316 315
324 327 323 321 318 316 314 313 313 313 311 313 315 310 306 304 307 310 311 312 312 313 314 314 315 315 315 316 318 319 318 319 325 327 326 325 323 323 321 319 319 318 317
322 324 324 321 319 316 315 315 313 313 313 311 314 312 311 310 306 302 308 311 312 312 313 313 314 315 315 315 315 314 312 313 316 323 326 326 325 324 324 323 322 321 320
319 324 323 321 318 315 316 316 313 313 314 313 313 309 309 309 308 305 303 306 310 312 314 314 314 315 315 315 315 314 311 310 311 317 321 324 326 326 325 324 324 323 323
320 322 322 321 319 315 314 315 314 314 314 313 313 312 310 308 307 306 304 306 308 311 314 314 314 314 315 315 315 312 310 308 309 313 317 319 322 324 326 326 325 325 325
315 318 320 319 318 316 316 315 314 314 313 313 313 312 313 312 312 311 308 306 306 309 309 313 314 315 315 315 315 312 311 307 307 310 313 315 317 319 321 323 325 326 326
315 317 318 317 316 315 316 315 314 314 314 313 313 312 312 313 314 313 309 308 304 306 307 309 311 313 315 316 315 310 313 305 305 307 308 311 313 314 315 317 319 321 323
315 314 316 315 313 314 315 315 314 313 314 314 313 313 312 313 315 314 313 312 308 303 304 308 309 312 312 313 312 313 314 310 305 304 305 306 309 311 312 313 314 316 318
314 313 313 313 314 313 315 315 314 314 312 313 313 312 312 313 314 313 314 313 312 309 305 309 310 313 313 313 312 311 311 308 305 303 302 303 305 307 309 309 311 312 313
310 312 313 312 313 314 315 315 314 314 312 312 313 313 312 313 313 313 312 312 312 312 309 311 312 313 312 314 315 314 314 314 314 304 304 302 301 302 303 304 305 307 308
309 309 310 311 311 312 313 314 314 315 314 312 311 312 312 312 313 313 313 313 313 314 312 309 312 311 311 312 314 314 314 314 315 310 305 302 302 301 301 301 301 302 304
308 308 309 310 311 312 311 311 311 311 311 313 314 312 311 311 311 311 311 312 312 313 312 312 311 312 313 312 311 312 313 313 312 310 304 302 302 302 301 300 300 301 302
307 307 308 309 310 310 312 311 310 310 311 311 312 312 312 311 310 310 310 310 311 311 311 310 311 311 312 312 308 309 309 306 309 310 306 305 303 301 300 300 299 299 300
307 307 308 308 309 310 310 311 311 311 310 310 310 311 312 310 305 308 312 311 311 310 310 309 309 310 310 309 305 310 308 310 310 310 310 308 305 304 303 298 300 299 299
308 307 306 307 307 308 301 299 306 310 310 310 309 310 310 304 304 299 299 301 307 310 309 309 309 308 308 309 311 310 308 306 305 305 306 307 299 300 299 299 297 295 295
310 309 308 308 307 308 299 298 297 309 309 309 309 309 309 310 303 309 301 297 297 297 300 310 308 309 309 310 311 309 308 308 308 308 298 297 291 290 294 294 293 293 293
314 313 312 312 311 311 299 297 296 305 308 308 308 308 308 308 308 307 307 306 303 305 303 303 308 310 311 309 305 305 304 299 287 287 289 286 286 285 287 289 292 292 291
311 315 316 315 314 310 289 292 295 305 307 307 309 309 309 308 304 299 305 304 304 301 289 290 288 287 287 287 288 295 295 292 286 283 282 285 283 284 284 284 285 287 287
299 300 293 288 288 289 288 289 291 300 305 305 306 305 291 289 290 292 299 303 302 301 285 283 283 282 283 283 283 283 286 291 283 279 280 281 281 282 279 282 281 281 282

GFSMA_sfc_thetae_099.txt.gz
Theta_e
332 334 332 331 331 332 328 326 325 326 328 329 329 328 327 328 329 329 329 327 329 331 329 330 331 329 328 327 326 325 324 323 322 323 322 321 321 321 320 319 318 317 316
329 328 330 328 330 331 327 324 324 326 327 328 327 327 327 327 328 328 328 329 326 328 330 329 329 328 327 327 325 324 324 323 322 322 322 320 320 320 318 318 317 316 315
331 329 327 326 328 329 323 322 322 322 326 326 325 325 326 326 326 326 326 326 326 324 327 329 328 327 326 326 324 323 322 322 322 321 321 320 319 319 318 317 316 315 314
332 330 326 327 326 324 320 320 319 318 321 323 323 324 324 324 325 324 325 325 325 324 325 327 327 328 326 324 323 323 322 322 321 320 320 319 318 318 317 316 315 314 313
333 330 329 326 324 321 319 318 318 318 318 321 322 322 323 323 324 323 324 325 326 325 325 324 324 324 325 324 324 323 323 322 321 321 319 318 318 317 316 316 315 314 313
331 330 327 325 323 320 316 317 316 318 318 321 320 320 322 323 323 323 323 324 325 325 325 325 324 322 321 324 324 324 324 323 322 321 320 318 317 317 316 316 316 315 314
328 328 325 324 324 320 317 316 316 316 318 321 318 316 318 321 321 322 323 323 323 324 325 324 323 323 322 323 324 324 325 325 323 322 321 319 318 317 316 316 316 316 315
329 327 324 323 322 321 318 316 316 316 318 319 316 315 309 312 317 320 321 321 323 323 321 322 323 323 323 321 322 324 325 326 325 324 323 322 321 320 318 317 316 316 316
326 328 325 324 322 320 318 317 317 318 315 319 320 317 309 308 312 317 319 320 321 322 323 323 323 322 322 322 321 321 319 320 325 326 326 325 324 323 321 319 319 318 317
326 325 325 323 321 320 317 316 317 318 318 316 317 316 321 318 312 310 316 317 320 319 321 321 321 321 322 321 320 317 313 313 316 323 327 327 326 325 324 323 322 322 320
324 326 325 323 320 319 318 316 315 318 318 317 314 314 313 317 318 314 309 311 316 318 320 320 320 320 321 320 321 318 311 310 312 318 322 325 327 327 326 325 325 324 324
321 324 325 324 320 320 319 317 317 315 316 317 317 314 313 313 312 312 310 312 313 316 318 319 319 319 320 320 319 314 311 308 309 313 317 320 322 324 326 326 326 326 325
318 322 323 323 320 322 320 318 315 314 316 317 315 314 315 316 317 316 314 312 314 316 317 320 320 319 320 321 320 313 311 307 307 310 313 315 317 319 321 323 325 326 326
317 321 324 321 320 319 319 317 316 315 315 316 315 315 314 316 318 317 314 311 309 313 315 316 318 319 321 321 320 310 318 305 305 307 309 311 312 314 315 317 319 320 322
318 319 319 319 318 317 317 316 315 314 315 315 314 314 315 315 316 318 319 318 311 308 310 315 315 318 320 322 319 321 318 312 305 305 305 307 309 311 312 313 314 315 317
317 317 318 316 315 316 316 316 314 314 313 314 315 315 315 315 317 318 319 318 314 312 309 313 315 319 315 317 317 319 320 311 306 303 303 304 305 307 308 309 310 311 313
317 316 316 317 315 315 316 315 314 315 314 313 316 318 316 315 314 318 319 318 316 317 313 315 318 320 317 315 315 317 315 314 314 303 302 302 302 303 304 305 306 307 308
315 317 316 315 315 315 317 317 314 314 314 313 313 313 312 312 313 315 316 315 316 316 314 314 318 319 318 319 321 317 315 316 316 310 304 302 302 302 301 301 301 302 303
318 317 317 314 313 314 315 316 315 315 314 313 313 312 312 313 312 312 313 312 314 315 316 316 316 318 318 318 317 315 315 315 315 311 305 303 303 303 302 301 301 301 301
316 316 317 317 318 316 314 314 314 314 315 316 318 317 314 312 312 312 314 312 312 312 314 316 316 316 318 321 319 317 317 319 317 317 311 307 306 305 302 302 301 301 301
315 316 316 316 317 317 316 316 314 313 313 314 318 318 319 316 307 310 313 312 312 312 314 314 314 316 316 317 316 318 316 318 320 319 316 318 320 318 315 302 303 300 300
314 314 314 314 315 314 302 300 310 316 315 315 315 316 317 307 307 300 300 301 310 314 314 312 312 311 312 314 316 314 314 312 309 321 318 317 321 318 316 314 297 297 297
315 314 314 314 314 315 298 298 298 315 316 316 316 316 315 315 308 315 302 297 297 297 299 313 311 311 311 313 316 313 313 312 312 316 314 311 297 295 293 295 294 293 293
314 313 313 313 313 301 291 294 295 307 310 311 312 313 314 315 315 313 313 313 311 309 304 303 307 310 308 295 297 303 306 309 302 290 292 296 288 285 286 287 289 290 289
300 294 293 296 299 290 289 289 293 303 306 307 309 308 299 302 296 293 303 305 304 303 288 290 287 286 286 285 286 292 295 297 295 285 282 286 285 282 281 281 284 286 286
292 291 288 287 287 287 288 289 291 298 301 300 288 287 286 288 288 289 295 296 298 297 285 284 283 282 282 282 281 282 284 287 288 283 281 282 281 283 278 280 281 282 282

GFSMA_sfc_thetae_102.txt.gz
Theta_e
336 333 334 336 338 340 334 332 332 331 337 336 335 334 333 332 332 330 330 329 330 332 331 332 332 331 329 329 327 326 324 324 323 323 323 323 323 322 321 321 320 319 318
336 335 335 335 337 339 336 331 330 330 336 336 333 333 332 332 331 331 329 331 327 329 331 331 331 330 329 328 327 325 324 323 324 323 323 322 322 321 320 320 318 317 317
336 334 333 333 337 336 328 327 326 327 328 333 331 331 331 331 329 328 330 329 329 325 327 330 331 329 328 328 326 325 324 323 323 323 322 322 321 320 319 319 318 316 316
336 335 334 332 333 331 327 324 324 324 326 330 329 330 330 329 329 328 327 329 328 328 326 327 328 329 328 327 325 324 324 323 323 322 322 321 321 320 319 318 317 316 315
336 335 332 330 330 324 324 323 322 322 324 328 327 327 328 327 327 326 325 326 326 328 327 325 325 325 326 327 325 325 325 323 323 322 321 321 320 319 319 318 316 316 315
335 335 333 326 323 320 319 321 320 321 322 327 325 325 326 326 326 326 324 325 326 326 326 329 326 324 323 325 325 325 325 324 323 322 321 321 320 319 318 318 317 316 315
333 332 330 325 322 320 319 319 318 318 319 323 321 320 322 324 324 324 324 324 325 324 325 326 325 325 323 323 325 325 326 325 324 323 322 321 320 319 318 318 317 317 316
333 331 328 327 323 321 319 318 318 317 318 322 318 317 311 315 320 322 323 324 324 324 324 325 325 325 325 324 323 325 325 326 326 324 323 322 322 321 319 318 318 317 317
332 329 328 325 323 321 320 320 320 320 317 319 323 318 311 310 314 320 322 321 323 323 324 325 325 324 324 324 323 322 319 320 326 326 326 325 324 323 322 320 319 318 318
330 329 327 326 324 321 319 321 322 320 321 317 322 322 323 320 312 312 318 321 322 322 323 323 323 324 324 324 322 317 314 313 316 324 327 326 326 325 324 323 322 322 321
331 329 326 327 325 322 321 319 322 322 321 320 320 322 322 321 321 316 313 315 319 322 322 322 322 323 324 323 324 320 312 311 313 318 322 326 327 327 326 325 325 324 323
327 327 329 325 323 323 321 319 318 321 321 323 325 325 320 318 318 316 315 316 316 319 320 321 322 322 323 323 321 315 312 309 310 314 318 320 323 325 327 327 327 327 326
323 325 327 327 323 322 322 318 317 317 319 318 322 321 320 317 316 317 316 315 316 318 319 322 323 323 322 324 323 314 312 307 308 310 313 315 317 319 321 323 325 327 327
323 324 325 326 325 323 320 319 317 317 318 318 320 318 317 320 317 316 313 312 311 313 316 318 322 323 323 324 323 311 321 306 305 306 309 311 313 314 315 317 319 320 322
321 322 324 322 322 323 323 322 321 318 317 317 318 319 317 317 318 318 316 314 311 309 309 314 318 324 325 325 322 325 324 314 305 305 305 307 309 311 312 313 314 315 317
323 322 320 323 320 320 319 320 318 316 315 315 316 316 316 316 316 316 316 317 316 312 308 314 317 321 324 322 321 324 325 313 306 303 302 304 305 307 308 309 310 311 312
322 321 321 322 318 317 316 316 315 315 314 314 314 313 313 314 314 316 316 316 314 314 309 313 316 320 322 324 321 323 321 321 322 305 303 302 302 303 304 305 306 307 308
322 320 320 321 319 319 319 318 316 316 314 313 314 314 313 316 316 318 317 315 315 319 316 313 313 316 322 323 324 324 321 319 319 310 303 302 302 302 302 302 302 303 304
320 320 321 320 318 319 320 319 318 318 317 316 316 315 316 317 315 315 314 314 315 317 318 313 314 320 321 321 322 323 323 324 319 312 304 302 302 303 303 302 302 302 302
319 320 319 321 320 320 319 319 319 317 319 319 319 318 315 314 314 314 314 315 312 312 313 313 313 314 316 320 321 319 319 323 321 321 315 310 309 307 302 302 302 301 301
320 320 320 321 321 320 319 319 318 318 318 317 318 318 318 315 307 312 317 317 313 312 312 314 312 311 311 313 316 320 319 321 323 324 324 325 324 324 321 305 307 301 301
319 319 319 319 320 319 305 302 312 319 318 318 319 319 319 309 310 300 301 302 313 316 315 313 310 310 313 317 320 319 319 318 315 324 322 321 324 321 307 300 294 295 296
319 318 318 319 318 313 291 295 298 319 320 319 319 319 318 319 312 320 303 297 298 297 299 317 317 317 316 317 314 317 317 316 315 314 307 313 302 287 288 290 292 292 292
303 307 305 313 299 292 289 290 291 304 310 314 316 311 309 312 306 304 314 314 312 311 306 306 307 305 294 290 292 297 297 298 300 288 290 289 286 282 283 285 287 288 288
293 291 291 293 291 289 288 289 292 303 305 307 293 289 291 294 289 290 299 303 302 290 288 288 287 285 284 284 284 291 293 293 294 286 283 287 285 281 281 281 283 285 285
289 288 286 287 286 286 287 288 294 299 299 289 286 285 285 287 286 287 293 294 294 289 284 283 281 281 280 280 280 281 282 286 288 285 279 283 283 283 279 282 283 284 284

GFSMA_sfc_thetae_105.txt.gz
Theta_e
342 343 341 340 339 341 339 337 335 329 329 329 332 335 334 334 331 331 331 330 331 333 332 331 331 332 331 330 329 328 327 325 324 324 324 324 323 323 323 322 321 320 320
342 340 338 337 336 340 338 338 334 330 329 328 333 336 331 331 331 333 331 331 328 330 332 332 332 332 330 330 328 326 325 324 324 324 323 323 323 322 322 321 320 319 318
341 339 336 335 336 340 338 336 334 329 329 332 333 333 329 330 329 330 330 330 329 326 329 332 332 331 329 329 327 326 325 325 325 324 323 323 322 321 321 320 319 318 318
340 339 337 337 338 337 334 332 329 326 327 328 328 330 328 328 328 330 328 329 329 328 327 328 330 330 330 328 328 326 325 324 325 325 323 323 322 321 320 319 319 317 317
339 338 336 336 338 335 330 328 326 326 325 325 327 329 326 326 327 324 328 329 329 327 326 326 326 326 328 329 327 326 326 325 324 323 323 322 322 321 320 319 319 317 317
339 337 336 335 335 331 328 325 324 325 325 325 326 325 326 328 326 326 325 327 327 326 327 327 327 325 324 327 327 326 326 326 325 324 323 322 321 321 320 320 318 318 317
337 336 335 329 327 323 322 322 322 322 322 324 322 321 326 326 324 324 325 324 324 326 326 327 327 326 325 324 326 326 327 327 325 324 323 322 322 322 321 319 319 318 317
336 335 333 328 324 320 320 320 320 320 320 324 318 319 313 316 322 323 325 324 327 324 324 326 325 327 326 324 323 325 325 326 326 325 324 324 323 322 322 319 319 319 318
335 335 333 328 324 322 319 319 320 320 317 320 321 319 311 310 316 322 323 323 326 324 324 324 325 325 326 325 323 322 319 320 326 327 326 325 324 323 322 320 319 319 319
333 334 332 327 325 321 319 320 322 321 319 317 320 322 320 318 313 312 320 321 323 323 326 325 325 325 324 324 323 318 314 314 317 323 327 326 326 325 324 323 322 321 320
332 332 330 330 325 324 322 322 323 323 322 319 319 319 320 320 321 316 311 315 320 321 322 324 324 325 325 325 324 321 312 311 313 318 322 325 327 326 326 325 324 324 324
329 331 330 327 326 325 323 322 323 323 323 322 320 321 319 317 317 316 316 317 317 319 322 324 324 325 326 326 322 315 311 309 310 314 318 321 323 326 327 327 327 326 326
326 330 331 329 325 324 325 322 322 321 322 320 321 321 323 322 323 321 319 316 313 317 320 324 324 325 323 326 324 315 311 307 308 311 314 316 318 320 322 324 326 327 327
325 327 327 329 328 326 323 321 321 320 321 321 321 321 321 322 320 319 315 312 309 311 316 318 324 324 325 324 322 312 321 306 306 307 310 312 313 315 316 317 319 320 322
325 326 327 327 325 325 323 320 319 317 318 319 319 323 317 317 318 318 317 315 310 305 307 315 318 325 325 326 322 324 324 314 306 305 305 307 310 311 312 313 314 315 317
324 325 325 325 327 325 323 321 319 318 318 318 318 319 318 318 318 317 316 315 313 310 307 313 314 318 325 324 323 327 327 314 307 303 303 304 306 308 309 309 310 311 312
324 323 324 322 320 319 320 321 321 319 317 316 316 316 316 316 315 315 316 315 314 313 309 312 314 316 320 321 322 326 325 326 325 304 302 303 303 304 305 305 306 307 308
323 323 324 321 322 320 319 318 315 315 315 313 314 314 314 314 314 315 314 313 313 313 310 308 312 313 315 322 319 320 323 322 325 312 304 303 302 302 302 302 303 303 304
322 322 323 321 320 321 320 318 317 316 316 317 317 315 314 313 312 315 316 316 316 315 317 313 312 317 318 321 319 320 321 320 322 314 304 302 301 302 302 302 302 302 302
320 320 321 321 320 319 320 320 319 319 319 319 320 318 317 316 316 317 318 318 318 317 313 312 312 316 318 321 319 317 318 322 322 323 315 311 309 305 303 303 302 301 301
320 320 320 321 321 320 319 320 320 318 319 318 319 318 319 316 307 312 318 319 318 317 314 314 313 311 311 313 316 317 313 317 320 323 322 323 323 322 300 295 296 296 296
320 320 319 320 321 320 292 299 310 320 319 319 318 319 320 308 307 299 300 300 308 319 316 313 313 312 313 315 318 316 316 315 313 322 309 316 302 291 291 291 292 292 292
320 319 319 319 307 297 290 291 293 317 319 319 319 317 318 319 309 317 303 297 298 298 295 314 313 313 312 307 300 304 307 306 305 299 301 301 289 285 287 288 289 289 289
299 300 299 299 295 290 289 290 289 310 312 309 297 296 299 300 291 295 302 307 301 293 293 299 298 291 287 287 291 295 296 297 298 288 289 290 285 282 284 285 287 288 287
290 290 290 290 289 288 288 289 293 303 302 291 288 288 290 289 287 289 297 299 289 285 286 286 285 284 284 284 284 291 287 288 289 285 281 285 285 282 282 282 284 285 286
287 287 286 286 286 285 287 288 295 300 288 285 284 284 285 285 285 287 292 293 291 284 282 282 281 281 281 281 281 281 282 286 285 284 281 282 284 283 279 283 284 285 285

GFSMA_sfc_thetae_108.txt.gz
Theta_e
338 338 337 338 336 337 334 332 331 329 328 328 329 330 329 330 329 328 330 330 331 334 334 333 333 332 332 331 331 330 329 326 325 325 325 325 323 325 325 323 322 321 321
338 337 336 335 335 336 335 333 331 329 327 328 327 329 330 330 328 329 328 328 329 331 332 332 332 332 332 331 331 330 327 326 325 325 325 326 323 325 324 322 321 320 319
338 336 335 334 334 335 334 332 331 330 327 328 326 327 329 328 329 328 327 328 327 327 329 331 332 332 331 331 329 327 325 326 325 325 323 324 323 322 323 321 320 319 319
339 336 335 333 333 333 331 331 330 328 327 326 324 326 328 327 328 326 326 327 326 326 326 329 330 331 331 329 328 327 325 325 325 324 324 323 323 322 322 321 319 319 318
337 336 334 333 333 332 331 330 329 328 325 325 326 326 327 325 326 326 325 325 325 325 325 326 327 327 328 330 329 327 325 325 326 324 322 323 323 322 321 321 320 319 318
336 336 334 333 332 331 329 328 326 327 325 325 327 326 325 323 323 324 325 326 325 324 323 324 324 324 324 328 329 327 326 325 325 324 323 323 323 322 322 320 320 319 318
336 335 333 331 330 328 328 325 325 324 323 325 323 321 320 322 321 323 324 324 323 323 324 325 323 322 323 325 328 328 326 328 326 325 324 324 324 323 323 321 320 319 319
335 334 331 328 325 323 323 323 323 321 321 324 319 317 311 314 319 320 319 321 322 321 323 324 323 322 321 322 322 327 326 328 327 325 326 325 324 323 323 321 320 320 320
332 333 330 326 323 322 320 321 321 320 317 322 321 316 310 309 313 318 318 318 320 320 319 321 323 322 321 321 321 321 320 321 326 328 327 325 325 324 323 321 321 320 320
331 332 330 326 322 321 320 320 321 320 320 317 319 321 319 316 310 309 317 317 319 320 318 320 321 321 321 322 321 318 314 314 318 325 327 327 326 325 324 323 322 322 321
330 332 330 326 322 321 320 320 320 320 321 319 317 316 316 316 315 312 309 313 317 318 319 320 319 321 320 320 320 318 313 311 312 319 323 326 327 326 326 325 324 324 323
329 330 329 326 323 321 320 320 321 321 320 320 319 318 316 312 312 311 311 313 312 315 317 318 317 320 320 319 320 315 311 309 310 314 319 322 324 326 327 326 326 326 326
325 327 328 327 325 322 321 322 322 322 321 320 319 318 319 317 317 316 313 312 311 315 316 317 318 318 320 320 319 313 310 307 308 311 314 317 319 321 323 325 327 328 327
325 326 328 327 325 324 322 322 321 321 321 320 319 318 319 318 319 318 316 313 309 310 313 314 319 320 318 318 317 311 314 305 306 307 310 312 314 315 317 319 321 323 324
325 324 326 327 325 324 323 322 320 320 321 320 319 319 319 318 317 317 315 315 311 305 308 313 314 319 319 320 317 318 317 310 305 305 305 307 310 312 312 313 315 316 318
324 323 323 324 325 324 322 321 319 319 318 318 319 319 318 318 316 316 315 314 312 309 305 311 314 317 320 321 319 318 319 313 307 304 303 304 306 308 310 310 311 311 313
322 321 322 322 323 322 322 319 318 317 316 317 317 318 317 317 316 316 316 315 313 312 308 310 313 313 315 317 320 319 320 321 320 305 303 303 303 304 305 306 307 308 309
322 322 322 321 321 321 321 319 318 317 316 316 317 316 316 317 316 316 315 314 314 314 311 309 311 311 311 313 317 318 318 319 321 312 305 304 303 302 302 302 302 303 304
321 321 321 321 320 320 319 318 318 317 317 316 315 315 315 315 314 314 315 314 314 314 312 310 310 312 313 314 314 316 315 316 319 313 307 304 303 303 302 302 302 302 301
320 320 320 321 320 320 319 319 317 316 315 316 316 316 315 314 313 313 313 313 313 312 312 311 311 311 312 313 315 313 311 314 316 320 314 310 305 302 298 297 296 297 297
320 319 319 319 318 318 314 318 318 317 316 316 317 317 316 313 307 310 314 314 315 313 312 311 310 309 309 310 309 312 311 313 314 315 315 314 299 296 293 293 294 294 294
318 318 318 319 317 301 291 293 305 317 316 316 315 315 316 307 307 300 301 301 311 314 313 311 309 308 309 311 311 310 310 310 305 301 305 302 294 289 289 290 291 291 291
317 314 314 302 296 294 290 292 292 315 314 309 305 307 312 304 300 310 299 296 296 292 290 305 307 309 306 299 300 302 304 303 302 295 298 297 289 284 286 288 289 289 289
296 296 296 296 292 290 289 290 290 309 298 294 292 295 297 294 290 294 303 295 289 287 290 292 290 286 285 286 289 294 295 295 293 286 287 288 285 283 284 285 287 288 288
288 287 288 288 287 287 288 290 296 298 291 287 287 287 289 287 287 290 298 291 285 283 286 286 285 285 284 284 285 291 287 287 287 284 281 285 284 281 282 282 284 286 285
287 286 285 285 286 285 287 289 293 290 285 284 284 284 285 285 286 287 292 289 284 282 282 282 281 281 282 281 282 282 283 285 284 281 281 282 283 282 279 282 283 284 284

GFSMA_sfc_thetae_111.txt.gz
Theta_e
332 332 332 332 331 331 331 328 327 326 324 325 326 327 328 329 329 329 331 330 332 336 336 335 334 333 332 332 332 330 329 328 327 326 325 326 327 326 325 324 323 322 322
332 331 330 331 330 331 330 329 328 325 323 324 325 328 329 330 329 328 329 329 329 332 334 334 333 333 332 332 331 331 330 328 326 325 325 326 326 326 325 323 322 321 321
333 331 330 329 330 331 328 328 326 324 324 325 326 327 328 329 329 328 328 328 328 327 329 332 333 333 332 332 331 330 329 328 325 325 325 324 324 324 323 322 321 320 320
334 330 330 329 329 329 330 328 327 326 324 325 325 325 326 329 329 328 327 327 326 326 327 329 331 332 332 331 330 328 327 326 325 325 324 325 323 323 322 321 320 320 319
334 332 330 330 332 328 326 326 326 327 324 325 325 324 325 327 327 328 325 325 323 323 324 326 327 327 329 330 329 328 326 325 325 325 323 322 323 323 322 321 320 319 319
333 331 330 328 329 328 328 326 326 325 326 325 325 324 324 326 326 325 324 325 323 322 322 324 325 325 325 328 329 327 327 326 326 325 324 322 324 323 322 321 321 320 319
332 330 329 328 328 327 328 328 326 325 323 324 323 322 323 323 323 324 324 323 322 322 322 323 323 323 324 326 328 329 327 327 326 326 324 323 324 324 323 321 321 320 320
331 330 328 326 328 326 325 325 324 322 323 325 320 319 312 315 319 322 323 322 321 321 321 322 322 321 322 322 322 327 328 327 327 326 326 326 324 324 324 322 321 321 320
330 331 327 325 325 324 323 324 323 321 319 323 323 316 309 308 314 317 318 320 318 318 321 322 322 321 320 321 322 322 320 321 328 329 327 326 326 325 324 322 321 321 321
328 328 325 323 321 320 320 321 323 322 321 319 320 320 318 316 310 309 316 316 319 318 319 319 320 320 320 320 320 318 315 314 318 326 328 327 327 326 325 324 323 322 322
326 328 324 321 320 319 320 320 320 321 321 319 318 316 315 316 315 312 309 312 316 317 318 318 320 321 321 320 319 317 313 311 313 320 324 327 327 327 326 325 325 324 324
326 327 325 322 321 319 319 319 320 320 320 320 318 317 316 313 311 311 310 312 312 314 316 317 317 319 320 318 320 316 312 310 310 314 319 323 325 327 327 326 326 326 325
325 325 324 322 321 321 320 319 319 320 320 319 318 317 316 316 315 313 310 311 311 313 313 316 318 318 320 319 319 314 311 307 308 311 314 317 319 322 324 326 326 327 327
322 324 325 323 322 321 320 319 320 320 319 319 318 318 318 317 318 316 313 312 307 309 312 313 317 317 316 319 317 310 314 306 306 308 310 312 314 316 318 320 322 324 325
322 323 324 324 324 321 321 320 320 320 319 318 318 319 318 318 318 318 316 315 309 304 308 312 313 318 319 318 316 317 315 307 305 305 306 308 310 312 313 314 316 317 319
323 320 323 323 322 322 321 320 319 320 319 319 319 318 317 317 317 316 314 314 313 311 308 313 315 316 319 319 317 318 317 309 304 303 303 304 306 308 309 310 311 312 314
320 320 320 322 322 322 321 320 319 319 318 318 319 319 318 318 317 316 315 314 313 311 307 309 313 316 314 317 319 319 318 317 317 303 302 302 302 303 304 305 306 307 309
320 318 318 319 322 322 321 319 317 317 317 316 317 317 317 318 317 317 316 315 316 315 312 310 311 312 312 313 315 316 318 320 319 311 305 304 303 302 302 302 302 302 302
319 318 319 320 320 321 320 319 318 317 317 316 316 316 317 316 315 316 315 315 315 315 314 313 311 313 313 312 311 313 314 316 317 312 305 303 303 302 299 300 300 300 300
319 319 321 320 319 319 319 319 318 317 317 317 317 317 316 315 315 315 315 315 314 313 312 312 311 310 311 313 313 312 310 313 313 317 312 300 297 296 295 295 295 296 296
319 319 319 318 319 318 314 318 317 316 315 315 315 316 316 313 307 310 314 314 313 312 311 310 309 310 310 309 307 309 310 311 311 309 310 300 296 294 293 293 293 294 294
318 317 317 316 304 300 292 293 310 316 316 315 314 315 316 306 305 300 300 303 309 312 311 310 310 309 309 309 311 310 309 307 305 297 304 294 294 289 289 290 291 291 291
312 310 305 301 296 294 290 292 293 316 313 307 307 311 311 302 302 310 298 292 290 290 289 307 309 306 305 296 299 303 304 304 302 291 296 291 287 284 286 288 289 289 289
294 293 292 292 290 290 289 291 294 300 295 293 293 295 296 294 290 298 298 291 287 287 288 290 289 286 286 287 290 294 295 295 288 285 286 287 285 282 284 286 288 288 287
287 287 287 287 287 287 289 291 295 292 288 286 287 288 288 289 288 292 292 286 284 283 286 286 286 285 285 285 286 291 287 288 286 282 282 285 283 281 282 282 285 286 285
285 285 285 285 286 286 288 289 290 288 284 284 284 285 286 286 287 289 291 286 282 282 282 281 281 281 282 283 282 282 284 286 285 281 281 283 283 282 279 282 282 280 278

GFSMA_sfc_thetae_117.txt.gz
Theta_e
335 330 329 330 328 327 333 331 330 325 323 324 325 325 325 325 326 328 330 330 331 337 339 338 336 333 331 331 332 332 330 329 328 327 327 328 327 326 325 326 326 324 323
334 331 329 329 327 328 327 329 326 324 323 323 323 326 324 325 325 326 328 330 328 333 336 338 336 334 332 331 333 332 331 330 328 326 326 328 327 326 326 324 323 323 322
332 331 330 328 328 328 325 324 322 321 320 321 321 324 323 324 324 325 327 328 329 327 330 333 334 334 333 331 332 332 331 329 327 326 326 326 327 325 324 323 322 322 322
331 330 330 329 328 327 326 324 325 324 319 319 318 319 321 323 324 325 326 329 330 330 328 329 332 333 332 332 332 330 329 328 327 327 326 326 326 325 324 322 322 321 321
332 330 329 328 327 328 327 326 326 326 323 322 322 318 321 322 323 327 327 328 329 329 329 327 328 328 330 332 332 330 330 328 327 327 326 325 325 324 323 322 322 321 320
332 330 329 326 327 328 328 327 326 326 324 324 323 323 323 325 326 327 327 328 327 326 325 326 326 325 325 329 331 331 330 328 326 327 327 325 325 324 324 322 322 321 320
332 330 328 326 328 329 328 327 326 324 323 324 322 321 322 323 324 326 327 327 326 323 323 323 324 322 324 327 329 331 330 329 328 327 326 325 325 322 324 323 322 321 320
331 330 328 326 328 329 327 327 326 324 324 324 320 317 313 317 321 324 325 324 324 323 322 322 322 321 322 326 325 329 330 330 328 326 327 325 323 323 324 323 322 322 321
330 330 328 327 327 328 327 327 327 324 321 323 322 317 310 310 315 321 321 323 322 321 322 321 321 322 322 323 324 324 321 322 327 327 327 326 325 324 324 324 323 322 321
328 329 328 326 326 327 326 327 326 325 324 320 322 321 318 316 312 310 319 320 321 321 319 320 321 321 323 322 321 318 316 314 319 326 328 327 326 325 325 325 324 323 323
328 328 327 325 325 326 328 326 324 324 323 321 320 318 319 317 315 312 311 313 318 319 319 319 320 320 321 321 320 318 314 312 313 321 326 326 327 326 325 325 325 325 324
326 327 327 326 325 325 322 322 322 323 322 320 320 317 316 313 314 314 312 313 313 316 318 319 319 319 320 320 320 316 312 310 311 315 320 324 326 326 326 327 326 325 325
324 325 326 326 325 322 319 319 321 321 320 320 319 318 318 318 318 317 315 314 312 314 315 317 319 319 319 319 319 314 312 308 309 312 314 318 321 323 325 326 327 327 326
325 326 326 325 324 320 320 321 320 319 319 319 318 317 318 318 317 317 315 313 310 310 312 313 317 318 319 319 318 311 317 306 307 308 310 313 315 317 319 321 323 324 325
325 323 326 324 322 320 321 319 318 317 318 319 319 319 316 317 317 316 317 317 313 306 309 312 313 318 318 319 317 317 317 309 306 305 306 308 311 313 314 316 318 319 321
324 323 325 324 321 320 320 318 317 317 317 318 319 317 317 316 317 317 316 315 314 311 307 314 314 315 318 318 316 317 316 311 305 303 303 304 306 309 310 311 312 313 315
323 322 324 323 321 319 319 317 317 317 316 317 318 317 316 317 316 316 316 315 314 312 309 310 313 314 314 316 316 318 316 316 317 304 302 302 302 304 305 306 306 307 309
322 322 323 323 322 321 319 318 316 317 316 316 317 317 316 317 316 316 316 315 314 313 312 309 310 311 312 316 317 315 316 317 316 308 303 301 301 301 301 300 301 302 302
321 322 323 322 321 321 319 318 318 317 317 318 318 317 317 317 316 316 316 315 315 314 313 312 311 312 313 313 312 314 314 316 317 310 301 301 300 301 301 301 300 300 300
321 321 322 322 321 320 320 319 319 318 318 318 319 318 318 317 316 316 316 316 315 314 314 312 312 311 311 313 313 312 311 313 311 303 297 296 296 296 296 296 296 296 296
320 320 320 320 320 320 320 319 319 318 317 317 317 318 318 315 308 312 316 316 315 314 314 313 312 309 310 308 310 312 312 312 309 301 297 297 295 293 294 294 294 294 294
311 318 318 318 316 303 292 299 313 318 317 316 315 316 317 306 306 300 301 301 310 314 311 310 310 309 309 310 310 310 310 307 302 301 296 290 292 289 290 291 292 292 291
290 292 296 299 295 292 290 292 297 317 316 316 315 314 314 311 306 309 291 291 290 289 290 310 310 310 309 309 308 306 306 305 301 293 293 285 286 285 288 290 290 290 289
287 287 288 290 290 289 291 292 291 306 299 295 295 297 306 302 296 303 299 293 289 288 289 291 293 289 289 291 296 301 302 291 288 286 290 283 284 283 285 286 288 288 287
286 285 286 286 287 287 289 289 293 292 289 287 287 288 291 293 289 293 296 288 284 284 287 287 286 286 286 287 289 294 289 290 285 284 285 284 282 281 282 283 285 286 286
285 286 285 285 285 285 288 288 288 287 285 285 285 285 286 288 288 290 292 288 284 282 282 282 282 282 283 283 283 284 286 287 285 283 283 283 281 281 278 282 283 282 281

GFSMA_sfc_thetae_120.txt.gz
Theta_e
335 331 329 330 330 329 330 330 331 325 324 324 325 325 325 326 326 328 330 329 330 337 340 339 337 335 333 333 333 332 331 330 328 327 327 328 327 327 326 326 326 326 326
335 333 329 328 327 331 334 332 330 324 323 324 323 324 324 325 326 327 328 329 328 332 336 338 337 335 333 331 333 332 331 330 329 326 327 327 327 326 325 324 325 324 323
335 333 331 328 327 327 329 329 325 322 321 322 322 323 324 326 325 325 327 328 329 327 330 335 336 336 334 332 332 332 331 330 329 328 328 327 326 326 324 325 324 323 323
333 331 331 329 326 326 325 324 324 323 320 320 319 320 322 323 324 324 325 327 328 330 328 330 332 333 333 333 332 331 330 330 329 327 327 326 326 325 325 324 323 323 322
332 332 332 329 326 327 326 325 325 325 323 321 319 318 320 321 323 326 325 326 327 328 330 328 328 328 330 332 333 331 330 328 327 328 327 326 325 326 325 323 322 322 321
331 330 329 327 328 329 328 327 326 326 325 324 324 322 320 321 323 323 324 327 328 329 329 328 328 328 326 330 332 332 331 328 326 328 327 325 324 325 324 323 322 321 321
331 330 329 326 329 329 327 326 327 324 323 324 321 321 321 323 324 325 326 326 327 328 327 328 327 327 326 327 330 332 332 329 328 327 327 326 325 325 324 324 322 321 321
331 331 330 327 328 328 328 327 326 323 324 324 320 318 314 317 321 323 325 326 326 327 324 325 326 324 325 326 327 329 331 330 329 327 328 327 326 324 324 324 323 322 321
332 331 330 329 328 329 328 327 327 325 321 323 323 318 311 310 315 321 322 324 324 324 324 324 324 324 324 325 325 325 322 323 328 329 329 328 326 324 323 324 323 323 322
333 331 329 328 329 329 329 328 328 327 324 319 322 322 319 317 311 310 319 321 323 322 322 323 323 323 323 324 323 320 316 315 320 327 328 328 327 325 324 324 325 324 323
329 330 328 327 328 328 328 326 326 326 325 323 321 319 318 316 316 313 310 315 320 322 322 322 322 322 322 324 323 320 314 312 314 321 325 327 327 326 325 324 325 325 324
327 327 327 326 326 327 327 327 326 325 323 323 322 319 319 316 315 314 312 313 315 317 320 321 321 322 322 323 322 316 312 311 311 315 321 324 325 326 325 325 325 326 325
326 326 327 327 327 327 327 327 325 323 323 322 321 320 320 319 317 317 315 314 313 314 315 319 320 321 321 321 321 314 311 308 309 312 315 318 321 323 324 325 326 326 326
326 327 328 328 328 326 325 324 323 323 323 322 320 320 319 319 318 317 317 314 310 310 312 313 319 319 320 320 319 311 318 306 307 308 311 313 315 317 319 321 323 324 325
323 324 327 327 326 325 323 322 323 321 320 320 319 319 318 318 317 317 318 318 313 307 310 312 313 318 319 320 317 318 318 309 306 306 306 308 311 313 314 316 318 319 321
324 325 325 326 325 323 322 322 321 320 319 318 318 318 318 318 317 317 316 317 317 313 310 313 314 317 319 319 317 318 318 311 305 304 303 304 306 308 310 311 312 314 316
323 323 324 324 324 322 321 321 320 318 317 316 317 318 317 318 316 316 316 316 315 314 309 311 316 317 316 316 316 317 317 317 315 303 302 302 302 303 304 305 306 308 309
322 321 322 324 323 321 321 319 317 317 316 315 317 317 317 317 316 317 316 315 314 313 311 309 311 312 314 316 317 315 316 317 318 308 304 302 301 301 300 301 302 302 303
322 322 323 323 322 321 319 319 318 317 316 315 316 316 317 316 315 316 316 315 315 314 313 311 310 312 313 314 313 314 315 316 316 308 301 300 300 300 300 300 300 300 301
320 321 322 323 322 321 320 319 318 316 315 316 317 317 318 317 316 316 315 315 315 314 313 312 312 310 311 312 313 313 312 313 307 301 297 297 297 297 297 297 297 297 296
297 300 320 321 322 321 320 319 318 317 317 316 317 318 318 316 308 312 316 316 315 314 313 312 311 312 311 310 311 313 312 313 308 299 296 296 295 294 295 295 296 295 295
293 293 294 300 308 299 294 299 312 317 317 317 316 317 318 307 306 301 301 303 311 315 313 312 311 310 311 312 312 312 312 307 300 300 295 290 292 290 291 292 293 293 292
290 290 290 290 290 291 290 297 297 318 317 317 316 316 315 314 307 312 293 291 290 290 292 313 311 311 309 310 310 308 309 307 302 296 292 285 287 286 289 291 291 291 290
287 287 288 288 288 289 289 291 294 307 301 294 293 297 311 309 307 302 299 294 289 289 291 293 295 292 293 294 302 305 307 292 289 288 291 283 285 284 286 288 289 289 288
285 285 285 286 286 286 288 288 290 290 287 286 287 288 288 295 290 296 297 289 285 284 287 288 287 287 287 287 290 297 292 292 286 286 286 283 282 282 283 284 286 287 286
284 284 283 284 284 284 286 288 288 286 285 285 285 285 286 288 289 290 295 290 285 283 283 282 282 282 282 283 283 285 287 289 285 284 285 282 282 282 279 283 282 282 283

GFSMA_sfc_thetae_123.txt.gz
Theta_e
341 344 345 345 346 346 344 342 340 341 340 339 338 337 337 338 339 338 340 330 331 336 340 341 339 338 337 336 336 335 333 331 330 329 328 328 328 328 327 327 327 326 326
340 340 341 343 342 344 343 342 339 339 339 338 336 333 334 336 336 337 338 339 329 330 336 339 338 336 336 333 334 333 332 332 330 328 328 328 327 327 326 326 326 326 325
341 339 337 340 342 341 341 339 336 334 338 336 333 331 335 335 335 335 336 338 336 325 329 334 335 336 334 333 333 332 331 330 329 329 329 327 326 326 325 325 325 325 325
339 337 335 336 340 337 335 332 330 330 335 335 335 334 334 334 334 333 334 335 337 337 330 329 332 334 334 334 332 331 331 331 330 329 328 327 326 325 325 325 325 325 324
338 335 335 335 338 337 334 331 329 330 328 329 333 334 333 332 333 332 332 333 334 335 336 330 328 329 331 332 334 331 331 329 329 328 327 327 326 325 325 325 324 324 323
335 336 336 335 335 333 333 332 331 330 330 329 328 329 330 331 332 332 332 332 333 334 335 335 336 330 326 330 332 333 332 330 328 328 327 326 326 325 325 325 324 323 322
335 337 335 334 333 333 332 332 330 327 327 328 324 323 324 327 326 328 332 331 332 332 334 333 335 330 328 327 330 333 332 331 328 328 328 328 327 325 324 325 323 322 322
338 338 336 333 332 332 332 331 329 326 327 327 324 323 318 322 324 329 328 329 331 333 331 332 330 329 329 332 330 330 332 332 329 328 329 328 326 325 324 324 324 322 322
338 338 337 334 332 333 330 329 328 329 324 327 330 327 317 317 321 325 325 328 328 329 330 330 330 327 328 331 329 327 322 323 328 330 329 328 326 325 324 324 324 324 322
338 338 336 334 333 333 333 331 332 333 331 325 327 328 329 326 319 318 324 325 327 328 327 328 329 326 327 330 327 322 316 316 321 328 329 329 328 326 325 323 324 324 323
337 337 335 333 333 333 333 331 331 332 331 329 326 325 324 323 324 320 317 320 324 326 327 326 328 326 327 330 329 324 314 313 315 322 326 328 328 326 325 324 324 324 324
333 333 333 333 332 331 332 331 332 333 331 329 329 327 324 320 318 320 316 318 318 322 326 324 324 325 324 326 325 318 313 311 312 317 322 325 326 326 325 325 324 325 325
330 330 331 330 331 331 331 331 330 333 332 330 330 328 328 327 328 323 321 317 315 321 321 322 323 324 324 325 326 316 312 309 309 313 316 319 321 323 323 325 325 325 325
332 331 331 332 332 330 330 330 329 329 329 329 329 327 326 326 327 322 320 318 313 316 314 315 322 322 323 324 323 311 322 307 307 309 311 314 316 318 318 321 322 323 324
333 333 332 330 332 331 329 329 328 327 326 326 325 325 324 324 323 322 321 320 319 309 309 313 315 321 322 321 319 325 325 310 306 306 307 309 312 313 315 316 317 319 321
330 331 331 332 332 331 328 326 324 325 324 324 324 322 322 322 321 321 321 324 321 316 310 315 316 318 320 320 316 322 322 311 305 304 304 305 307 309 311 311 313 315 316
327 327 329 329 329 328 326 323 323 324 323 322 321 320 320 322 321 320 320 320 319 319 313 315 317 319 318 319 319 319 320 321 321 303 303 303 304 305 306 306 307 309 311
326 326 326 327 328 327 325 322 321 322 321 320 319 320 320 322 320 319 319 318 320 320 315 311 314 315 317 319 318 317 317 320 322 310 303 302 302 302 302 302 302 303 305
303 321 324 324 324 325 324 322 322 322 320 321 320 319 319 322 319 318 319 319 320 318 315 312 311 314 316 316 316 317 320 321 321 311 303 300 301 301 300 300 300 301 301
298 299 302 318 323 323 323 322 321 321 320 320 320 319 320 322 320 320 319 319 319 316 314 313 312 311 313 314 316 314 313 319 315 306 299 301 299 299 299 299 299 299 299
294 296 295 296 296 299 294 294 315 320 318 318 317 319 323 319 309 315 318 318 318 315 314 312 312 311 311 311 311 315 314 314 308 302 298 297 297 297 296 296 297 296 296
290 291 291 292 292 292 289 291 295 317 318 317 316 319 322 308 308 302 302 304 314 316 314 313 312 311 312 313 314 313 313 310 302 301 297 291 293 291 292 294 294 294 294
288 287 287 288 288 288 289 290 291 306 317 317 318 318 318 317 310 316 300 294 293 294 296 318 313 314 313 314 314 312 313 312 308 299 293 286 288 287 291 292 292 292 292
287 286 286 286 286 286 287 289 289 291 290 289 290 292 300 312 312 313 303 299 294 293 294 297 307 311 308 310 314 313 311 293 291 289 292 284 286 285 287 289 290 290 289
286 285 285 284 284 284 286 286 289 289 287 285 287 288 288 291 289 293 301 294 287 285 288 289 288 288 288 288 294 303 294 295 288 287 288 285 284 283 285 285 286 287 287
285 287 285 285 285 284 286 286 285 286 286 285 285 285 285 286 287 288 296 293 289 285 284 284 284 284 284 284 284 286 297 298 287 286 286 283 283 283 280 283 283 284 284